Time,TemperatureF,DewpointF,PressureIn,WindDirection,WindDirectionDegrees,WindSpeedMPH,WindSpeedGustMPH,Humidity,HourlyPrecipIn,Conditions,Clouds,dailyrainin,SoftwareType,DateUTC
2013-12-11 00:00:00,22.1,12.5,30.02,SW,234,3.0,7.0,66,0.00,,FEW060,0.00,VWS V14.00,2013-12-11 05:00:00,
2013-12-11 00:01:00,22.1,12.5,30.02,SW,223,2.0,3.0,66,0.00,,FEW060,0.00,VWS V14.00,2013-12-11 05:01:00,
2013-12-11 00:02:00,22.0,12.4,30.02,SW,223,5.0,5.0,66,0.00,,FEW060,0.00,VWS V14.00,2013-12-11 05:02:00,
2013-12-11 00:03:00,22.1,12.8,30.02,West,262,3.0,5.0,67,0.00,,FEW060,0.00,VWS V14.00,2013-12-11 05:03:00,
2013-12-11 00:04:00,22.1,12.8,30.02,West,263,3.0,5.0,67,0.00,,FEW060,0.00,VWS V14.00,2013-12-11 05:04:00,
2013-12-11 00:05:00,22.1,12.5,30.02,West,263,3.0,5.0,66,0.00,,FEW060,0.00,VWS V14.00,2013-12-11 05:05:00,
2013-12-11 00:06:00,22.1,12.5,30.02,SW,222,2.0,5.0,66,0.00,,FEW060,0.00,VWS V14.00,2013-12-11 05:06:00,
2013-12-11 00:07:00,22.1,12.5,30.03,WSW,254,2.0,5.0,66,0.00,,FEW060,0.00,VWS V14.00,2013-12-11 05:07:00,
2013-12-11 00:08:00,22.1,12.5,30.03,WSW,253,4.0,5.0,66,0.00,,FEW060,0.00,VWS V14.00,2013-12-11 05:08:00,
2013-12-11 00:09:00,22.1,12.5,30.03,SSW,209,6.0,6.0,66,0.00,,FEW060,0.00,VWS V14.00,2013-12-11 05:09:00,
2013-12-11 00:10:00,22.2,12.9,30.03,WSW,242,3.0,6.0,67,0.00,,FEW060,0.00,VWS V14.00,2013-12-11 05:10:00,
2013-12-11 00:11:00,22.2,12.6,30.03,SW,234,5.0,5.0,66,0.00,,FEW060,0.00,VWS V14.00,2013-12-11 05:11:00,
2013-12-11 00:12:00,22.2,12.9,30.03,SW,236,5.0,6.0,67,0.00,,FEW060,0.00,VWS V14.00,2013-12-11 05:12:00,
2013-12-11 00:13:00,22.2,12.6,30.03,West,276,6.0,6.0,66,0.00,,FEW060,0.00,VWS V14.00,2013-12-11 05:13:00,
2013-12-11 00:14:00,22.3,13.0,30.03,West,270,9.0,9.0,67,0.00,,FEW060,0.00,VWS V14.00,2013-12-11 05:14:00,
2013-12-11 00:15:00,22.2,12.2,30.03,WSW,252,4.0,9.0,65,0.00,,FEW060,0.00,VWS V14.00,2013-12-11 05:15:00,
2013-12-11 00:16:00,22.2,12.2,30.03,West,267,4.0,9.0,65,0.00,,FEW060,0.00,VWS V14.00,2013-12-11 05:16:00,
2013-12-11 00:17:00,22.1,12.1,30.03,West,276,5.0,9.0,65,0.00,,FEW060,0.00,VWS V14.00,2013-12-11 05:17:00,
2013-12-11 00:18:00,22.1,12.1,30.03,West,273,4.0,9.0,65,0.00,,FEW060,0.00,VWS V14.00,2013-12-11 05:18:00,
2013-12-11 00:19:00,22.1,12.1,30.03,WSW,246,2.0,9.0,65,0.00,,FEW060,0.00,VWS V14.00,2013-12-11 05:19:00,
2013-12-11 00:20:00,22.0,12.1,30.03,WSW,246,4.0,9.0,65,0.00,,FEW060,0.00,VWS V14.00,2013-12-11 05:20:00,
2013-12-11 00:21:00,22.0,12.4,30.03,WSW,250,4.0,4.0,66,0.00,,FEW060,0.00,VWS V14.00,2013-12-11 05:21:00,
2013-12-11 00:22:00,22.0,12.4,30.03,West,273,3.0,4.0,66,0.00,,FEW060,0.00,VWS V14.00,2013-12-11 05:22:00,
2013-12-11 00:23:00,22.0,12.4,30.03,West,267,5.0,6.0,66,0.00,,FEW060,0.00,VWS V14.00,2013-12-11 05:23:00,
2013-12-11 00:24:00,22.0,12.1,30.03,West,260,6.0,6.0,65,0.00,,FEW060,0.00,VWS V14.00,2013-12-11 05:24:00,
2013-12-11 00:25:00,22.0,12.1,30.03,SSW,210,3.0,6.0,65,0.00,,FEW060,0.00,VWS V14.00,2013-12-11 05:25:00,
2013-12-11 00:26:00,22.0,12.1,30.03,SW,235,4.0,6.0,65,0.00,,FEW060,0.00,VWS V14.00,2013-12-11 05:26:00,
2013-12-11 00:27:00,22.0,12.4,30.03,WSW,254,3.0,6.0,66,0.00,,FEW060,0.00,VWS V14.00,2013-12-11 05:27:00,
2013-12-11 00:28:00,22.1,12.5,30.03,SSW,196,10.0,10.0,66,0.00,,FEW060,0.00,VWS V14.00,2013-12-11 05:28:00,
2013-12-11 00:29:00,22.2,12.6,30.03,SW,214,6.0,10.0,66,0.00,,FEW060,0.00,VWS V14.00,2013-12-11 05:29:00,
2013-12-11 00:30:00,22.2,12.9,30.03,SW,225,4.0,10.0,67,0.00,,FEW060,0.00,VWS V14.00,2013-12-11 05:30:00,
2013-12-11 00:31:00,22.2,12.6,30.03,SSW,203,5.0,5.0,66,0.00,,FEW060,0.00,VWS V14.00,2013-12-11 05:31:00,
2013-12-11 00:32:00,22.3,12.3,30.03,SSW,213,2.0,10.0,65,0.00,,FEW060,0.00,VWS V14.00,2013-12-11 05:32:00,
2013-12-11 00:33:00,22.2,12.2,30.03,SW,215,2.0,10.0,65,0.00,,FEW060,0.00,VWS V14.00,2013-12-11 05:33:00,
2013-12-11 00:34:00,22.2,12.6,30.03,WSW,254,3.0,10.0,66,0.00,,FEW060,0.00,VWS V14.00,2013-12-11 05:34:00,
2013-12-11 00:35:00,22.3,12.7,30.03,WNW,296,3.0,10.0,66,0.00,,FEW060,0.00,VWS V14.00,2013-12-11 05:35:00,
2013-12-11 00:36:00,22.3,13.0,30.03,West,271,4.0,10.0,67,0.00,,FEW060,0.00,VWS V14.00,2013-12-11 05:36:00,
2013-12-11 00:37:00,22.3,12.7,30.03,West,271,3.0,10.0,66,0.00,,FEW060,0.00,VWS V14.00,2013-12-11 05:37:00,
2013-12-11 00:38:00,22.3,13.0,30.04,WSW,246,5.0,10.0,67,0.00,,FEW060,0.00,VWS V14.00,2013-12-11 05:38:00,
2013-12-11 00:39:00,22.3,12.7,30.04,WSW,246,6.0,10.0,66,0.00,,FEW060,0.00,VWS V14.00,2013-12-11 05:39:00,
2013-12-11 00:40:00,22.4,13.4,30.04,West,259,10.0,10.0,68,0.00,,FEW060,0.00,VWS V14.00,2013-12-11 05:40:00,
2013-12-11 00:41:00,22.4,12.8,30.04,West,276,13.0,16.0,66,0.00,,FEW060,0.00,VWS V14.00,2013-12-11 05:41:00,
2013-12-11 00:42:00,22.3,12.3,30.04,West,265,5.0,16.0,65,0.00,,FEW060,0.00,VWS V14.00,2013-12-11 05:42:00,
2013-12-11 00:43:00,22.2,11.9,30.04,WSW,245,3.0,16.0,64,0.00,,FEW060,0.00,VWS V14.00,2013-12-11 05:43:00,
2013-12-11 00:44:00,22.2,12.2,30.04,SW,226,10.0,16.0,65,0.00,,FEW060,0.00,VWS V14.00,2013-12-11 05:44:00,
2013-12-11 00:45:00,22.2,12.6,30.04,SSW,202,7.0,16.0,66,0.00,,FEW060,0.00,VWS V14.00,2013-12-11 05:45:00,
2013-12-11 00:46:00,22.2,12.6,30.04,SSW,200,6.0,16.0,66,0.00,,FEW060,0.00,VWS V14.00,2013-12-11 05:46:00,
2013-12-11 00:47:00,22.3,12.3,30.04,SW,224,8.0,16.0,65,0.00,,FEW060,0.00,VWS V14.00,2013-12-11 05:47:00,
2013-12-11 00:48:00,22.4,12.8,30.04,WNW,287,4.0,16.0,66,0.00,,OVC034,0.00,VWS V14.00,2013-12-11 05:48:00,
2013-12-11 00:49:00,22.4,12.4,30.04,WNW,299,5.0,16.0,65,0.00,,OVC034,0.00,VWS V14.00,2013-12-11 05:49:00,
2013-12-11 00:50:00,22.4,13.1,30.04,WNW,292,6.0,16.0,67,0.00,,OVC034,0.00,VWS V14.00,2013-12-11 05:50:00,
2013-12-11 00:51:00,22.4,13.1,30.04,SW,225,6.0,7.0,67,0.00,,OVC034,0.00,VWS V14.00,2013-12-11 05:51:00,
2013-12-11 00:52:00,22.5,12.9,30.04,WSW,242,8.0,11.0,66,0.00,,OVC034,0.00,VWS V14.00,2013-12-11 05:52:00,
2013-12-11 00:53:00,22.4,12.8,30.04,WNW,284,11.0,12.0,66,0.00,,OVC034,0.00,VWS V14.00,2013-12-11 05:53:00,
2013-12-11 00:54:00,22.4,12.8,30.05,NW,307,3.0,12.0,66,0.00,,OVC034,0.00,VWS V14.00,2013-12-11 05:54:00,
2013-12-11 00:55:00,22.4,12.4,30.05,WNW,283,4.0,12.0,65,0.00,,OVC034,0.00,VWS V14.00,2013-12-11 05:55:00,
2013-12-11 00:56:00,22.3,12.3,30.05,WNW,282,7.0,12.0,65,0.00,,OVC034,0.00,VWS V14.00,2013-12-11 05:56:00,
2013-12-11 00:57:00,22.2,12.6,30.05,West,273,5.0,12.0,66,0.00,,OVC034,0.00,VWS V14.00,2013-12-11 05:57:00,
2013-12-11 00:58:00,22.1,12.5,30.05,West,273,7.0,12.0,66,0.00,,OVC034,0.00,VWS V14.00,2013-12-11 05:58:00,
2013-12-11 00:59:00,22.1,12.5,30.05,WSW,256,3.0,12.0,66,0.00,,OVC034,0.00,VWS V14.00,2013-12-11 05:59:00,
2013-12-11 01:00:00,22.1,12.5,30.05,WNW,296,5.0,12.0,66,0.00,,OVC034,0.00,VWS V14.00,2013-12-11 06:00:00,
2013-12-11 01:01:00,22.0,12.4,30.05,WNW,295,5.0,5.0,66,0.00,,OVC034,0.00,VWS V14.00,2013-12-11 06:01:00,
2013-12-11 01:02:00,22.0,12.7,30.05,SSW,209,5.0,9.0,67,0.00,,OVC034,0.00,VWS V14.00,2013-12-11 06:02:00,
2013-12-11 01:03:00,22.0,13.1,30.05,SSW,201,10.0,11.0,68,0.00,,OVC034,0.00,VWS V14.00,2013-12-11 06:03:00,
2013-12-11 01:04:00,22.0,13.1,30.05,SW,218,4.0,11.0,68,0.00,,OVC034,0.00,VWS V14.00,2013-12-11 06:04:00,
2013-12-11 01:05:00,22.0,12.7,30.05,SW,218,7.0,11.0,67,0.00,,OVC034,0.00,VWS V14.00,2013-12-11 06:05:00,
2013-12-11 01:06:00,21.9,12.6,30.05,SW,221,6.0,11.0,67,0.00,,OVC034,0.00,VWS V14.00,2013-12-11 06:06:00,
2013-12-11 01:07:00,22.0,13.1,30.05,WSW,244,2.0,11.0,68,0.00,,OVC034,0.00,VWS V14.00,2013-12-11 06:07:00,
2013-12-11 01:08:00,21.9,12.6,30.05,WSW,253,4.0,11.0,67,0.00,,OVC034,0.00,VWS V14.00,2013-12-11 06:08:00,
2013-12-11 01:09:00,21.9,13.0,30.05,SW,232,3.0,11.0,68,0.00,,OVC034,0.00,VWS V14.00,2013-12-11 06:09:00,
2013-12-11 01:10:00,22.0,13.1,30.05,WSW,241,4.0,11.0,68,0.00,,OVC034,0.00,VWS V14.00,2013-12-11 06:10:00,
2013-12-11 01:11:00,22.0,13.1,30.05,SW,236,5.0,6.0,68,0.00,,OVC034,0.00,VWS V14.00,2013-12-11 06:11:00,
2013-12-11 01:12:00,22.0,13.1,30.05,SSW,194,2.0,6.0,68,0.00,,OVC034,0.00,VWS V14.00,2013-12-11 06:12:00,
2013-12-11 01:13:00,21.9,12.6,30.05,West,277,4.0,6.0,67,0.00,,OVC034,0.00,VWS V14.00,2013-12-11 06:13:00,
2013-12-11 01:14:00,21.9,12.6,30.05,WSW,242,7.0,7.0,67,0.00,,OVC034,0.00,VWS V14.00,2013-12-11 06:14:00,
2013-12-11 01:15:00,21.9,12.6,30.05,WSW,240,4.0,7.0,67,0.00,,OVC034,0.00,VWS V14.00,2013-12-11 06:15:00,
2013-12-11 01:16:00,21.9,13.0,30.05,WSW,244,4.0,7.0,68,0.00,,OVC034,0.00,VWS V14.00,2013-12-11 06:16:00,
2013-12-11 01:17:00,21.9,13.0,30.05,West,263,3.0,7.0,68,0.00,,OVC034,0.00,VWS V14.00,2013-12-11 06:17:00,
2013-12-11 01:18:00,21.8,12.5,30.05,West,261,4.0,7.0,67,0.00,,OVC034,0.00,VWS V14.00,2013-12-11 06:18:00,
2013-12-11 01:19:00,21.8,12.5,30.05,West,267,1.0,7.0,67,0.00,,OVC034,0.00,VWS V14.00,2013-12-11 06:19:00,
2013-12-11 01:20:00,21.8,12.9,30.05,WSW,247,4.0,7.0,68,0.00,,OVC034,0.00,VWS V14.00,2013-12-11 06:20:00,
2013-12-11 01:21:00,21.8,13.2,30.05,SW,235,1.0,4.0,69,0.00,,OVC034,0.00,VWS V14.00,2013-12-11 06:21:00,
2013-12-11 01:22:00,21.8,12.9,30.05,SW,235,0.0,4.0,68,0.00,,OVC034,0.00,VWS V14.00,2013-12-11 06:22:00,
2013-12-11 01:23:00,21.7,12.8,30.05,SW,235,1.0,4.0,68,0.00,,OVC034,0.00,VWS V14.00,2013-12-11 06:23:00,
2013-12-11 01:24:00,21.6,12.7,30.05,SW,234,0.0,4.0,68,0.00,,OVC034,0.00,VWS V14.00,2013-12-11 06:24:00,
2013-12-11 01:25:00,21.7,13.1,30.05,SW,235,0.0,4.0,69,0.00,,OVC034,0.00,VWS V14.00,2013-12-11 06:25:00,
2013-12-11 01:26:00,21.5,12.6,30.05,SW,234,0.0,4.0,68,0.00,,OVC034,0.00,VWS V14.00,2013-12-11 06:26:00,
2013-12-11 01:27:00,21.5,12.9,30.05,SSW,206,2.0,4.0,69,0.00,,OVC034,0.00,VWS V14.00,2013-12-11 06:27:00,
2013-12-11 01:28:00,21.4,12.8,30.05,SSW,200,1.0,4.0,69,0.00,,OVC034,0.00,VWS V14.00,2013-12-11 06:28:00,
2013-12-11 01:29:00,21.3,12.7,30.05,South,176,2.0,5.0,69,0.00,,OVC034,0.00,VWS V14.00,2013-12-11 06:29:00,
2013-12-11 01:30:00,21.2,13.0,30.05,South,172,1.0,5.0,70,0.00,,OVC034,0.00,VWS V14.00,2013-12-11 06:30:00,
2013-12-11 01:31:00,21.1,12.9,30.05,SSW,206,0.0,3.0,70,0.00,,OVC034,0.00,VWS V14.00,2013-12-11 06:31:00,
2013-12-11 01:32:00,21.0,12.4,30.05,SSW,207,0.0,4.0,69,0.00,,OVC034,0.00,VWS V14.00,2013-12-11 06:32:00,
2013-12-11 01:33:00,20.9,12.7,30.05,SE,139,4.0,4.0,70,0.00,,OVC034,0.00,VWS V14.00,2013-12-11 06:33:00,
2013-12-11 01:34:00,20.8,12.6,30.05,South,183,3.0,4.0,70,0.00,,OVC034,0.00,VWS V14.00,2013-12-11 06:34:00,
2013-12-11 01:35:00,20.7,12.5,30.06,NW,306,2.0,5.0,70,0.00,,OVC034,0.00,VWS V14.00,2013-12-11 06:35:00,
2013-12-11 01:36:00,20.8,12.2,30.05,WSW,248,8.0,9.0,69,0.00,,OVC034,0.00,VWS V14.00,2013-12-11 06:36:00,
2013-12-11 01:37:00,21.0,12.4,30.06,NE,42,4.0,9.0,69,0.00,,OVC034,0.00,VWS V14.00,2013-12-11 06:37:00,
2013-12-11 01:38:00,21.1,12.5,30.05,WNW,295,2.0,9.0,69,0.00,,OVC034,0.00,VWS V14.00,2013-12-11 06:38:00,
2013-12-11 01:39:00,21.3,12.7,30.05,SSW,210,2.0,9.0,69,0.00,,OVC034,0.00,VWS V14.00,2013-12-11 06:39:00,
2013-12-11 01:40:00,21.3,12.7,30.06,SSW,206,1.0,9.0,69,0.00,,OVC034,0.00,VWS V14.00,2013-12-11 06:40:00,
2013-12-11 01:41:00,21.3,12.7,30.06,SSW,206,0.0,0.0,69,0.00,,OVC034,0.00,VWS V14.00,2013-12-11 06:41:00,
2013-12-11 01:42:00,21.3,12.7,30.06,SSW,201,1.0,4.0,69,0.00,,OVC034,0.00,VWS V14.00,2013-12-11 06:42:00,
2013-12-11 01:43:00,21.3,12.4,30.06,SSW,200,0.0,4.0,68,0.00,,OVC034,0.00,VWS V14.00,2013-12-11 06:43:00,
2013-12-11 01:44:00,21.3,12.4,30.06,SSW,200,0.0,4.0,68,0.00,,OVC034,0.00,VWS V14.00,2013-12-11 06:44:00,
2013-12-11 01:45:00,21.3,12.4,30.06,SSW,200,0.0,4.0,68,0.00,,OVC034,0.00,VWS V14.00,2013-12-11 06:45:00,
2013-12-11 01:46:00,21.3,12.4,30.06,SSW,200,0.0,4.0,68,0.00,,OVC034,0.00,VWS V14.00,2013-12-11 06:46:00,
2013-12-11 01:47:00,21.2,12.3,30.06,SSW,200,0.0,4.0,68,0.00,,OVC034,0.00,VWS V14.00,2013-12-11 06:47:00,
2013-12-11 01:48:00,21.1,12.2,30.06,SSW,200,0.0,4.0,68,0.00,,SCT033,0.00,VWS V14.00,2013-12-11 06:48:00,
2013-12-11 01:49:00,20.9,12.0,30.06,SSW,200,0.0,4.0,68,0.00,,SCT033,0.00,VWS V14.00,2013-12-11 06:49:00,
2013-12-11 01:50:00,20.8,11.9,30.06,SSW,200,0.0,4.0,68,0.00,,SCT033,0.00,VWS V14.00,2013-12-11 06:50:00,
2013-12-11 01:51:00,20.7,11.8,30.06,SSW,209,2.0,2.0,68,0.00,,SCT033,0.00,VWS V14.00,2013-12-11 06:51:00,
2013-12-11 01:52:00,20.6,11.7,30.06,SSW,209,0.0,2.0,68,0.00,,SCT033,0.00,VWS V14.00,2013-12-11 06:52:00,
2013-12-11 01:53:00,20.5,11.6,30.07,SSW,209,0.0,2.0,68,0.00,,SCT033,0.00,VWS V14.00,2013-12-11 06:53:00,
2013-12-11 01:54:00,20.5,11.6,30.07,West,280,6.0,6.0,68,0.00,,SCT033,0.00,VWS V14.00,2013-12-11 06:54:00,
2013-12-11 01:55:00,20.6,11.7,30.07,West,275,0.0,8.0,68,0.00,,SCT033,0.00,VWS V14.00,2013-12-11 06:55:00,
2013-12-11 01:56:00,20.7,11.8,30.07,SSE,154,2.0,8.0,68,0.00,,SCT033,0.00,VWS V14.00,2013-12-11 06:56:00,
2013-12-11 01:57:00,20.6,11.7,30.07,SE,137,0.0,8.0,68,0.00,,SCT033,0.00,VWS V14.00,2013-12-11 06:57:00,
2013-12-11 01:58:00,20.5,11.6,30.07,SW,233,3.0,8.0,68,0.00,,SCT033,0.00,VWS V14.00,2013-12-11 06:58:00,
2013-12-11 01:59:00,20.6,11.7,30.07,West,263,3.0,8.0,68,0.00,,SCT033,0.00,VWS V14.00,2013-12-11 06:59:00,
2013-12-11 02:00:00,20.8,11.9,30.07,West,279,5.0,8.0,68,0.00,,SCT033,0.00,VWS V14.00,2013-12-11 07:00:00,
2013-12-11 02:01:00,21.1,12.2,30.07,West,273,4.0,7.0,68,0.00,,SCT033,0.00,VWS V14.00,2013-12-11 07:01:00,
2013-12-11 02:02:00,21.2,12.0,30.07,WNW,286,3.0,7.0,67,0.00,,SCT033,0.00,VWS V14.00,2013-12-11 07:02:00,
2013-12-11 02:03:00,21.3,12.1,30.07,West,275,2.0,7.0,67,0.00,,SCT033,0.00,VWS V14.00,2013-12-11 07:03:00,
2013-12-11 02:04:00,21.5,12.3,30.07,WSW,252,2.0,7.0,67,0.00,,SCT033,0.00,VWS V14.00,2013-12-11 07:04:00,
2013-12-11 02:05:00,21.5,12.6,30.07,SW,214,11.0,11.0,68,0.00,,SCT033,0.00,VWS V14.00,2013-12-11 07:05:00,
2013-12-11 02:06:00,21.5,11.9,30.07,WSW,257,6.0,11.0,66,0.00,,SCT033,0.00,VWS V14.00,2013-12-11 07:06:00,
2013-12-11 02:07:00,21.6,11.7,30.07,West,276,3.0,11.0,65,0.00,,SCT033,0.00,VWS V14.00,2013-12-11 07:07:00,
2013-12-11 02:08:00,21.6,11.7,30.07,West,276,4.0,11.0,65,0.00,,SCT033,0.00,VWS V14.00,2013-12-11 07:08:00,
2013-12-11 02:09:00,21.6,11.7,30.07,West,275,1.0,11.0,65,0.00,,SCT033,0.00,VWS V14.00,2013-12-11 07:09:00,
2013-12-11 02:10:00,21.6,11.3,30.07,West,279,5.0,11.0,64,0.00,,SCT033,0.00,VWS V14.00,2013-12-11 07:10:00,
2013-12-11 02:11:00,21.6,11.3,30.07,West,267,3.0,5.0,64,0.00,,SCT033,0.00,VWS V14.00,2013-12-11 07:11:00,
2013-12-11 02:12:00,21.6,11.3,30.07,NW,309,4.0,7.0,64,0.00,,SCT033,0.00,VWS V14.00,2013-12-11 07:12:00,
2013-12-11 02:13:00,21.6,11.0,30.07,WNW,302,3.0,7.0,63,0.00,,SCT033,0.00,VWS V14.00,2013-12-11 07:13:00,
2013-12-11 02:14:00,21.6,11.0,30.06,WNW,302,3.0,7.0,63,0.00,,SCT033,0.00,VWS V14.00,2013-12-11 07:14:00,
2013-12-11 02:15:00,21.6,11.3,30.06,WNW,302,0.0,7.0,64,0.00,,SCT033,0.00,VWS V14.00,2013-12-11 07:15:00,
2013-12-11 02:16:00,21.5,11.2,30.06,WNW,302,3.0,7.0,64,0.00,,SCT033,0.00,VWS V14.00,2013-12-11 07:16:00,
2013-12-11 02:17:00,21.5,11.2,30.06,WNW,302,1.0,7.0,64,0.00,,SCT033,0.00,VWS V14.00,2013-12-11 07:17:00,
2013-12-11 02:18:00,21.6,11.3,30.07,WNW,302,2.0,7.0,64,0.00,,SCT033,0.00,VWS V14.00,2013-12-11 07:18:00,
2013-12-11 02:19:00,21.6,11.7,30.07,WNW,302,2.0,7.0,65,0.00,,SCT033,0.00,VWS V14.00,2013-12-11 07:19:00,
2013-12-11 02:20:00,21.6,12.0,30.07,WNW,302,0.0,7.0,66,0.00,,SCT033,0.00,VWS V14.00,2013-12-11 07:20:00,
2013-12-11 02:21:00,21.5,11.6,30.07,WNW,302,0.0,0.0,65,0.00,,SCT033,0.00,VWS V14.00,2013-12-11 07:21:00,
2013-12-11 02:22:00,21.3,11.4,30.07,WNW,302,0.0,0.0,65,0.00,,SCT033,0.00,VWS V14.00,2013-12-11 07:22:00,
2013-12-11 02:23:00,21.0,11.1,30.07,WNW,302,1.0,2.0,65,0.00,,SCT033,0.00,VWS V14.00,2013-12-11 07:23:00,
2013-12-11 02:24:00,20.7,11.1,30.07,WNW,302,2.0,2.0,66,0.00,,SCT033,0.00,VWS V14.00,2013-12-11 07:24:00,
2013-12-11 02:25:00,20.4,10.9,30.07,WNW,302,1.0,2.0,66,0.00,,SCT033,0.00,VWS V14.00,2013-12-11 07:25:00,
2013-12-11 02:26:00,20.0,10.8,30.07,WNW,302,1.0,2.0,67,0.00,,SCT033,0.00,VWS V14.00,2013-12-11 07:26:00,
2013-12-11 02:27:00,19.7,10.5,30.07,WNW,302,1.0,2.0,67,0.00,,SCT033,0.00,VWS V14.00,2013-12-11 07:27:00,
2013-12-11 02:28:00,19.7,10.5,30.07,WNW,302,0.0,2.0,67,0.00,,SCT033,0.00,VWS V14.00,2013-12-11 07:28:00,
2013-12-11 02:29:00,19.6,10.4,30.07,WNW,302,0.0,2.0,67,0.00,,SCT033,0.00,VWS V14.00,2013-12-11 07:29:00,
2013-12-11 02:30:00,19.4,10.6,30.07,WNW,302,0.0,2.0,68,0.00,,SCT033,0.00,VWS V14.00,2013-12-11 07:30:00,
2013-12-11 02:31:00,19.3,12.4,30.07,WNW,302,1.0,2.0,74,0.00,,SCT033,0.00,VWS V14.00,2013-12-11 07:31:00,
2013-12-11 02:32:00,19.2,12.3,30.07,WNW,302,2.0,2.0,74,0.00,,SCT033,0.00,VWS V14.00,2013-12-11 07:32:00,
2013-12-11 02:33:00,19.1,10.6,30.07,WNW,302,1.0,2.0,69,0.00,,SCT033,0.00,VWS V14.00,2013-12-11 07:33:00,
2013-12-11 02:34:00,19.0,10.5,30.08,WNW,302,1.0,2.0,69,0.00,,SCT033,0.00,VWS V14.00,2013-12-11 07:34:00,
2013-12-11 02:35:00,18.9,10.4,30.07,WNW,302,1.0,2.0,69,0.00,,SCT033,0.00,VWS V14.00,2013-12-11 07:35:00,
2013-12-11 02:36:00,18.8,10.3,30.08,WNW,302,2.0,3.0,69,0.00,,SCT033,0.00,VWS V14.00,2013-12-11 07:36:00,
2013-12-11 02:37:00,18.6,10.1,30.07,SE,126,2.0,3.0,69,0.00,,SCT033,0.00,VWS V14.00,2013-12-11 07:37:00,
2013-12-11 02:38:00,18.5,10.4,30.07,SE,132,3.0,3.0,70,0.00,,SCT033,0.00,VWS V14.00,2013-12-11 07:38:00,
2013-12-11 02:39:00,18.3,10.5,30.07,SE,132,2.0,3.0,71,0.00,,SCT033,0.00,VWS V14.00,2013-12-11 07:39:00,
2013-12-11 02:40:00,18.2,10.4,30.08,SE,132,2.0,3.0,71,0.00,,SCT033,0.00,VWS V14.00,2013-12-11 07:40:00,
2013-12-11 02:41:00,18.1,10.3,30.07,SE,132,2.0,4.0,71,0.00,,SCT033,0.00,VWS V14.00,2013-12-11 07:41:00,
2013-12-11 02:42:00,18.1,10.6,30.07,SE,132,0.0,4.0,72,0.00,,SCT033,0.00,VWS V14.00,2013-12-11 07:42:00,
2013-12-11 02:43:00,18.1,10.6,30.08,SE,132,1.0,4.0,72,0.00,,SCT033,0.00,VWS V14.00,2013-12-11 07:43:00,
2013-12-11 02:44:00,18.1,10.6,30.08,SE,132,0.0,4.0,72,0.00,,SCT033,0.00,VWS V14.00,2013-12-11 07:44:00,
2013-12-11 02:45:00,18.1,10.9,30.08,SE,132,3.0,4.0,73,0.00,,SCT033,0.00,VWS V14.00,2013-12-11 07:45:00,
2013-12-11 02:46:00,18.2,11.0,30.08,SE,132,2.0,4.0,73,0.00,,SCT033,0.00,VWS V14.00,2013-12-11 07:46:00,
2013-12-11 02:47:00,18.3,11.1,30.08,SE,132,1.0,4.0,73,0.00,,SCT033,0.00,VWS V14.00,2013-12-11 07:47:00,
2013-12-11 02:48:00,18.4,11.2,30.08,SE,132,1.0,4.0,73,0.00,,BKN060,0.00,VWS V14.00,2013-12-11 07:48:00,
2013-12-11 02:49:00,18.5,11.3,30.08,SSE,167,0.0,4.0,73,0.00,,BKN060,0.00,VWS V14.00,2013-12-11 07:49:00,
2013-12-11 02:50:00,18.7,11.8,30.08,SE,137,3.0,4.0,74,0.00,,BKN060,0.00,VWS V14.00,2013-12-11 07:50:00,
2013-12-11 02:51:00,18.8,11.9,30.08,SE,137,2.0,4.0,74,0.00,,BKN060,0.00,VWS V14.00,2013-12-11 07:51:00,
2013-12-11 02:52:00,18.8,11.6,30.07,SE,137,2.0,4.0,73,0.00,,BKN060,0.00,VWS V14.00,2013-12-11 07:52:00,
2013-12-11 02:53:00,18.9,11.7,30.07,SE,137,1.0,4.0,73,0.00,,BKN060,0.00,VWS V14.00,2013-12-11 07:53:00,
2013-12-11 02:54:00,18.9,11.7,30.08,SE,137,1.0,4.0,73,0.00,,BKN060,0.00,VWS V14.00,2013-12-11 07:54:00,
2013-12-11 02:55:00,18.9,11.7,30.07,SE,137,2.0,4.0,73,0.00,,BKN060,0.00,VWS V14.00,2013-12-11 07:55:00,
2013-12-11 02:56:00,18.9,11.7,30.08,SE,137,1.0,4.0,73,0.00,,BKN060,0.00,VWS V14.00,2013-12-11 07:56:00,
2013-12-11 02:57:00,18.9,11.7,30.08,SE,137,2.0,4.0,73,0.00,,BKN060,0.00,VWS V14.00,2013-12-11 07:57:00,
2013-12-11 02:58:00,18.9,11.7,30.08,SE,137,2.0,4.0,73,0.00,,BKN060,0.00,VWS V14.00,2013-12-11 07:58:00,
2013-12-11 02:59:00,18.9,11.7,30.08,SE,137,0.0,4.0,73,0.00,,BKN060,0.00,VWS V14.00,2013-12-11 07:59:00,
2013-12-11 03:00:00,18.9,12.0,30.08,SE,137,0.0,4.0,74,0.00,,BKN060,0.00,VWS V14.00,2013-12-11 08:00:00,
2013-12-11 03:01:00,18.9,12.0,30.08,SE,137,2.0,2.0,74,0.00,,BKN060,0.00,VWS V14.00,2013-12-11 08:01:00,
2013-12-11 03:02:00,18.9,12.0,30.08,SE,137,0.0,2.0,74,0.00,,BKN060,0.00,VWS V14.00,2013-12-11 08:02:00,
2013-12-11 03:03:00,18.9,12.0,30.08,SE,145,0.0,3.0,74,0.00,,BKN060,0.00,VWS V14.00,2013-12-11 08:03:00,
2013-12-11 03:04:00,18.9,12.0,30.08,SE,145,2.0,3.0,74,0.00,,BKN060,0.00,VWS V14.00,2013-12-11 08:04:00,
2013-12-11 03:05:00,19.0,12.1,30.09,SE,146,2.0,3.0,74,0.00,,BKN060,0.00,VWS V14.00,2013-12-11 08:05:00,
2013-12-11 03:06:00,19.0,12.4,30.09,SE,146,2.0,3.0,75,0.00,,BKN060,0.00,VWS V14.00,2013-12-11 08:06:00,
2013-12-11 03:10:00,19.3,13.0,30.09,SSW,209,2.0,2.0,76,0.00,,BKN060,0.00,VWS V14.00,2013-12-11 08:10:00,
2013-12-11 03:11:00,19.4,13.1,30.09,SSW,206,0.0,4.0,76,0.00,,BKN060,0.00,VWS V14.00,2013-12-11 08:11:00,
2013-12-11 03:12:00,19.4,13.1,30.09,SSW,201,5.0,7.0,76,0.00,,BKN060,0.00,VWS V14.00,2013-12-11 08:12:00,
2013-12-11 03:13:00,19.5,13.5,30.09,SSW,203,2.0,7.0,77,0.00,,BKN060,0.00,VWS V14.00,2013-12-11 08:13:00,
2013-12-11 03:14:00,19.6,13.6,30.09,SSW,201,2.0,7.0,77,0.00,,BKN060,0.00,VWS V14.00,2013-12-11 08:14:00,
2013-12-11 03:15:00,19.7,13.7,30.09,SSW,198,2.0,7.0,77,0.00,,BKN060,0.00,VWS V14.00,2013-12-11 08:15:00,
2013-12-11 03:16:00,19.7,14.0,30.09,SSW,200,1.0,7.0,78,0.00,,BKN060,0.00,VWS V14.00,2013-12-11 08:16:00,
2013-12-11 03:17:00,19.7,14.0,30.09,SSW,213,1.0,7.0,78,0.00,,BKN060,0.00,VWS V14.00,2013-12-11 08:17:00,
2013-12-11 03:18:00,19.7,13.7,30.09,SSW,213,1.0,7.0,77,0.00,,BKN060,0.00,VWS V14.00,2013-12-11 08:18:00,
2013-12-11 03:19:00,19.7,13.7,30.09,SSW,204,0.0,7.0,77,0.00,,BKN060,0.00,VWS V14.00,2013-12-11 08:19:00,
2013-12-11 03:20:00,19.7,13.7,30.09,SSW,203,0.0,7.0,77,0.00,,BKN060,0.00,VWS V14.00,2013-12-11 08:20:00,
2013-12-11 03:21:00,19.7,13.7,30.09,SSW,204,0.0,1.0,77,0.00,,BKN060,0.00,VWS V14.00,2013-12-11 08:21:00,
2013-12-11 03:22:00,19.7,13.7,30.09,SSW,204,1.0,1.0,77,0.00,,BKN060,0.00,VWS V14.00,2013-12-11 08:22:00,
2013-12-11 03:23:00,19.7,13.7,30.09,SSW,204,1.0,1.0,77,0.00,,BKN060,0.00,VWS V14.00,2013-12-11 08:23:00,
2013-12-11 03:24:00,19.7,13.7,30.09,SSW,200,5.0,5.0,77,0.00,,BKN060,0.00,VWS V14.00,2013-12-11 08:24:00,
2013-12-11 03:25:00,19.7,13.7,30.09,SSW,200,3.0,5.0,77,0.00,,BKN060,0.00,VWS V14.00,2013-12-11 08:25:00,
2013-12-11 03:26:00,19.7,14.0,30.09,SSW,200,0.0,5.0,78,0.00,,BKN060,0.00,VWS V14.00,2013-12-11 08:26:00,
2013-12-11 03:27:00,19.7,14.0,30.09,SW,222,1.0,5.0,78,0.00,,BKN060,0.00,VWS V14.00,2013-12-11 08:27:00,
2013-12-11 03:28:00,19.7,14.0,30.09,SSW,211,2.0,5.0,78,0.00,,BKN060,0.00,VWS V14.00,2013-12-11 08:28:00,
2013-12-11 03:29:00,19.7,14.0,30.09,SSW,209,1.0,5.0,78,0.00,,BKN060,0.00,VWS V14.00,2013-12-11 08:29:00,
2013-12-11 03:30:00,19.7,14.0,30.09,SSW,201,5.0,5.0,78,0.00,,BKN060,0.00,VWS V14.00,2013-12-11 08:30:00,
2013-12-11 03:31:00,19.7,14.0,30.09,South,188,4.0,6.0,78,0.00,,BKN060,0.00,VWS V14.00,2013-12-11 08:31:00,
2013-12-11 03:32:00,19.7,14.0,30.09,South,180,2.0,6.0,78,0.00,,BKN060,0.00,VWS V14.00,2013-12-11 08:32:00,
2013-12-11 03:33:00,19.7,14.3,30.09,SSW,195,2.0,6.0,79,0.00,,BKN060,0.00,VWS V14.00,2013-12-11 08:33:00,
2013-12-11 03:34:00,19.8,14.4,30.09,South,188,4.0,6.0,79,0.00,,BKN060,0.00,VWS V14.00,2013-12-11 08:34:00,
2013-12-11 03:35:00,19.8,14.4,30.09,South,182,3.0,6.0,79,0.00,,BKN060,0.00,VWS V14.00,2013-12-11 08:35:00,
2013-12-11 03:36:00,19.8,14.4,30.09,South,189,5.0,6.0,79,0.00,,BKN060,0.00,VWS V14.00,2013-12-11 08:36:00,
2013-12-11 03:37:00,19.9,14.4,30.09,SSW,195,5.0,7.0,79,0.00,,BKN060,0.00,VWS V14.00,2013-12-11 08:37:00,
2013-12-11 03:38:00,19.9,14.4,30.09,SSW,192,1.0,7.0,79,0.00,,BKN060,0.00,VWS V14.00,2013-12-11 08:38:00,
2013-12-11 03:39:00,19.9,14.4,30.09,South,182,4.0,7.0,79,0.00,,BKN060,0.00,VWS V14.00,2013-12-11 08:39:00,
2013-12-11 03:40:00,20.0,14.6,30.09,South,188,6.0,7.0,79,0.00,,BKN060,0.00,VWS V14.00,2013-12-11 08:40:00,
2013-12-11 03:41:00,20.0,14.8,30.09,South,184,1.0,6.0,80,0.00,,BKN060,0.00,VWS V14.00,2013-12-11 08:41:00,
2013-12-11 03:42:00,20.0,14.6,30.09,South,184,0.0,6.0,79,0.00,,BKN060,0.00,VWS V14.00,2013-12-11 08:42:00,
2013-12-11 03:43:00,20.0,14.6,30.09,SSW,192,2.0,6.0,79,0.00,,BKN060,0.00,VWS V14.00,2013-12-11 08:43:00,
2013-12-11 03:44:00,20.0,14.6,30.09,South,184,1.0,6.0,79,0.00,,BKN060,0.00,VWS V14.00,2013-12-11 08:44:00,
2013-12-11 03:45:00,20.0,14.6,30.09,South,185,2.0,6.0,79,0.00,,BKN060,0.00,VWS V14.00,2013-12-11 08:45:00,
2013-12-11 03:46:00,20.0,14.6,30.09,South,172,1.0,6.0,79,0.00,,BKN060,0.00,VWS V14.00,2013-12-11 08:46:00,
2013-12-11 03:47:00,20.0,14.6,30.09,South,173,1.0,6.0,79,0.00,,BKN060,0.00,VWS V14.00,2013-12-11 08:47:00,
2013-12-11 03:48:00,20.0,14.6,30.09,South,173,0.0,6.0,79,0.00,,OVC040,0.00,VWS V14.00,2013-12-11 08:48:00,
2013-12-11 03:49:00,20.0,14.6,30.09,South,172,0.0,6.0,79,0.00,,OVC040,0.00,VWS V14.00,2013-12-11 08:49:00,
2013-12-11 03:50:00,20.0,14.6,30.09,South,173,2.0,6.0,79,0.00,,OVC040,0.00,VWS V14.00,2013-12-11 08:50:00,
2013-12-11 03:51:00,19.9,14.4,30.09,South,172,1.0,1.0,79,0.00,,OVC040,0.00,VWS V14.00,2013-12-11 08:51:00,
2013-12-11 03:52:00,19.9,14.4,30.09,SSW,195,1.0,5.0,79,0.00,,OVC040,0.00,VWS V14.00,2013-12-11 08:52:00,
2013-12-11 03:53:00,20.0,14.6,30.09,SSW,195,1.0,5.0,79,0.00,,OVC040,0.00,VWS V14.00,2013-12-11 08:53:00,
2013-12-11 03:54:00,20.0,14.6,30.09,SE,142,1.0,5.0,79,0.00,,OVC040,0.00,VWS V14.00,2013-12-11 08:54:00,
2013-12-11 03:55:00,20.0,14.6,30.09,SE,142,1.0,5.0,79,0.00,,OVC040,0.00,VWS V14.00,2013-12-11 08:55:00,
2013-12-11 03:56:00,19.9,14.4,30.09,SSE,157,3.0,5.0,79,0.00,,OVC040,0.00,VWS V14.00,2013-12-11 08:56:00,
2013-12-11 03:57:00,19.9,14.4,30.09,SSW,194,1.0,5.0,79,0.00,,OVC040,0.00,VWS V14.00,2013-12-11 08:57:00,
2013-12-11 03:58:00,19.9,14.4,30.09,SSW,194,3.0,5.0,79,0.00,,OVC040,0.00,VWS V14.00,2013-12-11 08:58:00,
2013-12-11 03:59:00,20.0,14.6,30.09,SSE,162,0.0,5.0,79,0.00,,OVC040,0.00,VWS V14.00,2013-12-11 08:59:00,
2013-12-11 04:00:00,20.0,14.8,30.09,South,180,3.0,5.0,80,0.00,,OVC040,0.00,VWS V14.00,2013-12-11 09:00:00,
2013-12-11 04:01:00,20.1,14.9,30.09,South,180,1.0,3.0,80,0.00,,OVC040,0.00,VWS V14.00,2013-12-11 09:01:00,
2013-12-11 04:02:00,20.1,14.9,30.09,South,181,0.0,3.0,80,0.00,,OVC040,0.00,VWS V14.00,2013-12-11 09:02:00,
2013-12-11 04:03:00,20.2,15.0,30.09,South,180,2.0,4.0,80,0.00,,OVC040,0.00,VWS V14.00,2013-12-11 09:03:00,
2013-12-11 04:04:00,20.2,15.0,30.08,South,182,1.0,4.0,80,0.00,,OVC040,0.00,VWS V14.00,2013-12-11 09:04:00,
2013-12-11 04:05:00,20.2,15.0,30.08,South,182,0.0,4.0,80,0.00,,OVC040,0.00,VWS V14.00,2013-12-11 09:05:00,
2013-12-11 04:06:00,20.2,15.0,30.08,SSE,164,1.0,4.0,80,0.00,,OVC040,0.00,VWS V14.00,2013-12-11 09:06:00,
2013-12-11 04:07:00,20.1,14.6,30.08,SSE,164,0.0,4.0,79,0.00,,OVC040,0.00,VWS V14.00,2013-12-11 09:07:00,
2013-12-11 04:08:00,20.1,14.6,30.08,SSE,164,0.0,4.0,79,0.00,,OVC040,0.00,VWS V14.00,2013-12-11 09:08:00,
2013-12-11 04:09:00,20.1,14.9,30.08,South,186,1.0,4.0,80,0.00,,OVC040,0.00,VWS V14.00,2013-12-11 09:09:00,
2013-12-11 04:10:00,20.1,14.9,30.08,South,186,0.0,4.0,80,0.00,,OVC040,0.00,VWS V14.00,2013-12-11 09:10:00,
2013-12-11 04:11:00,20.1,14.9,30.08,South,186,0.0,2.0,80,0.00,,OVC040,0.00,VWS V14.00,2013-12-11 09:11:00,
2013-12-11 04:12:00,20.1,14.9,30.08,South,186,2.0,3.0,80,0.00,,OVC040,0.00,VWS V14.00,2013-12-11 09:12:00,
2013-12-11 04:13:00,20.2,15.0,30.08,South,186,2.0,3.0,80,0.00,,OVC040,0.00,VWS V14.00,2013-12-11 09:13:00,
2013-12-11 04:14:00,20.2,15.0,30.08,South,186,0.0,3.0,80,0.00,,OVC040,0.00,VWS V14.00,2013-12-11 09:14:00,
2013-12-11 04:15:00,20.3,15.1,30.09,SSE,165,1.0,3.0,80,0.00,,OVC040,0.00,VWS V14.00,2013-12-11 09:15:00,
2013-12-11 04:16:00,20.3,15.1,30.09,SSW,197,1.0,4.0,80,0.00,,OVC040,0.00,VWS V14.00,2013-12-11 09:16:00,
2013-12-11 04:17:00,20.3,15.1,30.09,SSW,196,3.0,4.0,80,0.00,,OVC040,0.00,VWS V14.00,2013-12-11 09:17:00,
2013-12-11 04:18:00,20.4,15.2,30.09,SSW,198,0.0,4.0,80,0.00,,OVC040,0.00,VWS V14.00,2013-12-11 09:18:00,
2013-12-11 04:19:00,20.4,15.2,30.09,SSW,201,6.0,7.0,80,0.00,,OVC040,0.00,VWS V14.00,2013-12-11 09:19:00,
2013-12-11 04:20:00,20.6,15.7,30.09,SSW,194,5.0,7.0,81,0.00,,OVC040,0.00,VWS V14.00,2013-12-11 09:20:00,
2013-12-11 04:21:00,20.7,15.8,30.09,SSW,200,1.0,6.0,81,0.00,,OVC040,0.00,VWS V14.00,2013-12-11 09:21:00,
2013-12-11 04:22:00,20.8,15.9,30.09,South,184,6.0,6.0,81,0.00,,OVC040,0.00,VWS V14.00,2013-12-11 09:22:00,
2013-12-11 04:23:00,20.8,15.9,30.09,SSW,193,3.0,9.0,81,0.00,,OVC040,0.00,VWS V14.00,2013-12-11 09:23:00,
2013-12-11 04:24:00,20.8,15.9,30.09,SSW,199,6.0,9.0,81,0.00,,OVC040,0.00,VWS V14.00,2013-12-11 09:24:00,
2013-12-11 04:25:00,20.9,16.0,30.09,SSE,161,3.0,9.0,81,0.00,,OVC040,0.00,VWS V14.00,2013-12-11 09:25:00,
2013-12-11 04:26:00,21.0,16.1,30.09,South,188,4.0,9.0,81,0.00,,OVC040,0.00,VWS V14.00,2013-12-11 09:26:00,
2013-12-11 04:27:00,21.0,15.8,30.09,SSW,194,9.0,10.0,80,0.00,,OVC040,0.00,VWS V14.00,2013-12-11 09:27:00,
2013-12-11 04:28:00,21.0,15.8,30.09,SSW,199,5.0,10.0,80,0.00,,OVC040,0.00,VWS V14.00,2013-12-11 09:28:00,
2013-12-11 04:29:00,21.1,15.9,30.09,South,179,3.0,10.0,80,0.00,,OVC040,0.00,VWS V14.00,2013-12-11 09:29:00,
2013-12-11 04:30:00,21.1,15.9,30.09,South,179,5.0,10.0,80,0.00,,OVC040,0.00,VWS V14.00,2013-12-11 09:30:00,
2013-12-11 04:31:00,21.0,15.8,30.09,South,180,6.0,6.0,80,0.00,,OVC040,0.00,VWS V14.00,2013-12-11 09:31:00,
2013-12-11 04:32:00,20.9,15.7,30.09,SSW,194,7.0,11.0,80,0.00,,OVC040,0.00,VWS V14.00,2013-12-11 09:32:00,
2013-12-11 04:33:00,20.9,15.7,30.09,SSE,155,2.0,11.0,80,0.00,,OVC040,0.00,VWS V14.00,2013-12-11 09:33:00,
2013-12-11 04:34:00,20.9,15.7,30.09,South,187,6.0,11.0,80,0.00,,OVC040,0.00,VWS V14.00,2013-12-11 09:34:00,
2013-12-11 04:35:00,20.8,15.6,30.09,SSW,197,2.0,11.0,80,0.00,,OVC040,0.00,VWS V14.00,2013-12-11 09:35:00,
2013-12-11 04:36:00,20.8,15.6,30.09,South,187,4.0,11.0,80,0.00,,OVC040,0.00,VWS V14.00,2013-12-11 09:36:00,
2013-12-11 04:37:00,20.9,15.7,30.09,SSW,192,4.0,11.0,80,0.00,,OVC040,0.00,VWS V14.00,2013-12-11 09:37:00,
2013-12-11 04:38:00,20.8,15.6,30.09,SSW,200,0.0,11.0,80,0.00,,OVC040,0.00,VWS V14.00,2013-12-11 09:38:00,
2013-12-11 04:39:00,20.9,15.7,30.09,South,175,2.0,11.0,80,0.00,,OVC040,0.00,VWS V14.00,2013-12-11 09:39:00,
2013-12-11 04:40:00,20.8,15.6,30.09,SSW,196,5.0,11.0,80,0.00,,OVC040,0.00,VWS V14.00,2013-12-11 09:40:00,
2013-12-11 04:41:00,20.8,15.6,30.09,South,187,4.0,5.0,80,0.00,,OVC040,0.00,VWS V14.00,2013-12-11 09:41:00,
2013-12-11 04:42:00,20.8,15.6,30.09,SSW,200,6.0,6.0,80,0.00,,OVC040,0.00,VWS V14.00,2013-12-11 09:42:00,
2013-12-11 04:43:00,20.8,15.9,30.09,South,182,2.0,6.0,81,0.00,,OVC040,0.00,VWS V14.00,2013-12-11 09:43:00,
2013-12-11 04:44:00,20.8,15.9,30.09,SSW,199,3.0,6.0,81,0.00,,OVC040,0.00,VWS V14.00,2013-12-11 09:44:00,
2013-12-11 04:45:00,20.8,15.9,30.09,SSW,199,1.0,6.0,81,0.00,,OVC040,0.00,VWS V14.00,2013-12-11 09:45:00,
2013-12-11 04:46:00,20.8,15.9,30.09,SSW,194,4.0,6.0,81,0.00,,OVC040,0.00,VWS V14.00,2013-12-11 09:46:00,
2013-12-11 04:47:00,20.7,15.8,30.09,SSW,193,2.0,6.0,81,0.00,,OVC040,0.00,VWS V14.00,2013-12-11 09:47:00,
2013-12-11 04:48:00,20.7,15.8,30.10,South,190,1.0,6.0,81,0.00,,OVC036,0.00,VWS V14.00,2013-12-11 09:48:00,
2013-12-11 04:49:00,20.7,15.8,30.10,South,188,6.0,6.0,81,0.00,,OVC036,0.00,VWS V14.00,2013-12-11 09:49:00,
2013-12-11 04:50:00,20.7,15.8,30.10,South,190,3.0,6.0,81,0.00,,OVC036,0.00,VWS V14.00,2013-12-11 09:50:00,
2013-12-11 04:51:00,20.6,15.7,30.10,South,188,0.0,4.0,81,0.00,,OVC036,0.00,VWS V14.00,2013-12-11 09:51:00,
2013-12-11 04:52:00,20.6,15.7,30.10,SSW,192,1.0,4.0,81,0.00,,OVC036,0.00,VWS V14.00,2013-12-11 09:52:00,
2013-12-11 04:53:00,20.6,15.7,30.10,SSE,152,0.0,4.0,81,0.00,,OVC036,0.00,VWS V14.00,2013-12-11 09:53:00,
2013-12-11 04:54:00,20.5,15.6,30.10,South,190,5.0,5.0,81,0.00,,OVC036,0.00,VWS V14.00,2013-12-11 09:54:00,
2013-12-11 04:55:00,20.5,15.6,30.10,SSW,192,0.0,5.0,81,0.00,,OVC036,0.00,VWS V14.00,2013-12-11 09:55:00,
2013-12-11 04:56:00,20.5,15.6,30.10,SSW,192,0.0,5.0,81,0.00,,OVC036,0.00,VWS V14.00,2013-12-11 09:56:00,
2013-12-11 04:57:00,20.3,15.4,30.10,South,188,0.0,5.0,81,0.00,,OVC036,0.00,VWS V14.00,2013-12-11 09:57:00,
2013-12-11 04:58:00,20.2,15.3,30.10,South,187,0.0,5.0,81,0.00,,OVC036,0.00,VWS V14.00,2013-12-11 09:58:00,
2013-12-11 04:59:00,20.2,15.3,30.10,South,178,2.0,5.0,81,0.00,,OVC036,0.00,VWS V14.00,2013-12-11 09:59:00,
2013-12-11 05:00:00,20.2,15.3,30.10,SSW,196,0.0,5.0,81,0.00,,OVC036,0.00,VWS V14.00,2013-12-11 10:00:00,
2013-12-11 05:01:00,20.2,15.3,30.10,SSW,196,2.0,2.0,81,0.00,,OVC036,0.00,VWS V14.00,2013-12-11 10:01:00,
2013-12-11 05:02:00,20.2,15.3,30.10,SSW,195,0.0,2.0,81,0.00,,OVC036,0.00,VWS V14.00,2013-12-11 10:02:00,
2013-12-11 05:03:00,20.2,15.3,30.10,SSW,200,3.0,6.0,81,0.00,,OVC036,0.00,VWS V14.00,2013-12-11 10:03:00,
2013-12-11 05:04:00,20.3,15.4,30.10,SSW,196,6.0,6.0,81,0.00,,OVC036,0.00,VWS V14.00,2013-12-11 10:04:00,
2013-12-11 05:05:00,20.3,15.4,30.10,SSW,203,7.0,7.0,81,0.00,,OVC036,0.00,VWS V14.00,2013-12-11 10:05:00,
2013-12-11 05:06:00,20.4,15.5,30.10,South,169,2.0,7.0,81,0.00,,OVC036,0.00,VWS V14.00,2013-12-11 10:06:00,
2013-12-11 05:07:00,20.4,15.5,30.10,SSW,196,4.0,7.0,81,0.00,,OVC036,0.00,VWS V14.00,2013-12-11 10:07:00,
2013-12-11 05:08:00,20.4,15.5,30.10,SSE,161,1.0,7.0,81,0.00,,OVC036,0.00,VWS V14.00,2013-12-11 10:08:00,
2013-12-11 05:09:00,20.4,15.2,30.10,SSE,162,0.0,7.0,80,0.00,,OVC036,0.00,VWS V14.00,2013-12-11 10:09:00,
2013-12-11 05:10:00,20.4,15.2,30.10,SSW,192,4.0,7.0,80,0.00,,OVC036,0.00,VWS V14.00,2013-12-11 10:10:00,
2013-12-11 05:11:00,20.3,15.1,30.10,SSW,192,5.0,5.0,80,0.00,,OVC036,0.00,VWS V14.00,2013-12-11 10:11:00,
2013-12-11 05:12:00,20.3,15.1,30.10,South,173,0.0,5.0,80,0.00,,OVC036,0.00,VWS V14.00,2013-12-11 10:12:00,
2013-12-11 05:13:00,20.3,15.1,30.10,South,173,2.0,5.0,80,0.00,,OVC036,0.00,VWS V14.00,2013-12-11 10:13:00,
2013-12-11 05:14:00,20.3,15.1,30.10,South,184,4.0,6.0,80,0.00,,OVC036,0.00,VWS V14.00,2013-12-11 10:14:00,
2013-12-11 05:15:00,20.3,15.1,30.10,South,173,1.0,6.0,80,0.00,,OVC036,0.00,VWS V14.00,2013-12-11 10:15:00,
2013-12-11 05:16:00,20.3,15.1,30.10,South,175,1.0,6.0,80,0.00,,OVC036,0.00,VWS V14.00,2013-12-11 10:16:00,
2013-12-11 05:17:00,20.4,15.2,30.10,SSW,196,4.0,6.0,80,0.00,,OVC036,0.00,VWS V14.00,2013-12-11 10:17:00,
2013-12-11 05:18:00,20.4,15.2,30.10,South,188,2.0,6.0,80,0.00,,OVC036,0.00,VWS V14.00,2013-12-11 10:18:00,
2013-12-11 05:19:00,20.4,14.9,30.10,South,184,1.0,6.0,79,0.00,,OVC036,0.00,VWS V14.00,2013-12-11 10:19:00,
2013-12-11 05:20:00,20.5,15.0,30.10,South,184,1.0,6.0,79,0.00,,OVC036,0.00,VWS V14.00,2013-12-11 10:20:00,
2013-12-11 05:21:00,20.6,15.1,30.10,South,184,1.0,2.0,79,0.00,,OVC036,0.00,VWS V14.00,2013-12-11 10:21:00,
2013-12-11 05:22:00,20.6,15.1,30.11,South,176,0.0,3.0,79,0.00,,OVC036,0.00,VWS V14.00,2013-12-11 10:22:00,
2013-12-11 05:23:00,20.6,15.1,30.11,South,176,2.0,3.0,79,0.00,,OVC036,0.00,VWS V14.00,2013-12-11 10:23:00,
2013-12-11 05:24:00,20.6,15.1,30.11,South,190,4.0,4.0,79,0.00,,OVC036,0.00,VWS V14.00,2013-12-11 10:24:00,
2013-12-11 05:25:00,20.6,15.1,30.11,South,182,4.0,8.0,79,0.00,,OVC036,0.00,VWS V14.00,2013-12-11 10:25:00,
2013-12-11 05:26:00,20.7,15.2,30.11,South,190,7.0,8.0,79,0.00,,OVC036,0.00,VWS V14.00,2013-12-11 10:26:00,
2013-12-11 05:27:00,20.8,15.3,30.12,SSW,198,5.0,8.0,79,0.00,,OVC036,0.00,VWS V14.00,2013-12-11 10:27:00,
2013-12-11 05:28:00,20.8,15.3,30.11,South,191,1.0,8.0,79,0.00,,OVC036,0.00,VWS V14.00,2013-12-11 10:28:00,
2013-12-11 05:29:00,20.8,15.0,30.11,South,191,3.0,8.0,78,0.00,,OVC036,0.00,VWS V14.00,2013-12-11 10:29:00,
2013-12-11 05:30:00,20.8,15.0,30.11,SSW,194,4.0,8.0,78,0.00,,OVC036,0.00,VWS V14.00,2013-12-11 10:30:00,
2013-12-11 05:31:00,20.8,15.0,30.12,SSE,161,3.0,7.0,78,0.00,,OVC036,0.00,VWS V14.00,2013-12-11 10:31:00,
2013-12-11 05:32:00,20.8,15.0,30.12,SSW,196,5.0,7.0,78,0.00,,OVC036,0.00,VWS V14.00,2013-12-11 10:32:00,
2013-12-11 05:33:00,20.8,15.0,30.11,South,180,5.0,7.0,78,0.00,,OVC036,0.00,VWS V14.00,2013-12-11 10:33:00,
2013-12-11 05:34:00,20.8,14.7,30.12,South,186,2.0,7.0,77,0.00,,OVC036,0.00,VWS V14.00,2013-12-11 10:34:00,
2013-12-11 05:35:00,20.8,14.7,30.12,SSW,197,0.0,7.0,77,0.00,,OVC036,0.00,VWS V14.00,2013-12-11 10:35:00,
2013-12-11 05:36:00,20.8,14.7,30.12,South,178,0.0,7.0,77,0.00,,OVC036,0.00,VWS V14.00,2013-12-11 10:36:00,
2013-12-11 05:37:00,20.7,14.4,30.12,SSW,207,4.0,7.0,76,0.00,,OVC036,0.00,VWS V14.00,2013-12-11 10:37:00,
2013-12-11 05:38:00,20.7,14.4,30.12,SSW,193,6.0,7.0,76,0.00,,OVC036,0.00,VWS V14.00,2013-12-11 10:38:00,
2013-12-11 05:39:00,20.7,14.4,30.12,SSE,150,2.0,7.0,76,0.00,,OVC036,0.00,VWS V14.00,2013-12-11 10:39:00,
2013-12-11 05:40:00,20.6,14.2,30.12,SSW,198,4.0,7.0,76,0.00,,OVC036,0.00,VWS V14.00,2013-12-11 10:40:00,
2013-12-11 05:41:00,20.6,14.2,30.12,South,190,0.0,4.0,76,0.00,,OVC036,0.00,VWS V14.00,2013-12-11 10:41:00,
2013-12-11 05:42:00,20.6,14.2,30.12,South,190,2.0,4.0,76,0.00,,OVC036,0.00,VWS V14.00,2013-12-11 10:42:00,
2013-12-11 05:43:00,20.6,14.2,30.12,South,170,1.0,4.0,76,0.00,,OVC036,0.00,VWS V14.00,2013-12-11 10:43:00,
2013-12-11 05:44:00,20.6,14.2,30.12,South,187,4.0,4.0,76,0.00,,OVC036,0.00,VWS V14.00,2013-12-11 10:44:00,
2013-12-11 05:45:00,20.6,14.2,30.12,South,170,1.0,4.0,76,0.00,,OVC036,0.00,VWS V14.00,2013-12-11 10:45:00,
2013-12-11 05:46:00,20.6,14.2,30.12,South,171,2.0,5.0,76,0.00,,OVC036,0.00,VWS V14.00,2013-12-11 10:46:00,
2013-12-11 05:47:00,20.6,13.9,30.12,South,178,1.0,5.0,75,0.00,,OVC036,0.00,VWS V14.00,2013-12-11 10:47:00,
2013-12-11 05:48:00,20.6,13.9,30.12,South,178,1.0,5.0,75,0.00,,FEW030,0.00,VWS V14.00,2013-12-11 10:48:00,
2013-12-11 05:49:00,20.5,13.9,30.12,South,178,0.0,5.0,75,0.00,,FEW030,0.00,VWS V14.00,2013-12-11 10:49:00,
2013-12-11 05:50:00,20.5,13.9,30.12,South,178,0.0,5.0,75,0.00,,FEW030,0.00,VWS V14.00,2013-12-11 10:50:00,
2013-12-11 05:51:00,20.4,13.8,30.12,South,178,3.0,3.0,75,0.00,,FEW030,0.00,VWS V14.00,2013-12-11 10:51:00,
2013-12-11 05:52:00,20.4,13.8,30.12,South,188,0.0,6.0,75,0.00,,FEW030,0.00,VWS V14.00,2013-12-11 10:52:00,
2013-12-11 05:53:00,20.5,13.9,30.12,South,187,2.0,6.0,75,0.00,,FEW030,0.00,VWS V14.00,2013-12-11 10:53:00,
2013-12-11 05:54:00,20.6,13.9,30.12,South,188,4.0,6.0,75,0.00,,FEW030,0.00,VWS V14.00,2013-12-11 10:54:00,
2013-12-11 05:55:00,20.6,13.9,30.12,South,188,2.0,6.0,75,0.00,,FEW030,0.00,VWS V14.00,2013-12-11 10:55:00,
2013-12-11 05:56:00,20.6,13.9,30.12,South,188,2.0,6.0,75,0.00,,FEW030,0.00,VWS V14.00,2013-12-11 10:56:00,
2013-12-11 05:57:00,20.6,13.6,30.12,South,188,2.0,6.0,74,0.00,,FEW030,0.00,VWS V14.00,2013-12-11 10:57:00,
2013-12-11 05:58:00,20.6,13.9,30.12,South,187,2.0,6.0,75,0.00,,FEW030,0.00,VWS V14.00,2013-12-11 10:58:00,
2013-12-11 05:59:00,20.6,13.6,30.13,South,175,3.0,9.0,74,0.00,,FEW030,0.00,VWS V14.00,2013-12-11 10:59:00,
2013-12-11 06:00:00,20.6,13.3,30.13,SSE,167,2.0,9.0,73,0.00,,FEW030,0.00,VWS V14.00,2013-12-11 11:00:00,
2013-12-11 06:01:00,20.7,13.4,30.13,SSE,161,3.0,4.0,73,0.00,,FEW030,0.00,VWS V14.00,2013-12-11 11:01:00,
2013-12-11 06:02:00,20.7,13.4,30.13,South,191,4.0,6.0,73,0.00,,FEW030,0.00,VWS V14.00,2013-12-11 11:02:00,
2013-12-11 06:03:00,20.7,13.4,30.13,South,180,4.0,6.0,73,0.00,,FEW030,0.00,VWS V14.00,2013-12-11 11:03:00,
2013-12-11 06:04:00,20.7,13.4,30.13,SSW,193,6.0,6.0,73,0.00,,FEW030,0.00,VWS V14.00,2013-12-11 11:04:00,
2013-12-11 06:05:00,20.7,13.4,30.13,South,191,4.0,6.0,73,0.00,,FEW030,0.00,VWS V14.00,2013-12-11 11:05:00,
2013-12-11 06:06:00,20.7,13.4,30.13,South,188,4.0,6.0,73,0.00,,FEW030,0.00,VWS V14.00,2013-12-11 11:06:00,
2013-12-11 06:07:00,20.7,13.4,30.13,South,187,3.0,6.0,73,0.00,,FEW030,0.00,VWS V14.00,2013-12-11 11:07:00,
2013-12-11 06:08:00,20.8,13.5,30.14,SSW,195,5.0,6.0,73,0.00,,FEW030,0.00,VWS V14.00,2013-12-11 11:08:00,
2013-12-11 06:09:00,20.9,14.2,30.14,South,190,7.0,10.0,75,0.00,,FEW030,0.00,VWS V14.00,2013-12-11 11:09:00,
2013-12-11 06:10:00,21.2,14.5,30.14,SW,227,5.0,10.0,75,0.00,,FEW030,0.00,VWS V14.00,2013-12-11 11:10:00,
2013-12-11 06:11:00,21.2,14.2,30.14,SW,236,6.0,8.0,74,0.00,,FEW030,0.00,VWS V14.00,2013-12-11 11:11:00,
2013-12-11 06:12:00,21.5,14.8,30.14,SSW,202,7.0,8.0,75,0.00,,FEW030,0.00,VWS V14.00,2013-12-11 11:12:00,
2013-12-11 06:13:00,21.6,14.9,30.14,WSW,244,9.0,10.0,75,0.00,,FEW030,0.00,VWS V14.00,2013-12-11 11:13:00,
2013-12-11 06:14:00,21.8,14.8,30.14,WSW,243,7.0,11.0,74,0.00,,FEW030,0.00,VWS V14.00,2013-12-11 11:14:00,
2013-12-11 06:15:00,22.0,15.0,30.14,SSW,200,8.0,11.0,74,0.00,,FEW030,0.00,VWS V14.00,2013-12-11 11:15:00,
2013-12-11 06:16:00,22.0,14.4,30.14,South,186,8.0,12.0,72,0.00,,FEW030,0.00,VWS V14.00,2013-12-11 11:16:00,
2013-12-11 06:17:00,22.1,14.5,30.14,SW,214,13.0,14.0,72,0.00,,FEW030,0.00,VWS V14.00,2013-12-11 11:17:00,
2013-12-11 06:18:00,22.1,14.1,30.14,West,261,11.0,14.0,71,0.00,,FEW030,0.00,VWS V14.00,2013-12-11 11:18:00,
2013-12-11 06:19:00,22.3,14.7,30.14,SW,219,12.0,14.0,72,0.00,,FEW030,0.00,VWS V14.00,2013-12-11 11:19:00,
2013-12-11 06:20:00,22.4,14.8,30.14,SSW,194,9.0,14.0,72,0.00,,FEW030,0.00,VWS V14.00,2013-12-11 11:20:00,
2013-12-11 06:21:00,22.4,14.8,30.14,SW,229,5.0,9.0,72,0.00,,FEW030,0.00,VWS V14.00,2013-12-11 11:21:00,
2013-12-11 06:22:00,22.4,14.8,30.14,SSW,192,5.0,9.0,72,0.00,,FEW030,0.00,VWS V14.00,2013-12-11 11:22:00,
2013-12-11 06:23:00,22.4,14.8,30.14,SW,223,5.0,14.0,72,0.00,,FEW030,0.00,VWS V14.00,2013-12-11 11:23:00,
2013-12-11 06:24:00,22.6,15.6,30.14,SW,226,6.0,16.0,74,0.00,,FEW030,0.00,VWS V14.00,2013-12-11 11:24:00,
2013-12-11 06:25:00,22.8,15.5,30.14,SSW,197,6.0,16.0,73,0.00,,FEW030,0.00,VWS V14.00,2013-12-11 11:25:00,
2013-12-11 06:26:00,22.7,14.7,30.14,SSW,200,5.0,16.0,71,0.00,,FEW030,0.00,VWS V14.00,2013-12-11 11:26:00,
2013-12-11 06:27:00,22.6,14.6,30.14,SSW,199,2.0,16.0,71,0.00,,FEW030,0.00,VWS V14.00,2013-12-11 11:27:00,
2013-12-11 06:28:00,22.5,14.5,30.14,SSW,197,5.0,16.0,71,0.00,,FEW030,0.00,VWS V14.00,2013-12-11 11:28:00,
2013-12-11 06:29:00,22.4,14.1,30.14,South,179,5.0,16.0,70,0.00,,FEW030,0.00,VWS V14.00,2013-12-11 11:29:00,
2013-12-11 06:30:00,22.2,13.6,30.14,South,185,8.0,16.0,69,0.00,,FEW030,0.00,VWS V14.00,2013-12-11 11:30:00,
2013-12-11 06:31:00,22.0,13.1,30.14,South,188,2.0,7.0,68,0.00,,FEW030,0.00,VWS V14.00,2013-12-11 11:31:00,
2013-12-11 06:32:00,22.0,13.4,30.14,South,185,11.0,11.0,69,0.00,,FEW030,0.00,VWS V14.00,2013-12-11 11:32:00,
2013-12-11 06:33:00,22.0,13.7,30.14,SSW,204,13.0,13.0,70,0.00,,FEW030,0.00,VWS V14.00,2013-12-11 11:33:00,
2013-12-11 06:34:00,22.1,13.8,30.14,SSW,202,7.0,14.0,70,0.00,,FEW030,0.00,VWS V14.00,2013-12-11 11:34:00,
2013-12-11 06:35:00,22.2,13.9,30.14,SSW,202,13.0,14.0,70,0.00,,FEW030,0.00,VWS V14.00,2013-12-11 11:35:00,
2013-12-11 06:36:00,22.3,14.0,30.14,South,187,7.0,14.0,70,0.00,,FEW030,0.00,VWS V14.00,2013-12-11 11:36:00,
2013-12-11 06:37:00,22.3,13.7,30.14,South,179,6.0,15.0,69,0.00,,FEW030,0.00,VWS V14.00,2013-12-11 11:37:00,
2013-12-11 06:38:00,22.2,13.3,30.14,South,188,11.0,15.0,68,0.00,,FEW030,0.00,VWS V14.00,2013-12-11 11:38:00,
2013-12-11 06:39:00,22.1,12.8,30.14,SSW,195,4.0,15.0,67,0.00,,FEW030,0.00,VWS V14.00,2013-12-11 11:39:00,
2013-12-11 06:40:00,22.0,13.1,30.14,SSE,165,2.0,15.0,68,0.00,,FEW030,0.00,VWS V14.00,2013-12-11 11:40:00,
2013-12-11 06:41:00,21.9,13.0,30.15,SSE,155,2.0,4.0,68,0.00,,FEW030,0.00,VWS V14.00,2013-12-11 11:41:00,
2013-12-11 06:42:00,21.8,12.5,30.15,SE,140,3.0,4.0,67,0.00,,FEW030,0.00,VWS V14.00,2013-12-11 11:42:00,
2013-12-11 06:43:00,21.5,12.3,30.15,SE,137,3.0,4.0,67,0.00,,FEW030,0.00,VWS V14.00,2013-12-11 11:43:00,
2013-12-11 06:44:00,21.3,12.1,30.15,SE,137,2.0,4.0,67,0.00,,FEW030,0.00,VWS V14.00,2013-12-11 11:44:00,
2013-12-11 06:45:00,21.0,11.8,30.15,SE,137,2.0,5.0,67,0.00,,FEW030,0.00,VWS V14.00,2013-12-11 11:45:00,
2013-12-11 06:46:00,20.8,11.9,30.15,SE,131,3.0,5.0,68,0.00,,FEW030,0.00,VWS V14.00,2013-12-11 11:46:00,
2013-12-11 06:47:00,20.6,11.7,30.15,SE,142,3.0,9.0,68,0.00,,FEW030,0.00,VWS V14.00,2013-12-11 11:47:00,
2013-12-11 06:48:00,20.5,11.6,30.15,SE,134,6.0,9.0,68,0.00,,SCT060,0.00,VWS V14.00,2013-12-11 11:48:00,
2013-12-11 06:49:00,20.4,11.5,30.15,SE,135,3.0,9.0,68,0.00,,SCT060,0.00,VWS V14.00,2013-12-11 11:49:00,
2013-12-11 06:50:00,20.3,11.4,30.15,SE,138,2.0,9.0,68,0.00,,SCT060,0.00,VWS V14.00,2013-12-11 11:50:00,
2013-12-11 06:51:00,20.2,11.4,30.15,SE,137,2.0,2.0,68,0.00,,SCT060,0.00,VWS V14.00,2013-12-11 11:51:00,
2013-12-11 06:52:00,20.1,11.6,30.15,SE,133,5.0,6.0,69,0.00,,SCT060,0.00,VWS V14.00,2013-12-11 11:52:00,
2013-12-11 06:53:00,20.0,11.5,30.15,SE,133,2.0,6.0,69,0.00,,SCT060,0.00,VWS V14.00,2013-12-11 11:53:00,
2013-12-11 06:54:00,20.0,11.5,30.15,SE,129,7.0,8.0,69,0.00,,SCT060,0.00,VWS V14.00,2013-12-11 11:54:00,
2013-12-11 06:55:00,19.8,11.3,30.15,SE,130,4.0,8.0,69,0.00,,SCT060,0.00,VWS V14.00,2013-12-11 11:55:00,
2013-12-11 06:56:00,19.8,11.3,30.15,SE,131,2.0,8.0,69,0.00,,SCT060,0.00,VWS V14.00,2013-12-11 11:56:00,
2013-12-11 06:57:00,19.8,11.3,30.16,SE,132,2.0,8.0,69,0.00,,SCT060,0.00,VWS V14.00,2013-12-11 11:57:00,
2013-12-11 06:58:00,19.7,11.2,30.15,SE,132,2.0,8.0,69,0.00,,SCT060,0.00,VWS V14.00,2013-12-11 11:58:00,
2013-12-11 06:59:00,19.7,11.2,30.15,SE,131,3.0,8.0,69,0.00,,SCT060,0.00,VWS V14.00,2013-12-11 11:59:00,
2013-12-11 07:00:00,19.7,11.2,30.15,SE,132,1.0,8.0,69,0.00,,SCT060,0.00,VWS V14.00,2013-12-11 12:00:00,
2013-12-11 07:01:00,19.7,11.2,30.15,SE,130,6.0,6.0,69,0.00,,SCT060,0.00,VWS V14.00,2013-12-11 12:01:00,
2013-12-11 07:02:00,19.6,11.1,30.15,SE,130,5.0,6.0,69,0.00,,SCT060,0.00,VWS V14.00,2013-12-11 12:02:00,
2013-12-11 07:03:00,19.6,11.1,30.15,SE,130,4.0,6.0,69,0.00,,SCT060,0.00,VWS V14.00,2013-12-11 12:03:00,
2013-12-11 07:04:00,19.6,11.1,30.15,SE,132,2.0,6.0,69,0.00,,SCT060,0.00,VWS V14.00,2013-12-11 12:04:00,
2013-12-11 07:05:00,19.5,11.0,30.15,SE,132,2.0,6.0,69,0.00,,SCT060,0.00,VWS V14.00,2013-12-11 12:05:00,
2013-12-11 07:06:00,19.5,11.0,30.15,SE,132,2.0,6.0,69,0.00,,SCT060,0.00,VWS V14.00,2013-12-11 12:06:00,
2013-12-11 07:07:00,19.4,11.2,30.15,SE,132,4.0,6.0,70,0.00,,SCT060,0.00,VWS V14.00,2013-12-11 12:07:00,
2013-12-11 07:08:00,19.4,11.2,30.15,SE,130,5.0,6.0,70,0.00,,SCT060,0.00,VWS V14.00,2013-12-11 12:08:00,
2013-12-11 07:09:00,19.4,11.2,30.16,SE,130,2.0,6.0,70,0.00,,SCT060,0.00,VWS V14.00,2013-12-11 12:09:00,
2013-12-11 07:10:00,19.4,11.2,30.16,SE,130,3.0,6.0,70,0.00,,SCT060,0.00,VWS V14.00,2013-12-11 12:10:00,
2013-12-11 07:11:00,19.3,11.1,30.16,SE,131,0.0,2.0,70,0.00,,SCT060,0.00,VWS V14.00,2013-12-11 12:11:00,
2013-12-11 07:12:00,19.3,11.1,30.16,SE,131,5.0,5.0,70,0.00,,SCT060,0.00,VWS V14.00,2013-12-11 12:12:00,
2013-12-11 07:13:00,19.3,11.1,30.16,SE,133,2.0,5.0,70,0.00,,SCT060,0.00,VWS V14.00,2013-12-11 12:13:00,
2013-12-11 07:14:00,19.3,11.1,30.15,SE,138,4.0,6.0,70,0.00,,SCT060,0.00,VWS V14.00,2013-12-11 12:14:00,
2013-12-11 07:15:00,19.3,11.1,30.16,SE,139,2.0,6.0,70,0.00,,SCT060,0.00,VWS V14.00,2013-12-11 12:15:00,
2013-12-11 07:16:00,19.3,11.1,30.16,SSW,205,6.0,6.0,70,0.00,,SCT060,0.00,VWS V14.00,2013-12-11 12:16:00,
2013-12-11 07:17:00,19.4,11.2,30.16,South,175,1.0,6.0,70,0.00,,SCT060,0.00,VWS V14.00,2013-12-11 12:17:00,
2013-12-11 07:18:00,19.6,11.4,30.16,South,175,2.0,6.0,70,0.00,,SCT060,0.00,VWS V14.00,2013-12-11 12:18:00,
2013-12-11 07:19:00,19.7,11.5,30.16,SSE,157,2.0,6.0,70,0.00,,SCT060,0.00,VWS V14.00,2013-12-11 12:19:00,
2013-12-11 07:20:00,19.7,11.2,30.15,South,182,4.0,7.0,69,0.00,,SCT060,0.00,VWS V14.00,2013-12-11 12:20:00,
2013-12-11 07:21:00,19.8,11.6,30.16,SSE,147,1.0,5.0,70,0.00,,SCT060,0.00,VWS V14.00,2013-12-11 12:21:00,
2013-12-11 07:22:00,19.9,11.4,30.16,SSW,194,7.0,7.0,69,0.00,,SCT060,0.00,VWS V14.00,2013-12-11 12:22:00,
2013-12-11 07:23:00,20.0,11.8,30.16,SSE,166,3.0,7.0,70,0.00,,SCT060,0.00,VWS V14.00,2013-12-11 12:23:00,
2013-12-11 07:24:00,20.1,11.9,30.16,South,172,2.0,7.0,70,0.00,,SCT060,0.00,VWS V14.00,2013-12-11 12:24:00,
2013-12-11 07:25:00,20.2,11.7,30.16,South,184,6.0,7.0,69,0.00,,SCT060,0.00,VWS V14.00,2013-12-11 12:25:00,
2013-12-11 07:26:00,20.3,11.8,30.16,South,187,7.0,7.0,69,0.00,,SCT060,0.00,VWS V14.00,2013-12-11 12:26:00,
2013-12-11 07:27:00,20.3,11.8,30.16,South,187,7.0,7.0,69,0.00,,SCT060,0.00,VWS V14.00,2013-12-11 12:27:00,
2013-12-11 07:28:00,20.4,11.9,30.16,South,173,4.0,7.0,69,0.00,,SCT060,0.00,VWS V14.00,2013-12-11 12:28:00,
2013-12-11 07:29:00,20.5,12.0,30.16,South,190,4.0,10.0,69,0.00,,SCT060,0.00,VWS V14.00,2013-12-11 12:29:00,
2013-12-11 07:30:00,20.6,11.7,30.16,South,173,3.0,10.0,68,0.00,,SCT060,0.00,VWS V14.00,2013-12-11 12:30:00,
2013-12-11 07:31:00,20.6,11.7,30.16,South,175,2.0,5.0,68,0.00,,SCT060,0.00,VWS V14.00,2013-12-11 12:31:00,
2013-12-11 07:32:00,20.6,11.7,30.16,South,173,4.0,7.0,68,0.00,,SCT060,0.00,VWS V14.00,2013-12-11 12:32:00,
2013-12-11 07:33:00,20.7,11.8,30.16,SSE,168,3.0,9.0,68,0.00,,SCT060,0.00,VWS V14.00,2013-12-11 12:33:00,
2013-12-11 07:34:00,20.7,11.8,30.16,South,186,7.0,9.0,68,0.00,,SCT060,0.00,VWS V14.00,2013-12-11 12:34:00,
2013-12-11 07:35:00,20.8,11.9,30.16,SSE,161,1.0,9.0,68,0.00,,SCT060,0.00,VWS V14.00,2013-12-11 12:35:00,
2013-12-11 07:36:00,20.9,12.0,30.16,SSW,200,7.0,9.0,68,0.00,,SCT060,0.00,VWS V14.00,2013-12-11 12:36:00,
2013-12-11 07:37:00,20.9,12.4,30.16,South,180,7.0,12.0,69,0.00,,SCT060,0.00,VWS V14.00,2013-12-11 12:37:00,
2013-12-11 07:38:00,21.0,12.1,30.16,South,191,7.0,12.0,68,0.00,,SCT060,0.00,VWS V14.00,2013-12-11 12:38:00,
2013-12-11 07:39:00,21.1,12.2,30.16,SSW,192,6.0,12.0,68,0.00,,SCT060,0.00,VWS V14.00,2013-12-11 12:39:00,
2013-12-11 07:40:00,21.1,12.2,30.16,SSW,202,6.0,12.0,68,0.00,,SCT060,0.00,VWS V14.00,2013-12-11 12:40:00,
2013-12-11 07:41:00,21.2,12.3,30.16,SSW,198,10.0,10.0,68,0.00,,SCT060,0.00,VWS V14.00,2013-12-11 12:41:00,
2013-12-11 07:42:00,21.3,12.4,30.16,South,187,7.0,10.0,68,0.00,,SCT060,0.00,VWS V14.00,2013-12-11 12:42:00,
2013-12-11 07:43:00,21.5,12.6,30.16,SSW,194,4.0,10.0,68,0.00,,SCT060,0.00,VWS V14.00,2013-12-11 12:43:00,
2013-12-11 07:44:00,21.5,12.6,30.16,SSW,207,12.0,12.0,68,0.00,,SCT060,0.00,VWS V14.00,2013-12-11 12:44:00,
2013-12-11 07:45:00,21.7,13.1,30.16,SSW,199,14.0,14.0,69,0.00,,SCT060,0.00,VWS V14.00,2013-12-11 12:45:00,
2013-12-11 07:46:00,21.8,12.9,30.16,SSW,204,11.0,14.0,68,0.00,,SCT060,0.00,VWS V14.00,2013-12-11 12:46:00,
2013-12-11 07:47:00,21.9,13.3,30.16,South,176,3.0,14.0,69,0.00,,SCT060,0.00,VWS V14.00,2013-12-11 12:47:00,
2013-12-11 07:48:00,21.9,13.0,30.16,SSW,196,11.0,14.0,68,0.00,,CLR,0.00,VWS V14.00,2013-12-11 12:48:00,
2013-12-11 07:49:00,21.8,12.5,30.17,SSW,199,4.0,14.0,67,0.00,,CLR,0.00,VWS V14.00,2013-12-11 12:49:00,
2013-12-11 07:50:00,21.9,12.6,30.17,SSW,207,11.0,14.0,67,0.00,,CLR,0.00,VWS V14.00,2013-12-11 12:50:00,
2013-12-11 07:51:00,22.0,13.1,30.16,SSW,197,16.0,16.0,68,0.00,,CLR,0.00,VWS V14.00,2013-12-11 12:51:00,
2013-12-11 07:52:00,22.0,12.7,30.17,South,190,13.0,16.0,67,0.00,,CLR,0.00,VWS V14.00,2013-12-11 12:52:00,
2013-12-11 07:53:00,22.0,12.7,30.17,South,183,4.0,16.0,67,0.00,,CLR,0.00,VWS V14.00,2013-12-11 12:53:00,
2013-12-11 07:54:00,21.9,12.6,30.16,SSW,207,12.0,16.0,67,0.00,,CLR,0.00,VWS V14.00,2013-12-11 12:54:00,
2013-12-11 07:55:00,22.0,12.7,30.16,SSE,168,5.0,16.0,67,0.00,,CLR,0.00,VWS V14.00,2013-12-11 12:55:00,
2013-12-11 07:56:00,22.0,12.4,30.16,South,169,3.0,16.0,66,0.00,,CLR,0.00,VWS V14.00,2013-12-11 12:56:00,
2013-12-11 07:57:00,21.9,12.3,30.16,South,182,10.0,16.0,66,0.00,,CLR,0.00,VWS V14.00,2013-12-11 12:57:00,
2013-12-11 07:58:00,21.9,12.3,30.16,SSW,194,9.0,16.0,66,0.00,,CLR,0.00,VWS V14.00,2013-12-11 12:58:00,
2013-12-11 07:59:00,21.9,12.3,30.16,SSE,162,3.0,16.0,66,0.00,,CLR,0.00,VWS V14.00,2013-12-11 12:59:00,
2013-12-11 08:00:00,21.9,12.3,30.16,SSW,199,12.0,16.0,66,0.00,,CLR,0.00,VWS V14.00,2013-12-11 13:00:00,
2013-12-11 08:01:00,21.9,12.3,30.17,South,186,4.0,13.0,66,0.00,,CLR,0.00,VWS V14.00,2013-12-11 13:01:00,
2013-12-11 08:02:00,21.9,12.3,30.17,SSE,168,6.0,13.0,66,0.00,,CLR,0.00,VWS V14.00,2013-12-11 13:02:00,
2013-12-11 08:03:00,21.8,11.9,30.17,South,188,4.0,13.0,65,0.00,,CLR,0.00,VWS V14.00,2013-12-11 13:03:00,
2013-12-11 08:04:00,21.8,11.9,30.17,SSW,205,13.0,15.0,65,0.00,,CLR,0.00,VWS V14.00,2013-12-11 13:04:00,
2013-12-11 08:05:00,21.8,11.9,30.17,SSW,196,11.0,16.0,65,0.00,,CLR,0.00,VWS V14.00,2013-12-11 13:05:00,
2013-12-11 08:06:00,21.8,12.2,30.17,South,182,6.0,16.0,66,0.00,,CLR,0.00,VWS V14.00,2013-12-11 13:06:00,
2013-12-11 08:07:00,21.8,11.9,30.17,SSE,161,3.0,16.0,65,0.00,,CLR,0.00,VWS V14.00,2013-12-11 13:07:00,
2013-12-11 08:08:00,21.8,11.9,30.17,South,191,7.0,16.0,65,0.00,,CLR,0.00,VWS V14.00,2013-12-11 13:08:00,
2013-12-11 08:09:00,21.8,12.2,30.17,SSW,200,4.0,16.0,66,0.00,,CLR,0.00,VWS V14.00,2013-12-11 13:09:00,
2013-12-11 08:10:00,21.8,12.2,30.17,SSW,195,9.0,16.0,66,0.00,,CLR,0.00,VWS V14.00,2013-12-11 13:10:00,
2013-12-11 08:11:00,21.8,11.9,30.17,SSE,148,4.0,9.0,65,0.00,,CLR,0.00,VWS V14.00,2013-12-11 13:11:00,
2013-12-11 08:12:00,21.7,11.4,30.17,South,187,6.0,9.0,64,0.00,,CLR,0.00,VWS V14.00,2013-12-11 13:12:00,
2013-12-11 08:13:00,21.7,11.8,30.17,SSW,194,11.0,11.0,65,0.00,,CLR,0.00,VWS V14.00,2013-12-11 13:13:00,
2013-12-11 08:14:00,21.8,12.2,30.17,SSW,195,5.0,12.0,66,0.00,,CLR,0.00,VWS V14.00,2013-12-11 13:14:00,
2013-12-11 08:15:00,21.8,12.2,30.17,SSE,167,2.0,12.0,66,0.00,,CLR,0.00,VWS V14.00,2013-12-11 13:15:00,
2013-12-11 08:16:00,21.7,11.8,30.17,South,182,3.0,12.0,65,0.00,,CLR,0.00,VWS V14.00,2013-12-11 13:16:00,
2013-12-11 08:17:00,21.7,11.8,30.17,SSW,192,9.0,12.0,65,0.00,,CLR,0.00,VWS V14.00,2013-12-11 13:17:00,
2013-12-11 08:18:00,21.7,11.8,30.17,SSW,200,7.0,12.0,65,0.00,,CLR,0.00,VWS V14.00,2013-12-11 13:18:00,
2013-12-11 08:19:00,21.7,12.1,30.17,SSW,192,6.0,12.0,66,0.00,,CLR,0.00,VWS V14.00,2013-12-11 13:19:00,
2013-12-11 08:20:00,21.7,12.1,30.17,South,183,4.0,12.0,66,0.00,,CLR,0.00,VWS V14.00,2013-12-11 13:20:00,
2013-12-11 08:21:00,21.7,12.1,30.17,South,176,3.0,9.0,66,0.00,,CLR,0.00,VWS V14.00,2013-12-11 13:21:00,
2013-12-11 08:22:00,21.7,11.8,30.17,SSW,206,9.0,10.0,65,0.00,,CLR,0.00,VWS V14.00,2013-12-11 13:22:00,
2013-12-11 08:23:00,21.7,11.8,30.17,South,190,3.0,10.0,65,0.00,,CLR,0.00,VWS V14.00,2013-12-11 13:23:00,
2013-12-11 08:24:00,21.7,11.8,30.17,South,184,1.0,10.0,65,0.00,,CLR,0.00,VWS V14.00,2013-12-11 13:24:00,
2013-12-11 08:25:00,21.7,11.8,30.17,South,181,2.0,10.0,65,0.00,,CLR,0.00,VWS V14.00,2013-12-11 13:25:00,
2013-12-11 08:26:00,21.7,11.4,30.17,South,182,4.0,10.0,64,0.00,,CLR,0.00,VWS V14.00,2013-12-11 13:26:00,
2013-12-11 08:27:00,21.7,11.8,30.17,SSE,164,2.0,10.0,65,0.00,,CLR,0.00,VWS V14.00,2013-12-11 13:27:00,
2013-12-11 08:28:00,21.7,11.4,30.17,South,190,7.0,10.0,64,0.00,,CLR,0.00,VWS V14.00,2013-12-11 13:28:00,
2013-12-11 08:29:00,21.7,11.4,30.17,SSW,195,7.0,10.0,64,0.00,,CLR,0.00,VWS V14.00,2013-12-11 13:29:00,
2013-12-11 08:30:00,21.6,11.3,30.17,SE,145,2.0,10.0,64,0.00,,CLR,0.00,VWS V14.00,2013-12-11 13:30:00,
2013-12-11 08:31:00,21.6,11.3,30.17,ESE,117,3.0,5.0,64,0.00,,CLR,0.00,VWS V14.00,2013-12-11 13:31:00,
2013-12-11 08:32:00,21.7,11.4,30.17,South,171,2.0,5.0,64,0.00,,CLR,0.00,VWS V14.00,2013-12-11 13:32:00,
2013-12-11 08:33:00,21.7,11.8,30.17,South,171,1.0,5.0,65,0.00,,CLR,0.00,VWS V14.00,2013-12-11 13:33:00,
2013-12-11 08:34:00,21.7,11.4,30.17,SSW,205,2.0,6.0,64,0.00,,CLR,0.00,VWS V14.00,2013-12-11 13:34:00,
2013-12-11 08:35:00,21.7,11.8,30.17,SSW,199,7.0,7.0,65,0.00,,CLR,0.00,VWS V14.00,2013-12-11 13:35:00,
2013-12-11 08:36:00,21.8,12.2,30.18,South,175,3.0,7.0,66,0.00,,CLR,0.00,VWS V14.00,2013-12-11 13:36:00,
2013-12-11 08:37:00,21.8,11.9,30.18,SE,139,4.0,7.0,65,0.00,,CLR,0.00,VWS V14.00,2013-12-11 13:37:00,
2013-12-11 08:38:00,21.8,11.5,30.17,South,186,3.0,7.0,64,0.00,,CLR,0.00,VWS V14.00,2013-12-11 13:38:00,
2013-12-11 08:39:00,21.9,12.0,30.17,South,172,2.0,7.0,65,0.00,,CLR,0.00,VWS V14.00,2013-12-11 13:39:00,
2013-12-11 08:40:00,22.0,12.1,30.18,South,188,7.0,7.0,65,0.00,,CLR,0.00,VWS V14.00,2013-12-11 13:40:00,
2013-12-11 08:41:00,22.0,11.7,30.18,SSW,196,7.0,9.0,64,0.00,,CLR,0.00,VWS V14.00,2013-12-11 13:41:00,
2013-12-11 08:42:00,22.0,12.1,30.18,South,188,6.0,9.0,65,0.00,,CLR,0.00,VWS V14.00,2013-12-11 13:42:00,
2013-12-11 08:43:00,22.1,11.8,30.18,South,172,4.0,9.0,64,0.00,,CLR,0.00,VWS V14.00,2013-12-11 13:43:00,
2013-12-11 08:44:00,22.1,11.8,30.18,SSE,164,2.0,9.0,64,0.00,,CLR,0.00,VWS V14.00,2013-12-11 13:44:00,
2013-12-11 08:45:00,22.2,11.9,30.18,South,183,6.0,9.0,64,0.00,,CLR,0.00,VWS V14.00,2013-12-11 13:45:00,
2013-12-11 08:46:00,22.2,11.9,30.18,SSW,196,7.0,11.0,64,0.00,,CLR,0.00,VWS V14.00,2013-12-11 13:46:00,
2013-12-11 08:47:00,22.3,12.0,30.18,South,183,10.0,11.0,64,0.00,,CLR,0.00,VWS V14.00,2013-12-11 13:47:00,
2013-12-11 08:48:00,22.4,12.4,30.18,SSW,201,12.0,14.0,65,0.00,,CLR,0.00,VWS V14.00,2013-12-11 13:48:00,
2013-12-11 08:49:00,22.6,13.3,30.18,SSW,193,11.0,14.0,67,0.00,,CLR,0.00,VWS V14.00,2013-12-11 13:49:00,
2013-12-11 08:50:00,22.8,13.2,30.18,SSW,211,11.0,14.0,66,0.00,,CLR,0.00,VWS V14.00,2013-12-11 13:50:00,
2013-12-11 08:51:00,22.9,13.3,30.18,SSW,205,13.0,13.0,66,0.00,,CLR,0.00,VWS V14.00,2013-12-11 13:51:00,
2013-12-11 08:52:00,23.1,14.1,30.18,South,191,13.0,15.0,68,0.00,,CLR,0.00,VWS V14.00,2013-12-11 13:52:00,
2013-12-11 08:53:00,23.3,13.6,30.18,SSW,203,17.0,24.0,66,0.00,,CLR,0.00,VWS V14.00,2013-12-11 13:53:00,
2013-12-11 08:54:00,23.3,12.9,30.18,SSW,205,18.0,24.0,64,0.00,,CLR,0.00,VWS V14.00,2013-12-11 13:54:00,
2013-12-11 08:55:00,23.4,13.4,30.18,WSW,239,15.0,24.0,65,0.00,,CLR,0.00,VWS V14.00,2013-12-11 13:55:00,
2013-12-11 08:56:00,23.5,13.8,30.18,SW,214,13.0,24.0,66,0.00,,CLR,0.00,VWS V14.00,2013-12-11 13:56:00,
2013-12-11 08:57:00,23.5,13.1,30.18,SSW,203,15.0,24.0,64,0.00,,CLR,0.00,VWS V14.00,2013-12-11 13:57:00,
2013-12-11 08:58:00,23.6,14.3,30.18,SSW,207,17.0,24.0,67,0.00,,CLR,0.00,VWS V14.00,2013-12-11 13:58:00,
2013-12-11 08:59:00,23.6,13.9,30.18,SSW,210,21.0,24.0,66,0.00,,CLR,0.00,VWS V14.00,2013-12-11 13:59:00,
2013-12-11 09:00:00,23.7,13.7,30.18,SSW,199,21.0,24.0,65,0.00,,CLR,0.00,VWS V14.00,2013-12-11 14:00:00,
2013-12-11 09:01:00,23.7,13.0,30.18,SSW,207,21.0,22.0,63,0.00,,CLR,0.00,VWS V14.00,2013-12-11 14:01:00,
2013-12-11 09:02:00,23.7,13.3,30.18,SW,219,16.0,22.0,64,0.00,,CLR,0.00,VWS V14.00,2013-12-11 14:02:00,
2013-12-11 09:03:00,23.7,13.3,30.18,SSW,205,18.0,22.0,64,0.00,,CLR,0.00,VWS V14.00,2013-12-11 14:03:00,
2013-12-11 09:04:00,23.8,14.1,30.18,SSW,205,19.0,23.0,66,0.00,,CLR,0.00,VWS V14.00,2013-12-11 14:04:00,
2013-12-11 09:05:00,23.8,13.4,30.18,SSW,197,18.0,24.0,64,0.00,,CLR,0.00,VWS V14.00,2013-12-11 14:05:00,
2013-12-11 09:06:00,23.9,14.6,30.18,South,186,19.0,24.0,67,0.00,,CLR,0.00,VWS V14.00,2013-12-11 14:06:00,
2013-12-11 09:07:00,23.9,13.9,30.18,SSW,203,16.0,24.0,65,0.00,,CLR,0.00,VWS V14.00,2013-12-11 14:07:00,
2013-12-11 09:08:00,23.9,13.5,30.18,SSW,196,16.0,24.0,64,0.00,,CLR,0.00,VWS V14.00,2013-12-11 14:08:00,
2013-12-11 09:09:00,23.9,14.2,30.18,SW,222,15.0,24.0,66,0.00,,CLR,0.00,VWS V14.00,2013-12-11 14:09:00,
2013-12-11 09:10:00,24.0,14.3,30.18,SSW,204,18.0,24.0,66,0.00,,CLR,0.00,VWS V14.00,2013-12-11 14:10:00,
2013-12-11 09:11:00,24.0,13.6,30.18,SW,215,19.0,22.0,64,0.00,,CLR,0.00,VWS V14.00,2013-12-11 14:11:00,
2013-12-11 09:12:00,23.9,13.9,30.18,SSW,211,15.0,23.0,65,0.00,,CLR,0.00,VWS V14.00,2013-12-11 14:12:00,
2013-12-11 09:13:00,23.9,13.9,30.18,SSW,198,18.0,23.0,65,0.00,,CLR,0.00,VWS V14.00,2013-12-11 14:13:00,
2013-12-11 09:14:00,24.0,14.0,30.18,SSW,209,18.0,23.0,65,0.00,,CLR,0.00,VWS V14.00,2013-12-11 14:14:00,
2013-12-11 09:15:00,23.9,13.1,30.18,SSW,200,21.0,23.0,63,0.00,,CLR,0.00,VWS V14.00,2013-12-11 14:15:00,
2013-12-11 09:16:00,23.9,14.2,30.18,SSW,194,17.0,23.0,66,0.00,,CLR,0.00,VWS V14.00,2013-12-11 14:16:00,
2013-12-11 09:17:00,23.9,13.9,30.18,SW,215,16.0,23.0,65,0.00,,CLR,0.00,VWS V14.00,2013-12-11 14:17:00,
2013-12-11 09:18:00,23.9,14.6,30.18,SSW,205,15.0,23.0,67,0.00,,CLR,0.00,VWS V14.00,2013-12-11 14:18:00,
2013-12-11 09:19:00,24.1,14.7,30.18,SSW,192,22.0,23.0,67,0.00,,CLR,0.00,VWS V14.00,2013-12-11 14:19:00,
2013-12-11 09:20:00,23.9,13.1,30.18,SSW,202,17.0,23.0,63,0.00,,CLR,0.00,VWS V14.00,2013-12-11 14:20:00,
2013-12-11 09:21:00,23.9,13.1,30.18,South,187,25.0,25.0,63,0.00,,CLR,0.00,VWS V14.00,2013-12-11 14:21:00,
2013-12-11 09:22:00,23.9,13.1,30.18,SSW,202,19.0,25.0,63,0.00,,CLR,0.00,VWS V14.00,2013-12-11 14:22:00,
2013-12-11 09:23:00,23.9,13.5,30.18,South,188,20.0,25.0,64,0.00,,CLR,0.00,VWS V14.00,2013-12-11 14:23:00,
2013-12-11 09:24:00,24.0,14.0,30.18,SW,225,16.0,25.0,65,0.00,,CLR,0.00,VWS V14.00,2013-12-11 14:24:00,
2013-12-11 09:25:00,24.1,14.1,30.18,SSW,205,17.0,25.0,65,0.00,,CLR,0.00,VWS V14.00,2013-12-11 14:25:00,
2013-12-11 09:26:00,24.1,13.7,30.18,SSW,195,20.0,25.0,64,0.00,,CLR,0.00,VWS V14.00,2013-12-11 14:26:00,
2013-12-11 09:27:00,24.1,13.7,30.18,SSW,207,16.0,25.0,64,0.00,,CLR,0.00,VWS V14.00,2013-12-11 14:27:00,
2013-12-11 09:28:00,24.1,14.4,30.18,SSW,194,19.0,25.0,66,0.00,,CLR,0.00,VWS V14.00,2013-12-11 14:28:00,
2013-12-11 09:29:00,24.1,13.7,30.18,SW,224,15.0,25.0,64,0.00,,CLR,0.00,VWS V14.00,2013-12-11 14:29:00,
2013-12-11 09:30:00,24.1,13.3,30.18,SW,217,15.0,25.0,63,0.00,,CLR,0.00,VWS V14.00,2013-12-11 14:30:00,
2013-12-11 09:31:00,24.1,13.7,30.18,SSW,209,21.0,21.0,64,0.00,,CLR,0.00,VWS V14.00,2013-12-11 14:31:00,
2013-12-11 09:32:00,24.1,13.7,30.18,SSW,211,21.0,24.0,64,0.00,,CLR,0.00,VWS V14.00,2013-12-11 14:32:00,
2013-12-11 09:33:00,24.1,13.0,30.18,SSW,196,17.0,24.0,62,0.00,,CLR,0.00,VWS V14.00,2013-12-11 14:33:00,
2013-12-11 09:34:00,24.1,14.1,30.18,SSW,199,16.0,24.0,65,0.00,,CLR,0.00,VWS V14.00,2013-12-11 14:34:00,
2013-12-11 09:35:00,24.2,13.4,30.18,SSW,193,24.0,24.0,63,0.00,,CLR,0.00,VWS V14.00,2013-12-11 14:35:00,
2013-12-11 09:36:00,24.2,14.1,30.18,SW,221,18.0,24.0,65,0.00,,CLR,0.00,VWS V14.00,2013-12-11 14:36:00,
2013-12-11 09:37:00,24.4,14.7,30.18,SSW,199,20.0,24.0,66,0.00,,CLR,0.00,VWS V14.00,2013-12-11 14:37:00,
2013-12-11 09:38:00,24.6,15.6,30.18,SW,221,16.0,24.0,68,0.00,,CLR,0.00,VWS V14.00,2013-12-11 14:38:00,
2013-12-11 09:39:00,24.6,14.9,30.18,SSW,213,15.0,24.0,66,0.00,,CLR,0.00,VWS V14.00,2013-12-11 14:39:00,
2013-12-11 09:40:00,24.6,14.9,30.18,SW,221,16.0,24.0,66,0.00,,CLR,0.00,VWS V14.00,2013-12-11 14:40:00,
2013-12-11 09:41:00,24.7,15.0,30.18,SSW,192,22.0,22.0,66,0.00,,CLR,0.00,VWS V14.00,2013-12-11 14:41:00,
2013-12-11 09:42:00,24.5,14.1,30.18,SSW,207,18.0,22.0,64,0.00,,CLR,0.00,VWS V14.00,2013-12-11 14:42:00,
2013-12-11 09:43:00,24.5,13.7,30.18,SSW,207,18.0,26.0,63,0.00,,CLR,0.00,VWS V14.00,2013-12-11 14:43:00,
2013-12-11 09:44:00,24.4,14.3,30.18,SSW,209,20.0,26.0,65,0.00,,CLR,0.00,VWS V14.00,2013-12-11 14:44:00,
2013-12-11 09:45:00,24.4,13.6,30.18,SW,221,19.0,26.0,63,0.00,,CLR,0.00,VWS V14.00,2013-12-11 14:45:00,
2013-12-11 09:46:00,24.4,14.0,30.18,SW,227,17.0,26.0,64,0.00,,CLR,0.00,VWS V14.00,2013-12-11 14:46:00,
2013-12-11 09:47:00,24.5,15.5,30.18,SW,223,15.0,26.0,68,0.00,,CLR,0.00,VWS V14.00,2013-12-11 14:47:00,
2013-12-11 09:48:00,24.5,13.7,30.18,SSW,200,18.0,26.0,63,0.00,,OVC060,0.00,VWS V14.00,2013-12-11 14:48:00,
2013-12-11 09:49:00,24.7,15.7,30.18,SSW,207,16.0,26.0,68,0.00,,OVC060,0.00,VWS V14.00,2013-12-11 14:49:00,
2013-12-11 09:50:00,24.6,14.5,30.18,SSW,202,16.0,26.0,65,0.00,,OVC060,0.00,VWS V14.00,2013-12-11 14:50:00,
2013-12-11 09:51:00,24.6,14.2,30.18,SW,219,18.0,18.0,64,0.00,,OVC060,0.00,VWS V14.00,2013-12-11 14:51:00,
2013-12-11 09:52:00,24.6,14.2,30.18,SSW,210,19.0,19.0,64,0.00,,OVC060,0.00,VWS V14.00,2013-12-11 14:52:00,
2013-12-11 09:53:00,24.7,14.3,30.18,SSW,200,19.0,21.0,64,0.00,,OVC060,0.00,VWS V14.00,2013-12-11 14:53:00,
2013-12-11 09:54:00,24.6,13.8,30.18,SSW,206,18.0,23.0,63,0.00,,OVC060,0.00,VWS V14.00,2013-12-11 14:54:00,
2013-12-11 09:55:00,24.5,13.0,30.18,SSW,204,18.0,23.0,61,0.00,,OVC060,0.00,VWS V14.00,2013-12-11 14:55:00,
2013-12-11 09:56:00,24.6,13.8,30.18,SW,221,16.0,23.0,63,0.00,,OVC060,0.00,VWS V14.00,2013-12-11 14:56:00,
2013-12-11 09:57:00,24.7,13.9,30.18,SW,215,21.0,23.0,63,0.00,,OVC060,0.00,VWS V14.00,2013-12-11 14:57:00,
2013-12-11 09:58:00,24.8,14.4,30.18,SSW,193,22.0,25.0,64,0.00,,OVC060,0.00,VWS V14.00,2013-12-11 14:58:00,
2013-12-11 09:59:00,24.7,13.9,30.17,SSW,200,15.0,25.0,63,0.00,,OVC060,0.00,VWS V14.00,2013-12-11 14:59:00,
2013-12-11 10:00:00,24.7,13.6,30.17,South,181,25.0,25.0,62,0.00,,OVC060,0.00,VWS V14.00,2013-12-11 15:00:00,
2013-12-11 10:01:00,24.6,13.1,30.17,SSW,206,16.0,23.0,61,0.00,,OVC060,0.00,VWS V14.00,2013-12-11 15:01:00,
2013-12-11 10:02:00,24.7,14.3,30.17,SSW,200,20.0,25.0,64,0.00,,OVC060,0.00,VWS V14.00,2013-12-11 15:02:00,
2013-12-11 10:03:00,24.7,12.8,30.17,SW,225,17.0,25.0,60,0.00,,OVC060,0.00,VWS V14.00,2013-12-11 15:03:00,
2013-12-11 10:04:00,24.9,14.8,30.18,SSW,207,17.0,25.0,65,0.00,,OVC060,0.00,VWS V14.00,2013-12-11 15:04:00,
2013-12-11 10:05:00,24.9,14.8,30.18,SW,226,22.0,25.0,65,0.00,,OVC060,0.00,VWS V14.00,2013-12-11 15:05:00,
2013-12-11 10:06:00,24.9,13.7,30.18,SW,223,19.0,25.0,62,0.00,,OVC060,0.00,VWS V14.00,2013-12-11 15:06:00,
2013-12-11 10:07:00,24.9,14.1,30.17,SSW,207,17.0,25.0,63,0.00,,OVC060,0.00,VWS V14.00,2013-12-11 15:07:00,
2013-12-11 10:08:00,24.9,14.5,30.17,SW,217,20.0,25.0,64,0.00,,OVC060,0.00,VWS V14.00,2013-12-11 15:08:00,
2013-12-11 10:09:00,25.0,13.8,30.17,SSW,195,18.0,25.0,62,0.00,,OVC060,0.00,VWS V14.00,2013-12-11 15:09:00,
2013-12-11 10:10:00,24.9,13.4,30.17,SSW,198,19.0,25.0,61,0.00,,OVC060,0.00,VWS V14.00,2013-12-11 15:10:00,
2013-12-11 10:11:00,24.9,13.0,30.17,SSW,205,18.0,21.0,60,0.00,,OVC060,0.00,VWS V14.00,2013-12-11 15:11:00,
2013-12-11 10:12:00,24.8,13.3,30.17,SSW,202,18.0,22.0,61,0.00,,OVC060,0.00,VWS V14.00,2013-12-11 15:12:00,
2013-12-11 10:13:00,24.9,14.1,30.17,SW,218,22.0,22.0,63,0.00,,OVC060,0.00,VWS V14.00,2013-12-11 15:13:00,
2013-12-11 10:14:00,24.9,13.0,30.17,SSW,200,19.0,22.0,60,0.00,,OVC060,0.00,VWS V14.00,2013-12-11 15:14:00,
2013-12-11 10:15:00,25.1,15.4,30.17,SSW,194,20.0,22.0,66,0.00,,OVC060,0.00,VWS V14.00,2013-12-11 15:15:00,
2013-12-11 10:16:00,25.2,14.8,30.17,South,181,12.0,25.0,64,0.00,,OVC060,0.00,VWS V14.00,2013-12-11 15:16:00,
2013-12-11 10:17:00,25.0,13.5,30.17,SSW,200,14.0,25.0,61,0.00,,OVC060,0.00,VWS V14.00,2013-12-11 15:17:00,
2013-12-11 10:18:00,25.0,13.1,30.17,SSW,200,20.0,25.0,60,0.00,,OVC060,0.00,VWS V14.00,2013-12-11 15:18:00,
2013-12-11 10:19:00,25.1,13.9,30.17,SSW,202,20.0,25.0,62,0.00,,OVC060,0.00,VWS V14.00,2013-12-11 15:19:00,
2013-12-11 10:20:00,25.3,17.5,30.17,SSW,200,20.0,26.0,72,0.00,,OVC060,0.00,VWS V14.00,2013-12-11 15:20:00,
2013-12-11 10:21:00,25.2,13.3,30.17,SSW,195,15.0,20.0,60,0.00,,OVC060,0.00,VWS V14.00,2013-12-11 15:21:00,
2013-12-11 10:22:00,25.2,14.0,30.17,SSW,208,22.0,22.0,62,0.00,,OVC060,0.00,VWS V14.00,2013-12-11 15:22:00,
2013-12-11 10:23:00,25.2,13.6,30.17,SSW,205,17.0,23.0,61,0.00,,OVC060,0.00,VWS V14.00,2013-12-11 15:23:00,
2013-12-11 10:24:00,25.3,13.4,30.16,SSW,210,17.0,23.0,60,0.00,,OVC060,0.00,VWS V14.00,2013-12-11 15:24:00,
2013-12-11 10:25:00,25.2,12.9,30.16,SSW,207,19.0,23.0,59,0.00,,OVC060,0.00,VWS V14.00,2013-12-11 15:25:00,
2013-12-11 10:26:00,25.1,13.6,30.16,South,183,17.0,23.0,61,0.00,,OVC060,0.00,VWS V14.00,2013-12-11 15:26:00,
2013-12-11 10:27:00,25.2,13.3,30.16,SSW,205,18.0,23.0,60,0.00,,OVC060,0.00,VWS V14.00,2013-12-11 15:27:00,
2013-12-11 10:28:00,25.1,12.8,30.16,SSW,202,18.0,23.0,59,0.00,,OVC060,0.00,VWS V14.00,2013-12-11 15:28:00,
2013-12-11 10:29:00,25.2,14.0,30.16,SSW,196,21.0,23.0,62,0.00,,OVC060,0.00,VWS V14.00,2013-12-11 15:29:00,
2013-12-11 10:30:00,25.2,12.9,30.16,SSW,195,18.0,23.0,59,0.00,,OVC060,0.00,VWS V14.00,2013-12-11 15:30:00,
2013-12-11 10:31:00,25.2,12.9,30.16,SSW,200,20.0,22.0,59,0.00,,OVC060,0.00,VWS V14.00,2013-12-11 15:31:00,
2013-12-11 10:32:00,25.3,13.8,30.16,SSW,210,20.0,25.0,61,0.00,,OVC060,0.00,VWS V14.00,2013-12-11 15:32:00,
2013-12-11 10:33:00,25.3,14.5,30.16,SSW,202,18.0,25.0,63,0.00,,OVC060,0.00,VWS V14.00,2013-12-11 15:33:00,
2013-12-11 10:34:00,25.4,13.8,30.16,SW,216,16.0,25.0,61,0.00,,OVC060,0.00,VWS V14.00,2013-12-11 15:34:00,
2013-12-11 10:35:00,25.5,15.4,30.16,SW,222,15.0,25.0,65,0.00,,OVC060,0.00,VWS V14.00,2013-12-11 15:35:00,
2013-12-11 10:36:00,25.6,14.8,30.16,SSW,211,17.0,25.0,63,0.00,,OVC060,0.00,VWS V14.00,2013-12-11 15:36:00,
2013-12-11 10:37:00,25.6,14.4,30.16,SSW,210,20.0,25.0,62,0.00,,OVC060,0.00,VWS V14.00,2013-12-11 15:37:00,
2013-12-11 10:38:00,25.6,14.4,30.16,SSW,202,21.0,25.0,62,0.00,,OVC060,0.00,VWS V14.00,2013-12-11 15:38:00,
2013-12-11 10:39:00,25.7,15.6,30.16,SSW,202,19.0,25.0,65,0.00,,OVC060,0.00,VWS V14.00,2013-12-11 15:39:00,
2013-12-11 10:40:00,25.6,13.3,30.16,SSW,203,17.0,25.0,59,0.00,,OVC060,0.00,VWS V14.00,2013-12-11 15:40:00,
2013-12-11 10:41:00,25.7,14.9,30.16,SSW,196,18.0,18.0,63,0.00,,OVC060,0.00,VWS V14.00,2013-12-11 15:41:00,
2013-12-11 10:42:00,25.8,15.0,30.15,SW,214,18.0,20.0,63,0.00,,OVC060,0.00,VWS V14.00,2013-12-11 15:42:00,
2013-12-11 10:43:00,25.7,13.8,30.15,SSW,194,18.0,20.0,60,0.00,,OVC060,0.00,VWS V14.00,2013-12-11 15:43:00,
2013-12-11 10:44:00,25.6,13.3,30.15,SW,215,19.0,20.0,59,0.00,,OVC060,0.00,VWS V14.00,2013-12-11 15:44:00,
2013-12-11 10:45:00,25.6,13.3,30.15,SSW,206,16.0,22.0,59,0.00,,OVC060,0.00,VWS V14.00,2013-12-11 15:45:00,
2013-12-11 10:46:00,25.6,14.0,30.15,SW,227,15.0,24.0,61,0.00,,OVC060,0.00,VWS V14.00,2013-12-11 15:46:00,
2013-12-11 10:47:00,25.6,13.3,30.15,SSW,198,17.0,24.0,59,0.00,,OVC060,0.00,VWS V14.00,2013-12-11 15:47:00,
2013-12-11 10:48:00,25.7,14.5,30.15,SSW,208,16.0,24.0,62,0.00,,FEW035,0.00,VWS V14.00,2013-12-11 15:48:00,
2013-12-11 10:49:00,25.7,14.1,30.15,South,191,26.0,26.0,61,0.00,,FEW035,0.00,VWS V14.00,2013-12-11 15:49:00,
2013-12-11 10:50:00,25.7,13.8,30.15,SSW,205,18.0,26.0,60,0.00,,FEW035,0.00,VWS V14.00,2013-12-11 15:50:00,
2013-12-11 10:51:00,25.7,13.8,30.15,SSW,202,23.0,23.0,60,0.00,,FEW035,0.00,VWS V14.00,2013-12-11 15:51:00,
2013-12-11 10:52:00,25.7,14.1,30.15,SSW,207,16.0,23.0,61,0.00,,FEW035,0.00,VWS V14.00,2013-12-11 15:52:00,
2013-12-11 10:53:00,25.9,14.3,30.15,SW,217,17.0,23.0,61,0.00,,FEW035,0.00,VWS V14.00,2013-12-11 15:53:00,
2013-12-11 10:54:00,26.0,14.4,30.15,SSW,213,15.0,23.0,61,0.00,,FEW035,0.00,VWS V14.00,2013-12-11 15:54:00,
2013-12-11 10:55:00,26.0,14.8,30.15,SW,221,20.0,23.0,62,0.00,,FEW035,0.00,VWS V14.00,2013-12-11 15:55:00,
2013-12-11 10:56:00,25.9,13.9,30.15,SW,219,16.0,23.0,60,0.00,,FEW035,0.00,VWS V14.00,2013-12-11 15:56:00,
2013-12-11 10:57:00,25.8,13.9,30.15,SW,221,15.0,23.0,60,0.00,,FEW035,0.00,VWS V14.00,2013-12-11 15:57:00,
2013-12-11 10:58:00,25.9,13.9,30.15,SSW,211,17.0,23.0,60,0.00,,FEW035,0.00,VWS V14.00,2013-12-11 15:58:00,
2013-12-11 10:59:00,26.0,14.8,30.15,SSW,194,20.0,23.0,62,0.00,,FEW035,0.00,VWS V14.00,2013-12-11 15:59:00,
2013-12-11 11:00:00,26.1,14.5,30.15,SSW,202,18.0,23.0,61,0.00,,FEW035,0.00,VWS V14.00,2013-12-11 16:00:00,
2013-12-11 11:01:00,26.0,13.6,30.15,SSW,207,19.0,20.0,59,0.00,,FEW035,0.00,VWS V14.00,2013-12-11 16:01:00,
2013-12-11 11:02:00,26.0,14.8,30.15,SSW,209,19.0,21.0,62,0.00,,FEW035,0.00,VWS V14.00,2013-12-11 16:02:00,
2013-12-11 11:03:00,26.1,15.6,30.14,SSW,209,21.0,23.0,64,0.00,,FEW035,0.00,VWS V14.00,2013-12-11 16:03:00,
2013-12-11 11:04:00,26.1,13.8,30.15,SW,226,15.0,23.0,59,0.00,,FEW035,0.00,VWS V14.00,2013-12-11 16:04:00,
2013-12-11 11:05:00,26.1,14.5,30.14,SSW,200,16.0,23.0,61,0.00,,FEW035,0.00,VWS V14.00,2013-12-11 16:05:00,
2013-12-11 11:06:00,26.1,14.1,30.14,SSW,202,17.0,23.0,60,0.00,,FEW035,0.00,VWS V14.00,2013-12-11 16:06:00,
2013-12-11 11:07:00,26.1,13.8,30.14,SSW,199,16.0,23.0,59,0.00,,FEW035,0.00,VWS V14.00,2013-12-11 16:07:00,
2013-12-11 11:08:00,26.2,15.0,30.14,SSW,200,21.0,25.0,62,0.00,,FEW035,0.00,VWS V14.00,2013-12-11 16:08:00,
2013-12-11 11:09:00,26.1,14.1,30.14,SSW,196,19.0,25.0,60,0.00,,FEW035,0.00,VWS V14.00,2013-12-11 16:09:00,
2013-12-11 11:10:00,26.2,14.2,30.14,SSW,213,17.0,25.0,60,0.00,,FEW035,0.00,VWS V14.00,2013-12-11 16:10:00,
2013-12-11 11:11:00,26.2,14.6,30.14,SSW,213,18.0,22.0,61,0.00,,FEW035,0.00,VWS V14.00,2013-12-11 16:11:00,
2013-12-11 11:12:00,26.2,14.2,30.14,SSW,209,17.0,22.0,60,0.00,,FEW035,0.00,VWS V14.00,2013-12-11 16:12:00,
2013-12-11 11:13:00,26.3,14.3,30.14,SSW,200,19.0,22.0,60,0.00,,FEW035,0.00,VWS V14.00,2013-12-11 16:13:00,
2013-12-11 11:14:00,26.3,14.7,30.14,SSW,213,16.0,22.0,61,0.00,,FEW035,0.00,VWS V14.00,2013-12-11 16:14:00,
2013-12-11 11:15:00,26.3,14.3,30.14,SW,224,15.0,22.0,60,0.00,,FEW035,0.00,VWS V14.00,2013-12-11 16:15:00,
2013-12-11 11:16:00,26.2,13.4,30.14,SW,216,12.0,22.0,58,0.00,,FEW035,0.00,VWS V14.00,2013-12-11 16:16:00,
2013-12-11 11:17:00,26.4,15.9,30.14,SSW,205,15.0,22.0,64,0.00,,FEW035,0.00,VWS V14.00,2013-12-11 16:17:00,
2013-12-11 11:18:00,26.5,15.3,30.14,SSW,209,15.0,22.0,62,0.00,,FEW035,0.00,VWS V14.00,2013-12-11 16:18:00,
2013-12-11 11:19:00,26.5,14.9,30.14,SSW,205,17.0,22.0,61,0.00,,FEW035,0.00,VWS V14.00,2013-12-11 16:19:00,
2013-12-11 11:20:00,26.5,15.3,30.14,SSW,205,21.0,23.0,62,0.00,,FEW035,0.00,VWS V14.00,2013-12-11 16:20:00,
2013-12-11 11:21:00,26.5,14.1,30.14,SSW,198,16.0,22.0,59,0.00,,FEW035,0.00,VWS V14.00,2013-12-11 16:21:00,
2013-12-11 11:22:00,26.6,15.4,30.13,SW,225,19.0,22.0,62,0.00,,FEW035,0.00,VWS V14.00,2013-12-11 16:22:00,
2013-12-11 11:23:00,26.6,13.8,30.13,SSW,210,18.0,22.0,58,0.00,,FEW035,0.00,VWS V14.00,2013-12-11 16:23:00,
2013-12-11 11:24:00,26.6,14.6,30.14,SSW,211,14.0,22.0,60,0.00,,FEW035,0.00,VWS V14.00,2013-12-11 16:24:00,
2013-12-11 11:25:00,26.6,15.0,30.13,SW,215,17.0,22.0,61,0.00,,FEW035,0.00,VWS V14.00,2013-12-11 16:25:00,
2013-12-11 11:26:00,26.7,15.8,30.14,SW,219,15.0,22.0,63,0.00,,FEW035,0.00,VWS V14.00,2013-12-11 16:26:00,
2013-12-11 11:27:00,26.8,14.4,30.13,SW,222,16.0,22.0,59,0.00,,FEW035,0.00,VWS V14.00,2013-12-11 16:27:00,
2013-12-11 11:28:00,26.9,15.3,30.13,SW,223,14.0,22.0,61,0.00,,FEW035,0.00,VWS V14.00,2013-12-11 16:28:00,
2013-12-11 11:29:00,27.1,16.2,30.13,SSW,213,18.0,22.0,63,0.00,,FEW035,0.00,VWS V14.00,2013-12-11 16:29:00,
2013-12-11 11:30:00,27.2,14.8,30.14,SW,223,19.0,22.0,59,0.00,,FEW035,0.00,VWS V14.00,2013-12-11 16:30:00,
2013-12-11 11:31:00,27.1,13.9,30.14,SW,223,15.0,18.0,57,0.00,,FEW035,0.00,VWS V14.00,2013-12-11 16:31:00,
2013-12-11 11:32:00,27.0,13.8,30.14,WSW,246,18.0,18.0,57,0.00,,FEW035,0.00,VWS V14.00,2013-12-11 16:32:00,
2013-12-11 11:33:00,27.0,13.8,30.13,SW,221,17.0,18.0,57,0.00,,FEW035,0.00,VWS V14.00,2013-12-11 16:33:00,
2013-12-11 11:34:00,27.0,13.8,30.13,WSW,244,16.0,18.0,57,0.00,,FEW035,0.00,VWS V14.00,2013-12-11 16:34:00,
2013-12-11 11:35:00,27.0,13.8,30.13,WSW,245,16.0,18.0,57,0.00,,FEW035,0.00,VWS V14.00,2013-12-11 16:35:00,
2013-12-11 11:36:00,27.1,13.9,30.14,WSW,238,19.0,20.0,57,0.00,,FEW035,0.00,VWS V14.00,2013-12-11 16:36:00,
2013-12-11 11:37:00,27.3,14.9,30.13,SW,233,19.0,20.0,59,0.00,,FEW035,0.00,VWS V14.00,2013-12-11 16:37:00,
2013-12-11 11:38:00,27.5,16.6,30.13,SSW,205,19.0,21.0,63,0.00,,FEW035,0.00,VWS V14.00,2013-12-11 16:38:00,
2013-12-11 11:39:00,27.6,17.0,30.13,SW,215,23.0,23.0,64,0.00,,FEW035,0.00,VWS V14.00,2013-12-11 16:39:00,
2013-12-11 11:40:00,27.6,14.8,30.13,SSW,211,29.0,29.0,58,0.00,,FEW035,0.00,VWS V14.00,2013-12-11 16:40:00,
2013-12-11 11:41:00,27.7,15.6,30.13,WSW,240,26.0,31.0,60,0.00,,FEW035,0.00,VWS V14.00,2013-12-11 16:41:00,
2013-12-11 11:42:00,27.7,14.9,30.13,WSW,243,23.0,31.0,58,0.00,,FEW035,0.00,VWS V14.00,2013-12-11 16:42:00,
2013-12-11 11:43:00,27.6,14.8,30.14,WSW,250,18.0,31.0,58,0.00,,FEW035,0.00,VWS V14.00,2013-12-11 16:43:00,
2013-12-11 11:44:00,27.5,13.9,30.14,SW,236,21.0,31.0,56,0.00,,FEW035,0.00,VWS V14.00,2013-12-11 16:44:00,
2013-12-11 11:45:00,27.5,13.9,30.13,SW,224,18.0,31.0,56,0.00,,FEW035,0.00,VWS V14.00,2013-12-11 16:45:00,
2013-12-11 11:46:00,27.5,13.9,30.13,SW,226,20.0,31.0,56,0.00,,FEW035,0.00,VWS V14.00,2013-12-11 16:46:00,
2013-12-11 11:47:00,27.5,16.2,30.13,SW,225,17.0,31.0,62,0.00,,FEW035,0.00,VWS V14.00,2013-12-11 16:47:00,
2013-12-11 11:48:00,27.5,15.1,30.13,SW,226,18.0,31.0,59,0.00,,OVC050,0.00,VWS V14.00,2013-12-11 16:48:00,
2013-12-11 11:49:00,27.5,16.2,30.13,SW,228,18.0,31.0,62,0.00,,OVC050,0.00,VWS V14.00,2013-12-11 16:49:00,
2013-12-11 11:50:00,27.4,13.4,30.13,SW,223,14.0,31.0,55,0.00,,OVC050,0.00,VWS V14.00,2013-12-11 16:50:00,
2013-12-11 11:51:00,27.4,13.4,30.13,SW,222,15.0,19.0,55,0.00,,OVC050,0.00,VWS V14.00,2013-12-11 16:51:00,
2013-12-11 11:52:00,27.4,13.4,30.13,WSW,238,13.0,19.0,55,0.00,,OVC050,0.00,VWS V14.00,2013-12-11 16:52:00,
2013-12-11 11:53:00,27.4,13.4,30.13,WSW,238,11.0,21.0,55,0.00,,OVC050,0.00,VWS V14.00,2013-12-11 16:53:00,
2013-12-11 11:54:00,27.4,13.4,30.13,WSW,244,16.0,21.0,55,0.00,,OVC050,0.00,VWS V14.00,2013-12-11 16:54:00,
2013-12-11 11:55:00,27.4,13.8,30.13,SW,236,16.0,21.0,56,0.00,,OVC050,0.00,VWS V14.00,2013-12-11 16:55:00,
2013-12-11 11:56:00,27.4,13.4,30.13,SW,227,16.0,21.0,55,0.00,,OVC050,0.00,VWS V14.00,2013-12-11 16:56:00,
2013-12-11 11:57:00,27.4,13.4,30.13,WSW,239,16.0,24.0,55,0.00,,OVC050,0.00,VWS V14.00,2013-12-11 16:57:00,
2013-12-11 11:58:00,27.4,14.2,30.13,SW,234,16.0,24.0,57,0.00,,OVC050,0.00,VWS V14.00,2013-12-11 16:58:00,
2013-12-11 11:59:00,27.5,15.1,30.13,SW,215,23.0,24.0,59,0.00,,OVC050,0.00,VWS V14.00,2013-12-11 16:59:00,
2013-12-11 12:00:00,27.6,13.6,30.13,SW,222,28.0,28.0,55,0.00,,OVC050,0.00,VWS V14.00,2013-12-11 17:00:00,
2013-12-11 12:01:00,27.6,14.8,30.13,SW,229,21.0,25.0,58,0.00,,OVC050,0.00,VWS V14.00,2013-12-11 17:01:00,
2013-12-11 12:02:00,27.6,14.8,30.13,WSW,245,10.0,25.0,58,0.00,,OVC050,0.00,VWS V14.00,2013-12-11 17:02:00,
2013-12-11 12:03:00,27.6,13.6,30.13,SW,236,14.0,25.0,55,0.00,,OVC050,0.00,VWS V14.00,2013-12-11 17:03:00,
2013-12-11 12:04:00,27.6,13.6,30.13,SW,233,21.0,25.0,55,0.00,,OVC050,0.00,VWS V14.00,2013-12-11 17:04:00,
2013-12-11 12:05:00,27.5,13.1,30.13,WSW,241,20.0,25.0,54,0.00,,OVC050,0.00,VWS V14.00,2013-12-11 17:05:00,
2013-12-11 12:06:00,27.5,13.5,30.13,WSW,252,26.0,26.0,55,0.00,,OVC050,0.00,VWS V14.00,2013-12-11 17:06:00,
2013-12-11 12:07:00,27.5,13.5,30.13,West,267,21.0,26.0,55,0.00,,OVC050,0.00,VWS V14.00,2013-12-11 17:07:00,
2013-12-11 12:08:00,27.5,13.1,30.13,SW,234,23.0,26.0,54,0.00,,OVC050,0.00,VWS V14.00,2013-12-11 17:08:00,
2013-12-11 12:09:00,27.5,13.5,30.13,WSW,241,21.0,28.0,55,0.00,,OVC050,0.00,VWS V14.00,2013-12-11 17:09:00,
2013-12-11 12:10:00,27.5,13.5,30.13,WSW,254,20.0,28.0,55,0.00,,OVC050,0.00,VWS V14.00,2013-12-11 17:10:00,
2013-12-11 12:11:00,27.5,13.9,30.13,WSW,242,19.0,26.0,56,0.00,,OVC050,0.00,VWS V14.00,2013-12-11 17:11:00,
2013-12-11 12:12:00,27.4,13.0,30.13,WSW,241,20.0,26.0,54,0.00,,OVC050,0.00,VWS V14.00,2013-12-11 17:12:00,
2013-12-11 12:13:00,27.5,13.5,30.13,SSW,207,21.0,26.0,55,0.00,,OVC050,0.00,VWS V14.00,2013-12-11 17:13:00,
2013-12-11 12:14:00,27.5,14.3,30.13,SW,236,22.0,26.0,57,0.00,,OVC050,0.00,VWS V14.00,2013-12-11 17:14:00,
2013-12-11 12:15:00,27.6,14.0,30.13,SW,232,24.0,26.0,56,0.00,,OVC050,0.00,VWS V14.00,2013-12-11 17:15:00,
2013-12-11 12:16:00,27.6,13.6,30.13,SW,225,20.0,26.0,55,0.00,,OVC050,0.00,VWS V14.00,2013-12-11 17:16:00,
2013-12-11 12:17:00,27.5,12.6,30.13,SW,233,22.0,26.0,53,0.00,,OVC050,0.00,VWS V14.00,2013-12-11 17:17:00,
2013-12-11 12:18:00,27.4,13.0,30.13,WSW,238,17.0,26.0,54,0.00,,OVC050,0.00,VWS V14.00,2013-12-11 17:18:00,
2013-12-11 12:19:00,27.4,13.0,30.13,WSW,243,15.0,26.0,54,0.00,,OVC050,0.00,VWS V14.00,2013-12-11 17:19:00,
2013-12-11 12:20:00,27.4,13.0,30.13,West,281,16.0,26.0,54,0.00,,OVC050,0.00,VWS V14.00,2013-12-11 17:20:00,
2013-12-11 12:21:00,27.4,14.2,30.13,West,276,10.0,19.0,57,0.00,,OVC050,0.00,VWS V14.00,2013-12-11 17:21:00,
2013-12-11 12:22:00,27.4,13.0,30.13,WSW,244,13.0,19.0,54,0.00,,OVC050,0.00,VWS V14.00,2013-12-11 17:22:00,
2013-12-11 12:23:00,27.4,13.0,30.13,SW,233,15.0,19.0,54,0.00,,OVC050,0.00,VWS V14.00,2013-12-11 17:23:00,
2013-12-11 12:24:00,27.5,13.5,30.13,West,274,12.0,19.0,55,0.00,,OVC050,0.00,VWS V14.00,2013-12-11 17:24:00,
2013-12-11 12:25:00,27.5,13.5,30.13,WSW,257,15.0,19.0,55,0.00,,OVC050,0.00,VWS V14.00,2013-12-11 17:25:00,
2013-12-11 12:26:00,27.6,14.4,30.13,West,275,11.0,19.0,57,0.00,,OVC050,0.00,VWS V14.00,2013-12-11 17:26:00,
2013-12-11 12:27:00,27.6,13.6,30.13,WNW,287,12.0,19.0,55,0.00,,OVC050,0.00,VWS V14.00,2013-12-11 17:27:00,
2013-12-11 12:28:00,27.6,14.0,30.13,SW,221,12.0,19.0,56,0.00,,OVC050,0.00,VWS V14.00,2013-12-11 17:28:00,
2013-12-11 12:29:00,27.6,13.1,30.13,WNW,287,11.0,19.0,54,0.00,,OVC050,0.00,VWS V14.00,2013-12-11 17:29:00,
2013-12-11 12:30:00,27.6,13.1,30.13,WSW,248,16.0,19.0,54,0.00,,OVC050,0.00,VWS V14.00,2013-12-11 17:30:00,
2013-12-11 12:31:00,27.5,12.6,30.12,WNW,290,14.0,17.0,53,0.00,,OVC050,0.00,VWS V14.00,2013-12-11 17:31:00,
2013-12-11 12:32:00,27.5,13.1,30.12,West,278,14.0,18.0,54,0.00,,OVC050,0.00,VWS V14.00,2013-12-11 17:32:00,
2013-12-11 12:33:00,27.5,13.1,30.12,WSW,252,12.0,18.0,54,0.00,,OVC050,0.00,VWS V14.00,2013-12-11 17:33:00,
2013-12-11 12:34:00,27.6,13.6,30.12,West,268,12.0,18.0,55,0.00,,OVC050,0.00,VWS V14.00,2013-12-11 17:34:00,
2013-12-11 12:35:00,27.7,13.6,30.13,SW,230,18.0,21.0,55,0.00,,OVC050,0.00,VWS V14.00,2013-12-11 17:35:00,
2013-12-11 12:36:00,27.8,13.8,30.13,WSW,239,13.0,21.0,55,0.00,,OVC050,0.00,VWS V14.00,2013-12-11 17:36:00,
2013-12-11 12:37:00,27.7,13.2,30.12,SW,222,13.0,21.0,54,0.00,,OVC050,0.00,VWS V14.00,2013-12-11 17:37:00,
2013-12-11 12:38:00,27.7,13.6,30.12,SW,224,16.0,21.0,55,0.00,,OVC050,0.00,VWS V14.00,2013-12-11 17:38:00,
2013-12-11 12:39:00,27.8,14.6,30.12,SW,227,18.0,21.0,57,0.00,,OVC050,0.00,VWS V14.00,2013-12-11 17:39:00,
2013-12-11 12:40:00,27.9,15.1,30.12,SW,227,23.0,23.0,58,0.00,,OVC050,0.00,VWS V14.00,2013-12-11 17:40:00,
2013-12-11 12:41:00,27.8,13.3,30.12,SW,232,14.0,19.0,54,0.00,,OVC050,0.00,VWS V14.00,2013-12-11 17:41:00,
2013-12-11 12:42:00,27.9,13.8,30.12,SW,229,17.0,26.0,55,0.00,,OVC050,0.00,VWS V14.00,2013-12-11 17:42:00,
2013-12-11 12:43:00,27.9,13.4,30.12,SW,227,14.0,26.0,54,0.00,,OVC050,0.00,VWS V14.00,2013-12-11 17:43:00,
2013-12-11 12:44:00,27.9,14.2,30.12,WSW,257,18.0,26.0,56,0.00,,OVC050,0.00,VWS V14.00,2013-12-11 17:44:00,
2013-12-11 12:45:00,28.0,14.3,30.12,SSW,212,18.0,26.0,56,0.00,,OVC050,0.00,VWS V14.00,2013-12-11 17:45:00,
2013-12-11 12:46:00,27.9,13.8,30.12,SW,222,24.0,30.0,55,0.00,,OVC050,0.00,VWS V14.00,2013-12-11 17:46:00,
2013-12-11 12:47:00,27.9,13.0,30.12,WSW,242,17.0,30.0,53,0.00,,OVC050,0.00,VWS V14.00,2013-12-11 17:47:00,
2013-12-11 12:48:00,27.9,13.4,30.12,SW,224,20.0,30.0,54,0.00,,OVC050,0.00,VWS V14.00,2013-12-11 17:48:00,
2013-12-11 12:49:00,27.8,12.9,30.12,SW,222,24.0,30.0,53,0.00,,OVC050,0.00,VWS V14.00,2013-12-11 17:49:00,
2013-12-11 12:50:00,27.8,13.3,30.12,SW,233,19.0,30.0,54,0.00,,OVC050,0.00,VWS V14.00,2013-12-11 17:50:00,
2013-12-11 12:51:00,27.7,13.2,30.12,West,264,14.0,24.0,54,0.00,,OVC050,0.00,VWS V14.00,2013-12-11 17:51:00,
2013-12-11 12:52:00,27.8,12.9,30.12,WNW,284,12.0,24.0,53,0.00,,OVC050,0.00,VWS V14.00,2013-12-11 17:52:00,
2013-12-11 12:53:00,27.8,12.9,30.12,WSW,252,17.0,24.0,53,0.00,,OVC050,0.00,VWS V14.00,2013-12-11 17:53:00,
2013-12-11 12:54:00,27.8,12.9,30.12,WSW,247,11.0,24.0,53,0.00,,OVC050,0.00,VWS V14.00,2013-12-11 17:54:00,
2013-12-11 12:55:00,27.7,12.8,30.12,WSW,240,9.0,24.0,53,0.00,,OVC050,0.00,VWS V14.00,2013-12-11 17:55:00,
2013-12-11 12:56:00,27.7,12.8,30.12,WSW,254,15.0,24.0,53,0.00,,OVC050,0.00,VWS V14.00,2013-12-11 17:56:00,
2013-12-11 12:57:00,27.8,12.5,30.12,SW,219,19.0,24.0,52,0.00,,OVC050,0.00,VWS V14.00,2013-12-11 17:57:00,
2013-12-11 12:58:00,27.8,12.5,30.12,SW,227,16.0,24.0,52,0.00,,OVC050,0.00,VWS V14.00,2013-12-11 17:58:00,
2013-12-11 12:59:00,27.8,12.9,30.12,WSW,253,18.0,24.0,53,0.00,,OVC050,0.00,VWS V14.00,2013-12-11 17:59:00,
2013-12-11 13:00:00,27.8,12.9,30.12,West,270,13.0,24.0,53,0.00,,OVC050,0.00,VWS V14.00,2013-12-11 18:00:00,
2013-12-11 13:01:00,27.8,13.3,30.12,SW,227,16.0,17.0,54,0.00,,OVC050,0.00,VWS V14.00,2013-12-11 18:01:00,
2013-12-11 13:02:00,27.9,13.4,30.12,WSW,242,13.0,17.0,54,0.00,,OVC050,0.00,VWS V14.00,2013-12-11 18:02:00,
2013-12-11 13:03:00,27.9,13.4,30.12,SSW,213,17.0,20.0,54,0.00,,OVC050,0.00,VWS V14.00,2013-12-11 18:03:00,
2013-12-11 13:04:00,28.0,14.3,30.12,WSW,248,21.0,25.0,56,0.00,,OVC050,0.00,VWS V14.00,2013-12-11 18:04:00,
2013-12-11 13:05:00,28.0,12.7,30.12,WSW,242,17.0,25.0,52,0.00,,OVC050,0.00,VWS V14.00,2013-12-11 18:05:00,
2013-12-11 13:06:00,28.1,13.6,30.12,WSW,241,15.0,25.0,54,0.00,,OVC050,0.00,VWS V14.00,2013-12-11 18:06:00,
2013-12-11 13:07:00,28.2,13.7,30.12,SW,234,14.0,25.0,54,0.00,,OVC050,0.00,VWS V14.00,2013-12-11 18:07:00,
2013-12-11 13:08:00,28.2,12.9,30.12,West,261,11.0,25.0,52,0.00,,OVC050,0.00,VWS V14.00,2013-12-11 18:08:00,
2013-12-11 13:09:00,28.2,13.3,30.12,SW,234,13.0,25.0,53,0.00,,OVC050,0.00,VWS V14.00,2013-12-11 18:09:00,
2013-12-11 13:10:00,28.2,13.3,30.12,SW,217,21.0,25.0,53,0.00,,OVC050,0.00,VWS V14.00,2013-12-11 18:10:00,
2013-12-11 13:11:00,28.3,14.6,30.12,SW,228,17.0,24.0,56,0.00,,OVC050,0.00,VWS V14.00,2013-12-11 18:11:00,
2013-12-11 13:12:00,28.2,13.7,30.11,West,261,16.0,24.0,54,0.00,,OVC050,0.00,VWS V14.00,2013-12-11 18:12:00,
2013-12-11 13:13:00,28.2,12.9,30.11,WSW,257,11.0,24.0,52,0.00,,OVC050,0.00,VWS V14.00,2013-12-11 18:13:00,
2013-12-11 13:14:00,28.1,13.6,30.11,SSW,206,12.0,24.0,54,0.00,,OVC050,0.00,VWS V14.00,2013-12-11 18:14:00,
2013-12-11 13:15:00,28.1,12.8,30.11,West,264,9.0,24.0,52,0.00,,OVC050,0.00,VWS V14.00,2013-12-11 18:15:00,
2013-12-11 13:16:00,28.1,12.8,30.11,SW,225,15.0,24.0,52,0.00,,OVC050,0.00,VWS V14.00,2013-12-11 18:16:00,
2013-12-11 13:17:00,28.1,12.3,30.11,West,259,19.0,24.0,51,0.00,,OVC050,0.00,VWS V14.00,2013-12-11 18:17:00,
2013-12-11 13:18:00,28.3,12.9,30.11,West,264,14.0,24.0,52,0.00,,OVC050,0.00,VWS V14.00,2013-12-11 18:18:00,
2013-12-11 13:19:00,28.5,14.4,30.11,West,259,15.0,24.0,55,0.00,,OVC050,0.00,VWS V14.00,2013-12-11 18:19:00,
2013-12-11 13:20:00,28.5,14.0,30.11,West,269,11.0,24.0,54,0.00,,OVC050,0.00,VWS V14.00,2013-12-11 18:20:00,
2013-12-11 13:21:00,28.5,14.0,30.11,NW,311,12.0,13.0,54,0.00,,OVC050,0.00,VWS V14.00,2013-12-11 18:21:00,
2013-12-11 13:22:00,28.5,14.0,30.11,WSW,249,13.0,13.0,54,0.00,,OVC050,0.00,VWS V14.00,2013-12-11 18:22:00,
2013-12-11 13:23:00,28.4,13.0,30.11,WSW,247,9.0,13.0,52,0.00,,OVC050,0.00,VWS V14.00,2013-12-11 18:23:00,
2013-12-11 13:24:00,28.4,13.0,30.11,WNW,295,5.0,13.0,52,0.00,,OVC050,0.00,VWS V14.00,2013-12-11 18:24:00,
2013-12-11 13:25:00,28.5,14.0,30.11,WNW,295,6.0,13.0,54,0.00,,OVC050,0.00,VWS V14.00,2013-12-11 18:25:00,
2013-12-11 13:26:00,28.5,13.1,30.11,WNW,284,10.0,15.0,52,0.00,,OVC050,0.00,VWS V14.00,2013-12-11 18:26:00,
2013-12-11 13:27:00,28.6,12.8,30.11,West,272,6.0,15.0,51,0.00,,OVC050,0.00,VWS V14.00,2013-12-11 18:27:00,
2013-12-11 13:28:00,28.5,13.1,30.11,WSW,255,12.0,15.0,52,0.00,,OVC050,0.00,VWS V14.00,2013-12-11 18:28:00,
2013-12-11 13:29:00,28.6,13.2,30.11,WSW,237,10.0,15.0,52,0.00,,OVC050,0.00,VWS V14.00,2013-12-11 18:29:00,
2013-12-11 13:30:00,28.5,12.7,30.11,WSW,253,8.0,15.0,51,0.00,,OVC050,0.00,VWS V14.00,2013-12-11 18:30:00,
2013-12-11 13:31:00,28.5,12.7,30.11,WSW,257,16.0,16.0,51,0.00,,OVC050,0.00,VWS V14.00,2013-12-11 18:31:00,
2013-12-11 13:32:00,28.4,12.6,30.11,WNW,282,13.0,16.0,51,0.00,,OVC050,0.00,VWS V14.00,2013-12-11 18:32:00,
2013-12-11 13:33:00,28.4,12.6,30.11,West,262,14.0,17.0,51,0.00,,OVC050,0.00,VWS V14.00,2013-12-11 18:33:00,
2013-12-11 13:34:00,28.4,12.6,30.11,West,276,12.0,17.0,51,0.00,,OVC050,0.00,VWS V14.00,2013-12-11 18:34:00,
2013-12-11 13:35:00,28.4,12.6,30.11,WNW,284,7.0,17.0,51,0.00,,OVC050,0.00,VWS V14.00,2013-12-11 18:35:00,
2013-12-11 13:36:00,28.4,13.0,30.11,West,277,12.0,17.0,52,0.00,,OVC050,0.00,VWS V14.00,2013-12-11 18:36:00,
2013-12-11 13:37:00,28.4,13.0,30.11,West,268,6.0,17.0,52,0.00,,OVC050,0.00,VWS V14.00,2013-12-11 18:37:00,
2013-12-11 13:38:00,28.4,12.6,30.11,West,281,10.0,17.0,51,0.00,,OVC050,0.00,VWS V14.00,2013-12-11 18:38:00,
2013-12-11 13:39:00,28.4,12.6,30.11,WNW,282,6.0,17.0,51,0.00,,OVC050,0.00,VWS V14.00,2013-12-11 18:39:00,
2013-12-11 13:40:00,28.4,13.0,30.11,West,269,8.0,17.0,52,0.00,,OVC050,0.00,VWS V14.00,2013-12-11 18:40:00,
2013-12-11 13:41:00,28.5,13.6,30.11,SW,233,4.0,7.0,53,0.00,,OVC050,0.00,VWS V14.00,2013-12-11 18:41:00,
2013-12-11 13:42:00,28.6,14.9,30.11,SW,230,11.0,11.0,56,0.00,,OVC050,0.00,VWS V14.00,2013-12-11 18:42:00,
2013-12-11 13:43:00,28.6,13.6,30.11,WSW,257,6.0,11.0,53,0.00,,OVC050,0.00,VWS V14.00,2013-12-11 18:43:00,
2013-12-11 13:44:00,28.7,13.8,30.11,West,268,6.0,11.0,53,0.00,,OVC050,0.00,VWS V14.00,2013-12-11 18:44:00,
2013-12-11 13:45:00,28.7,15.4,30.11,SW,228,11.0,12.0,57,0.00,,OVC050,0.00,VWS V14.00,2013-12-11 18:45:00,
2013-12-11 13:46:00,28.8,14.3,30.11,West,275,10.0,12.0,54,0.00,,OVC050,0.00,VWS V14.00,2013-12-11 18:46:00,
2013-12-11 13:47:00,28.8,14.3,30.11,West,263,5.0,12.0,54,0.00,,OVC050,0.00,VWS V14.00,2013-12-11 18:47:00,
2013-12-11 13:48:00,28.7,13.3,30.11,West,281,10.0,12.0,52,0.00,,OVC060,0.00,VWS V14.00,2013-12-11 18:48:00,
2013-12-11 13:49:00,28.8,13.0,30.11,WSW,244,8.0,12.0,51,0.00,,OVC060,0.00,VWS V14.00,2013-12-11 18:49:00,
2013-12-11 13:50:00,28.8,14.3,30.11,West,259,7.0,13.0,54,0.00,,OVC060,0.00,VWS V14.00,2013-12-11 18:50:00,
2013-12-11 13:51:00,28.8,12.5,30.11,West,277,4.0,9.0,50,0.00,,OVC060,0.00,VWS V14.00,2013-12-11 18:51:00,
2013-12-11 13:52:00,28.8,12.5,30.11,West,277,4.0,9.0,50,0.00,,OVC060,0.00,VWS V14.00,2013-12-11 18:52:00,
2013-12-11 13:53:00,28.8,13.0,30.10,SW,227,4.0,9.0,51,0.00,,OVC060,0.00,VWS V14.00,2013-12-11 18:53:00,
2013-12-11 13:54:00,28.9,13.5,30.10,SW,236,5.0,9.0,52,0.00,,OVC060,0.00,VWS V14.00,2013-12-11 18:54:00,
2013-12-11 13:55:00,29.0,13.6,30.10,SW,219,21.0,21.0,52,0.00,,OVC060,0.00,VWS V14.00,2013-12-11 18:55:00,
2013-12-11 13:56:00,29.0,12.2,30.10,SSW,199,7.0,21.0,49,0.00,,OVC060,0.00,VWS V14.00,2013-12-11 18:56:00,
2013-12-11 13:57:00,29.0,12.7,30.10,West,281,14.0,21.0,50,0.00,,OVC060,0.00,VWS V14.00,2013-12-11 18:57:00,
2013-12-11 13:58:00,29.0,12.7,30.10,SW,226,14.0,21.0,50,0.00,,OVC060,0.00,VWS V14.00,2013-12-11 18:58:00,
2013-12-11 13:59:00,29.0,12.2,30.10,SW,224,10.0,21.0,49,0.00,,OVC060,0.00,VWS V14.00,2013-12-11 18:59:00,
2013-12-11 14:00:00,29.0,13.6,30.10,WSW,253,9.0,21.0,52,0.00,,OVC060,0.00,VWS V14.00,2013-12-11 19:00:00,
2013-12-11 14:01:00,29.1,12.8,30.10,SW,227,15.0,15.0,50,0.00,,OVC060,0.00,VWS V14.00,2013-12-11 19:01:00,
2013-12-11 14:02:00,29.2,13.3,30.10,SW,226,17.0,17.0,51,0.00,,OVC060,0.00,VWS V14.00,2013-12-11 19:02:00,
2013-12-11 14:03:00,29.3,14.3,30.10,SW,229,16.0,26.0,53,0.00,,OVC060,0.00,VWS V14.00,2013-12-11 19:03:00,
2013-12-11 14:04:00,29.4,15.2,30.10,SW,223,18.0,26.0,55,0.00,,OVC060,0.00,VWS V14.00,2013-12-11 19:04:00,
2013-12-11 14:05:00,29.4,13.1,30.10,SW,218,24.0,26.0,50,0.00,,OVC060,0.00,VWS V14.00,2013-12-11 19:05:00,
2013-12-11 14:06:00,29.4,12.1,30.10,WSW,241,22.0,26.0,48,0.00,,OVC060,0.00,VWS V14.00,2013-12-11 19:06:00,
2013-12-11 14:07:00,29.3,13.4,30.10,WSW,237,21.0,26.0,51,0.00,,OVC060,0.00,VWS V14.00,2013-12-11 19:07:00,
2013-12-11 14:08:00,29.1,11.4,30.10,SW,228,23.0,26.0,47,0.00,,OVC060,0.00,VWS V14.00,2013-12-11 19:08:00,
2013-12-11 14:09:00,29.0,12.2,30.10,WSW,254,17.0,26.0,49,0.00,,OVC060,0.00,VWS V14.00,2013-12-11 19:09:00,
2013-12-11 14:10:00,29.0,12.7,30.11,SW,222,19.0,26.0,50,0.00,,OVC060,0.00,VWS V14.00,2013-12-11 19:10:00,
2013-12-11 14:11:00,29.0,12.7,30.10,WSW,258,9.0,23.0,50,0.00,,OVC060,0.00,VWS V14.00,2013-12-11 19:11:00,
2013-12-11 14:12:00,29.0,11.8,30.11,SW,236,14.0,23.0,48,0.00,,OVC060,0.00,VWS V14.00,2013-12-11 19:12:00,
2013-12-11 14:13:00,29.1,12.8,30.10,WSW,240,12.0,23.0,50,0.00,,OVC060,0.00,VWS V14.00,2013-12-11 19:13:00,
2013-12-11 14:14:00,29.1,11.9,30.10,SSW,212,22.0,23.0,48,0.00,,OVC060,0.00,VWS V14.00,2013-12-11 19:14:00,
2013-12-11 14:15:00,29.1,13.7,30.11,WSW,239,13.0,23.0,52,0.00,,OVC060,0.00,VWS V14.00,2013-12-11 19:15:00,
2013-12-11 14:16:00,29.1,14.1,30.11,West,259,11.0,27.0,53,0.00,,OVC060,0.00,VWS V14.00,2013-12-11 19:16:00,
2013-12-11 14:17:00,29.0,12.2,30.11,WSW,250,21.0,27.0,49,0.00,,OVC060,0.00,VWS V14.00,2013-12-11 19:17:00,
2013-12-11 14:18:00,29.0,11.3,30.11,SW,223,18.0,27.0,47,0.00,,OVC060,0.00,VWS V14.00,2013-12-11 19:18:00,
2013-12-11 14:19:00,29.0,12.2,30.11,SSW,211,20.0,27.0,49,0.00,,OVC060,0.00,VWS V14.00,2013-12-11 19:19:00,
2013-12-11 14:20:00,29.1,11.9,30.10,WSW,240,16.0,27.0,48,0.00,,OVC060,0.00,VWS V14.00,2013-12-11 19:20:00,
2013-12-11 14:21:00,29.0,11.8,30.11,SW,224,25.0,25.0,48,0.00,,OVC060,0.00,VWS V14.00,2013-12-11 19:21:00,
2013-12-11 14:22:00,28.9,11.7,30.11,WSW,238,20.0,26.0,48,0.00,,OVC060,0.00,VWS V14.00,2013-12-11 19:22:00,
2013-12-11 14:23:00,28.9,11.2,30.11,WSW,246,18.0,26.0,47,0.00,,OVC060,0.00,VWS V14.00,2013-12-11 19:23:00,
2013-12-11 14:24:00,28.8,11.6,30.11,SW,220,26.0,26.0,48,0.00,,OVC060,0.00,VWS V14.00,2013-12-11 19:24:00,
2013-12-11 14:25:00,28.8,11.6,30.11,SW,235,12.0,26.0,48,0.00,,OVC060,0.00,VWS V14.00,2013-12-11 19:25:00,
2013-12-11 14:26:00,28.8,12.5,30.11,WSW,256,14.0,26.0,50,0.00,,OVC060,0.00,VWS V14.00,2013-12-11 19:26:00,
2013-12-11 14:27:00,28.9,11.2,30.11,West,264,12.0,26.0,47,0.00,,OVC060,0.00,VWS V14.00,2013-12-11 19:27:00,
2013-12-11 14:28:00,28.8,11.6,30.11,WSW,243,15.0,26.0,48,0.00,,OVC060,0.00,VWS V14.00,2013-12-11 19:28:00,
2013-12-11 14:29:00,28.9,13.1,30.11,WSW,242,15.0,26.0,51,0.00,,OVC060,0.00,VWS V14.00,2013-12-11 19:29:00,
2013-12-11 14:30:00,28.9,11.7,30.11,WSW,242,12.0,26.0,48,0.00,,OVC060,0.00,VWS V14.00,2013-12-11 19:30:00,
2013-12-11 14:31:00,28.8,11.1,30.11,SW,227,14.0,15.0,47,0.00,,OVC060,0.00,VWS V14.00,2013-12-11 19:31:00,
2013-12-11 14:32:00,28.9,12.6,30.11,SW,224,18.0,22.0,50,0.00,,OVC060,0.00,VWS V14.00,2013-12-11 19:32:00,
2013-12-11 14:33:00,28.9,12.6,30.11,SSW,211,20.0,24.0,50,0.00,,OVC060,0.00,VWS V14.00,2013-12-11 19:33:00,
2013-12-11 14:34:00,28.9,11.2,30.11,SW,222,23.0,24.0,47,0.00,,OVC060,0.00,VWS V14.00,2013-12-11 19:34:00,
2013-12-11 14:35:00,29.0,12.2,30.11,WSW,245,17.0,24.0,49,0.00,,OVC060,0.00,VWS V14.00,2013-12-11 19:35:00,
2013-12-11 14:36:00,29.1,12.8,30.11,SW,217,16.0,24.0,50,0.00,,OVC060,0.00,VWS V14.00,2013-12-11 19:36:00,
2013-12-11 14:37:00,29.1,11.4,30.11,SW,230,16.0,24.0,47,0.00,,OVC060,0.00,VWS V14.00,2013-12-11 19:37:00,
2013-12-11 14:38:00,29.2,12.4,30.11,West,265,18.0,24.0,49,0.00,,OVC060,0.00,VWS V14.00,2013-12-11 19:38:00,
2013-12-11 14:39:00,29.2,12.4,30.11,WSW,254,9.0,24.0,49,0.00,,OVC060,0.00,VWS V14.00,2013-12-11 19:39:00,
2013-12-11 14:40:00,29.3,11.6,30.11,SSW,207,14.0,24.0,47,0.00,,OVC060,0.00,VWS V14.00,2013-12-11 19:40:00,
2013-12-11 14:41:00,29.3,12.5,30.11,SW,229,13.0,16.0,49,0.00,,OVC060,0.00,VWS V14.00,2013-12-11 19:41:00,
2013-12-11 14:42:00,29.3,12.1,30.11,SW,217,16.0,18.0,48,0.00,,OVC060,0.00,VWS V14.00,2013-12-11 19:42:00,
2013-12-11 14:43:00,29.3,11.6,30.11,SW,233,15.0,18.0,47,0.00,,OVC060,0.00,VWS V14.00,2013-12-11 19:43:00,
2013-12-11 14:44:00,29.2,12.0,30.11,SW,227,18.0,23.0,48,0.00,,OVC060,0.00,VWS V14.00,2013-12-11 19:44:00,
2013-12-11 14:45:00,29.3,13.9,30.11,SW,225,24.0,24.0,52,0.00,,OVC060,0.00,VWS V14.00,2013-12-11 19:45:00,
2013-12-11 14:46:00,29.3,12.1,30.11,SW,226,17.0,24.0,48,0.00,,OVC060,0.00,VWS V14.00,2013-12-11 19:46:00,
2013-12-11 14:47:00,29.2,13.3,30.11,SW,227,20.0,24.0,51,0.00,,OVC060,0.00,VWS V14.00,2013-12-11 19:47:00,
2013-12-11 14:48:00,29.2,13.8,30.11,SW,222,26.0,32.0,52,0.00,,BKN060,0.00,VWS V14.00,2013-12-11 19:48:00,
2013-12-11 14:49:00,29.2,12.0,30.12,WSW,254,19.0,32.0,48,0.00,,BKN060,0.00,VWS V14.00,2013-12-11 19:49:00,
2013-12-11 14:50:00,29.0,11.3,30.12,WSW,242,20.0,32.0,47,0.00,,BKN060,0.00,VWS V14.00,2013-12-11 19:50:00,
2013-12-11 14:51:00,28.9,11.7,30.12,WSW,248,15.0,23.0,48,0.00,,BKN060,0.00,VWS V14.00,2013-12-11 19:51:00,
2013-12-11 14:52:00,28.8,11.1,30.12,WSW,243,17.0,23.0,47,0.00,,BKN060,0.00,VWS V14.00,2013-12-11 19:52:00,
2013-12-11 14:53:00,28.8,12.1,30.12,WSW,237,18.0,23.0,49,0.00,,BKN060,0.00,VWS V14.00,2013-12-11 19:53:00,
2013-12-11 14:54:00,28.8,11.6,30.12,SSW,211,20.0,23.0,48,0.00,,BKN060,0.00,VWS V14.00,2013-12-11 19:54:00,
2013-12-11 14:55:00,28.8,12.1,30.12,SW,225,19.0,23.0,49,0.00,,BKN060,0.00,VWS V14.00,2013-12-11 19:55:00,
2013-12-11 14:56:00,28.8,12.1,30.12,West,262,11.0,23.0,49,0.00,,BKN060,0.00,VWS V14.00,2013-12-11 19:56:00,
2013-12-11 14:57:00,28.8,12.5,30.12,WSW,249,12.0,23.0,50,0.00,,BKN060,0.00,VWS V14.00,2013-12-11 19:57:00,
2013-12-11 14:58:00,28.8,12.1,30.12,WSW,246,14.0,23.0,49,0.00,,BKN060,0.00,VWS V14.00,2013-12-11 19:58:00,
2013-12-11 14:59:00,28.8,11.6,30.12,SW,235,12.0,23.0,48,0.00,,BKN060,0.00,VWS V14.00,2013-12-11 19:59:00,
2013-12-11 15:00:00,28.8,12.1,30.12,SW,222,22.0,23.0,49,0.00,,BKN060,0.00,VWS V14.00,2013-12-11 20:00:00,
2013-12-11 15:01:00,28.8,12.5,30.12,WSW,241,18.0,22.0,50,0.00,,BKN060,0.00,VWS V14.00,2013-12-11 20:01:00,
2013-12-11 15:02:00,28.7,12.0,30.12,SW,230,20.0,22.0,49,0.00,,BKN060,0.00,VWS V14.00,2013-12-11 20:02:00,
2013-12-11 15:03:00,28.7,11.5,30.12,SW,218,22.0,22.0,48,0.00,,BKN060,0.00,VWS V14.00,2013-12-11 20:03:00,
2013-12-11 15:04:00,28.7,11.0,30.12,WNW,290,17.0,24.0,47,0.00,,BKN060,0.00,VWS V14.00,2013-12-11 20:04:00,
2013-12-11 15:05:00,28.6,10.9,30.12,SSW,211,17.0,25.0,47,0.00,,BKN060,0.00,VWS V14.00,2013-12-11 20:05:00,
2013-12-11 15:06:00,28.6,11.4,30.12,WSW,241,21.0,27.0,48,0.00,,BKN060,0.00,VWS V14.00,2013-12-11 20:06:00,
2013-12-11 15:07:00,28.5,10.9,30.12,West,261,21.0,27.0,47,0.00,,BKN060,0.00,VWS V14.00,2013-12-11 20:07:00,
2013-12-11 15:08:00,28.4,10.8,30.12,West,273,13.0,27.0,47,0.00,,BKN060,0.00,VWS V14.00,2013-12-11 20:08:00,
2013-12-11 15:09:00,28.4,11.2,30.13,West,260,15.0,27.0,48,0.00,,BKN060,0.00,VWS V14.00,2013-12-11 20:09:00,
2013-12-11 15:10:00,28.4,11.2,30.12,SW,214,16.0,27.0,48,0.00,,BKN060,0.00,VWS V14.00,2013-12-11 20:10:00,
2013-12-11 15:11:00,28.4,11.2,30.13,WSW,257,14.0,19.0,48,0.00,,BKN060,0.00,VWS V14.00,2013-12-11 20:11:00,
2013-12-11 15:12:00,28.4,11.2,30.13,WSW,254,15.0,19.0,48,0.00,,BKN060,0.00,VWS V14.00,2013-12-11 20:12:00,
2013-12-11 15:13:00,28.4,11.7,30.12,SW,234,19.0,19.0,49,0.00,,BKN060,0.00,VWS V14.00,2013-12-11 20:13:00,
2013-12-11 15:14:00,28.3,11.1,30.12,WSW,250,16.0,23.0,48,0.00,,BKN060,0.00,VWS V14.00,2013-12-11 20:14:00,
2013-12-11 15:15:00,28.4,12.1,30.13,West,277,16.0,23.0,50,0.00,,BKN060,0.00,VWS V14.00,2013-12-11 20:15:00,
2013-12-11 15:16:00,28.3,10.7,30.12,West,273,13.0,23.0,47,0.00,,BKN060,0.00,VWS V14.00,2013-12-11 20:16:00,
2013-12-11 15:17:00,28.3,11.1,30.13,WSW,252,15.0,23.0,48,0.00,,BKN060,0.00,VWS V14.00,2013-12-11 20:17:00,
2013-12-11 15:18:00,28.3,11.6,30.12,WSW,240,17.0,23.0,49,0.00,,BKN060,0.00,VWS V14.00,2013-12-11 20:18:00,
2013-12-11 15:19:00,28.2,10.6,30.12,SW,225,7.0,23.0,47,0.00,,BKN060,0.00,VWS V14.00,2013-12-11 20:19:00,
2013-12-11 15:20:00,28.2,11.0,30.12,West,266,11.0,23.0,48,0.00,,BKN060,0.00,VWS V14.00,2013-12-11 20:20:00,
2013-12-11 15:21:00,28.2,11.5,30.12,West,273,10.0,15.0,49,0.00,,BKN060,0.00,VWS V14.00,2013-12-11 20:21:00,
2013-12-11 15:22:00,28.2,11.0,30.13,West,279,15.0,17.0,48,0.00,,BKN060,0.00,VWS V14.00,2013-12-11 20:22:00,
2013-12-11 15:23:00,28.2,11.0,30.13,WNW,282,18.0,22.0,48,0.00,,BKN060,0.00,VWS V14.00,2013-12-11 20:23:00,
2013-12-11 15:24:00,28.2,11.0,30.13,WSW,252,8.0,22.0,48,0.00,,BKN060,0.00,VWS V14.00,2013-12-11 20:24:00,
2013-12-11 15:25:00,28.1,10.9,30.13,West,273,14.0,22.0,48,0.00,,BKN060,0.00,VWS V14.00,2013-12-11 20:25:00,
2013-12-11 15:26:00,28.2,11.5,30.13,West,273,10.0,22.0,49,0.00,,BKN060,0.00,VWS V14.00,2013-12-11 20:26:00,
2013-12-11 15:27:00,28.2,11.5,30.13,WSW,237,18.0,22.0,49,0.00,,BKN060,0.00,VWS V14.00,2013-12-11 20:27:00,
2013-12-11 15:28:00,28.3,12.1,30.12,West,263,19.0,22.0,50,0.00,,BKN060,0.00,VWS V14.00,2013-12-11 20:28:00,
2013-12-11 15:29:00,28.3,12.1,30.12,WSW,248,10.0,22.0,50,0.00,,BKN060,0.00,VWS V14.00,2013-12-11 20:29:00,
2013-12-11 15:30:00,28.4,12.1,30.12,WSW,239,16.0,22.0,50,0.00,,BKN060,0.00,VWS V14.00,2013-12-11 20:30:00,
2013-12-11 15:31:00,28.4,11.7,30.12,SW,226,11.0,18.0,49,0.00,,BKN060,0.00,VWS V14.00,2013-12-11 20:31:00,
2013-12-11 15:32:00,28.4,11.7,30.13,WNW,300,7.0,18.0,49,0.00,,BKN060,0.00,VWS V14.00,2013-12-11 20:32:00,
2013-12-11 15:33:00,28.4,11.7,30.13,West,280,15.0,18.0,49,0.00,,BKN060,0.00,VWS V14.00,2013-12-11 20:33:00,
2013-12-11 15:34:00,28.4,11.7,30.13,West,277,12.0,18.0,49,0.00,,BKN060,0.00,VWS V14.00,2013-12-11 20:34:00,
2013-12-11 15:35:00,28.4,11.7,30.13,WNW,289,14.0,18.0,49,0.00,,BKN060,0.00,VWS V14.00,2013-12-11 20:35:00,
2013-12-11 15:36:00,28.4,11.7,30.13,WSW,245,8.0,18.0,49,0.00,,BKN060,0.00,VWS V14.00,2013-12-11 20:36:00,
2013-12-11 15:37:00,28.4,12.6,30.13,West,280,6.0,18.0,51,0.00,,BKN060,0.00,VWS V14.00,2013-12-11 20:37:00,
2013-12-11 15:38:00,28.3,11.6,30.13,WSW,248,12.0,18.0,49,0.00,,BKN060,0.00,VWS V14.00,2013-12-11 20:38:00,
2013-12-11 15:39:00,28.3,11.1,30.13,West,275,13.0,18.0,48,0.00,,BKN060,0.00,VWS V14.00,2013-12-11 20:39:00,
2013-12-11 15:40:00,28.2,11.0,30.13,WSW,244,13.0,18.0,48,0.00,,BKN060,0.00,VWS V14.00,2013-12-11 20:40:00,
2013-12-11 15:41:00,28.2,10.6,30.13,SW,234,10.0,10.0,47,0.00,,BKN060,0.00,VWS V14.00,2013-12-11 20:41:00,
2013-12-11 15:42:00,28.1,10.9,30.13,WSW,255,6.0,12.0,48,0.00,,BKN060,0.00,VWS V14.00,2013-12-11 20:42:00,
2013-12-11 15:43:00,28.2,11.5,30.13,West,267,10.0,12.0,49,0.00,,BKN060,0.00,VWS V14.00,2013-12-11 20:43:00,
2013-12-11 15:44:00,28.2,12.0,30.14,West,272,9.0,12.0,50,0.00,,BKN060,0.00,VWS V14.00,2013-12-11 20:44:00,
2013-12-11 15:45:00,28.2,12.4,30.13,SW,236,7.0,12.0,51,0.00,,BKN060,0.00,VWS V14.00,2013-12-11 20:45:00,
2013-12-11 15:46:00,28.2,12.4,30.13,SW,229,12.0,15.0,51,0.00,,BKN060,0.00,VWS V14.00,2013-12-11 20:46:00,
2013-12-11 15:47:00,28.3,12.5,30.13,West,279,6.0,15.0,51,0.00,,BKN060,0.00,VWS V14.00,2013-12-11 20:47:00,
2013-12-11 15:48:00,28.3,12.5,30.13,WSW,250,10.0,15.0,51,0.00,,OVC060,0.00,VWS V14.00,2013-12-11 20:48:00,
2013-12-11 15:49:00,28.3,12.5,30.14,SW,229,12.0,15.0,51,0.00,,OVC060,0.00,VWS V14.00,2013-12-11 20:49:00,
2013-12-11 15:50:00,28.2,12.0,30.14,West,263,7.0,15.0,50,0.00,,OVC060,0.00,VWS V14.00,2013-12-11 20:50:00,
2013-12-11 15:51:00,28.2,12.4,30.14,WSW,240,7.0,12.0,51,0.00,,OVC060,0.00,VWS V14.00,2013-12-11 20:51:00,
2013-12-11 15:52:00,28.2,12.4,30.14,West,263,8.0,12.0,51,0.00,,OVC060,0.00,VWS V14.00,2013-12-11 20:52:00,
2013-12-11 15:53:00,28.2,12.4,30.14,West,259,7.0,12.0,51,0.00,,OVC060,0.00,VWS V14.00,2013-12-11 20:53:00,
2013-12-11 15:54:00,28.2,12.4,30.14,West,263,9.0,12.0,51,0.00,,OVC060,0.00,VWS V14.00,2013-12-11 20:54:00,
2013-12-11 15:55:00,28.2,13.7,30.14,WSW,249,8.0,12.0,54,0.00,,OVC060,0.00,VWS V14.00,2013-12-11 20:55:00,
2013-12-11 15:56:00,28.3,14.6,30.14,West,275,5.0,12.0,56,0.00,,OVC060,0.00,VWS V14.00,2013-12-11 20:56:00,
2013-12-11 15:57:00,28.3,13.4,30.14,WSW,246,4.0,12.0,53,0.00,,OVC060,0.00,VWS V14.00,2013-12-11 20:57:00,
2013-12-11 15:58:00,28.3,12.5,30.14,WNW,284,13.0,13.0,51,0.00,,OVC060,0.00,VWS V14.00,2013-12-11 20:58:00,
2013-12-11 15:59:00,28.1,11.9,30.14,West,273,13.0,14.0,50,0.00,,OVC060,0.00,VWS V14.00,2013-12-11 20:59:00,
2013-12-11 16:00:00,28.0,11.3,30.14,WNW,286,10.0,16.0,49,0.00,,OVC060,0.00,VWS V14.00,2013-12-11 21:00:00,
2013-12-11 16:01:00,27.9,11.2,30.14,WNW,302,12.0,16.0,49,0.00,,OVC060,0.00,VWS V14.00,2013-12-11 21:01:00,
2013-12-11 16:02:00,27.9,12.6,30.14,WNW,286,14.0,16.0,52,0.00,,OVC060,0.00,VWS V14.00,2013-12-11 21:02:00,
2013-12-11 16:03:00,27.8,11.6,30.14,West,276,9.0,16.0,50,0.00,,OVC060,0.00,VWS V14.00,2013-12-11 21:03:00,
2013-12-11 16:04:00,27.8,11.6,30.14,West,276,7.0,16.0,50,0.00,,OVC060,0.00,VWS V14.00,2013-12-11 21:04:00,
2013-12-11 16:05:00,27.8,12.0,30.14,West,262,7.0,16.0,51,0.00,,OVC060,0.00,VWS V14.00,2013-12-11 21:05:00,
2013-12-11 16:06:00,27.8,12.5,30.14,WSW,246,6.0,16.0,52,0.00,,OVC060,0.00,VWS V14.00,2013-12-11 21:06:00,
2013-12-11 16:07:00,27.8,12.0,30.14,WSW,257,8.0,16.0,51,0.00,,OVC060,0.00,VWS V14.00,2013-12-11 21:07:00,
2013-12-11 16:08:00,27.8,12.0,30.14,WSW,240,5.0,16.0,51,0.00,,OVC060,0.00,VWS V14.00,2013-12-11 21:08:00,
2013-12-11 16:09:00,27.8,12.5,30.14,SW,230,13.0,16.0,52,0.00,,OVC060,0.00,VWS V14.00,2013-12-11 21:09:00,
2013-12-11 16:10:00,27.8,13.3,30.14,West,269,7.0,16.0,54,0.00,,OVC060,0.00,VWS V14.00,2013-12-11 21:10:00,
2013-12-11 16:11:00,27.8,11.6,30.14,SW,236,20.0,20.0,50,0.00,,OVC060,0.00,VWS V14.00,2013-12-11 21:11:00,
2013-12-11 16:12:00,27.7,11.9,30.14,West,269,11.0,20.0,51,0.00,,OVC060,0.00,VWS V14.00,2013-12-11 21:12:00,
2013-12-11 16:13:00,27.6,12.7,30.14,SW,219,20.0,20.0,53,0.00,,OVC060,0.00,VWS V14.00,2013-12-11 21:13:00,
2013-12-11 16:14:00,27.6,11.4,30.14,West,271,12.0,20.0,50,0.00,,OVC060,0.00,VWS V14.00,2013-12-11 21:14:00,
2013-12-11 16:15:00,27.5,11.3,30.14,West,266,13.0,20.0,50,0.00,,OVC060,0.00,VWS V14.00,2013-12-11 21:15:00,
2013-12-11 16:16:00,27.4,10.8,30.14,West,269,17.0,20.0,49,0.00,,OVC060,0.00,VWS V14.00,2013-12-11 21:16:00,
2013-12-11 16:17:00,27.4,11.7,30.15,West,277,10.0,20.0,51,0.00,,OVC060,0.00,VWS V14.00,2013-12-11 21:17:00,
2013-12-11 16:18:00,27.4,11.7,30.14,SW,234,9.0,20.0,51,0.00,,OVC060,0.00,VWS V14.00,2013-12-11 21:18:00,
2013-12-11 16:19:00,27.3,11.6,30.14,West,261,8.0,20.0,51,0.00,,OVC060,0.00,VWS V14.00,2013-12-11 21:19:00,
2013-12-11 16:20:00,27.3,11.6,30.15,SW,230,13.0,20.0,51,0.00,,OVC060,0.00,VWS V14.00,2013-12-11 21:20:00,
2013-12-11 16:21:00,27.3,12.0,30.14,SW,236,10.0,12.0,52,0.00,,OVC060,0.00,VWS V14.00,2013-12-11 21:21:00,
2013-12-11 16:22:00,27.4,13.0,30.15,WSW,246,13.0,19.0,54,0.00,,OVC060,0.00,VWS V14.00,2013-12-11 21:22:00,
2013-12-11 16:23:00,27.4,12.1,30.15,SW,223,10.0,19.0,52,0.00,,OVC060,0.00,VWS V14.00,2013-12-11 21:23:00,
2013-12-11 16:24:00,27.4,13.0,30.14,SW,227,10.0,19.0,54,0.00,,OVC060,0.00,VWS V14.00,2013-12-11 21:24:00,
2013-12-11 16:25:00,27.4,13.4,30.14,WSW,254,10.0,19.0,55,0.00,,OVC060,0.00,VWS V14.00,2013-12-11 21:25:00,
2013-12-11 16:26:00,27.4,13.4,30.14,SW,232,17.0,22.0,55,0.00,,OVC060,0.00,VWS V14.00,2013-12-11 21:26:00,
2013-12-11 16:27:00,27.4,12.1,30.14,SW,223,16.0,22.0,52,0.00,,OVC060,0.00,VWS V14.00,2013-12-11 21:27:00,
2013-12-11 16:28:00,27.4,12.5,30.14,West,276,10.0,22.0,53,0.00,,OVC060,0.00,VWS V14.00,2013-12-11 21:28:00,
2013-12-11 16:29:00,27.3,12.9,30.14,WSW,237,7.0,22.0,54,0.00,,OVC060,0.00,VWS V14.00,2013-12-11 21:29:00,
2013-12-11 16:30:00,27.3,12.0,30.14,WSW,254,11.0,22.0,52,0.00,,OVC060,0.00,VWS V14.00,2013-12-11 21:30:00,
2013-12-11 16:31:00,27.3,13.3,30.14,WNW,290,14.0,14.0,55,0.00,,OVC060,0.00,VWS V14.00,2013-12-11 21:31:00,
2013-12-11 16:32:00,27.2,12.8,30.14,WSW,258,10.0,14.0,54,0.00,,OVC060,0.00,VWS V14.00,2013-12-11 21:32:00,
2013-12-11 16:33:00,27.2,12.4,30.14,West,281,9.0,14.0,53,0.00,,OVC060,0.00,VWS V14.00,2013-12-11 21:33:00,
2013-12-11 16:34:00,27.1,11.8,30.14,WNW,283,11.0,14.0,52,0.00,,OVC060,0.00,VWS V14.00,2013-12-11 21:34:00,
2013-12-11 16:35:00,27.1,11.8,30.14,West,266,10.0,14.0,52,0.00,,OVC060,0.00,VWS V14.00,2013-12-11 21:35:00,
2013-12-11 16:36:00,27.1,12.7,30.14,West,268,13.0,16.0,54,0.00,,OVC060,0.00,VWS V14.00,2013-12-11 21:36:00,
2013-12-11 16:37:00,27.1,12.2,30.14,WSW,257,13.0,17.0,53,0.00,,OVC060,0.00,VWS V14.00,2013-12-11 21:37:00,
2013-12-11 16:38:00,27.0,11.7,30.14,WNW,283,11.0,18.0,52,0.00,,OVC060,0.00,VWS V14.00,2013-12-11 21:38:00,
2013-12-11 16:39:00,26.9,12.1,30.14,WNW,288,9.0,18.0,53,0.00,,OVC060,0.00,VWS V14.00,2013-12-11 21:39:00,
2013-12-11 16:40:00,27.0,13.4,30.14,WNW,284,12.0,18.0,56,0.00,,OVC060,0.00,VWS V14.00,2013-12-11 21:40:00,
2013-12-11 16:41:00,27.0,12.6,30.14,West,279,7.0,14.0,54,0.00,,OVC060,0.00,VWS V14.00,2013-12-11 21:41:00,
2013-12-11 16:42:00,26.9,12.1,30.14,WNW,284,9.0,14.0,53,0.00,,OVC060,0.00,VWS V14.00,2013-12-11 21:42:00,
2013-12-11 16:43:00,26.9,12.1,30.14,WNW,303,12.0,14.0,53,0.00,,OVC060,0.00,VWS V14.00,2013-12-11 21:43:00,
2013-12-11 16:44:00,27.0,13.8,30.14,WNW,298,6.0,14.0,57,0.00,,OVC060,0.00,VWS V14.00,2013-12-11 21:44:00,
2013-12-11 16:45:00,26.9,12.9,30.14,West,273,10.0,14.0,55,0.00,,OVC060,0.00,VWS V14.00,2013-12-11 21:45:00,
2013-12-11 16:46:00,27.0,13.4,30.14,WSW,248,6.0,14.0,56,0.00,,OVC060,0.00,VWS V14.00,2013-12-11 21:46:00,
2013-12-11 16:47:00,27.0,13.0,30.14,SW,225,7.0,14.0,55,0.00,,OVC060,0.00,VWS V14.00,2013-12-11 21:47:00,
2013-12-11 16:48:00,27.0,13.8,30.14,West,264,9.0,14.0,57,0.00,,OVC060,0.00,VWS V14.00,2013-12-11 21:48:00,
2013-12-11 16:49:00,27.0,12.6,30.14,West,260,10.0,14.0,54,0.00,,OVC060,0.00,VWS V14.00,2013-12-11 21:49:00,
2013-12-11 16:50:00,27.0,12.6,30.14,West,260,7.0,14.0,54,0.00,,OVC060,0.00,VWS V14.00,2013-12-11 21:50:00,
2013-12-11 16:51:00,26.9,12.1,30.14,West,259,9.0,11.0,53,0.00,,OVC060,0.00,VWS V14.00,2013-12-11 21:51:00,
2013-12-11 16:52:00,26.9,12.1,30.14,SW,236,8.0,12.0,53,0.00,,OVC060,0.00,VWS V14.00,2013-12-11 21:52:00,
2013-12-11 16:53:00,26.9,12.5,30.14,SW,235,11.0,12.0,54,0.00,,OVC060,0.00,VWS V14.00,2013-12-11 21:53:00,
2013-12-11 16:54:00,26.9,12.9,30.14,WSW,248,6.0,12.0,55,0.00,,OVC060,0.00,VWS V14.00,2013-12-11 21:54:00,
2013-12-11 16:55:00,26.9,12.9,30.14,West,265,9.0,12.0,55,0.00,,OVC060,0.00,VWS V14.00,2013-12-11 21:55:00,
2013-12-11 16:56:00,26.9,12.5,30.14,WNW,282,14.0,14.0,54,0.00,,OVC060,0.00,VWS V14.00,2013-12-11 21:56:00,
2013-12-11 16:57:00,26.9,12.1,30.14,WSW,244,11.0,14.0,53,0.00,,OVC060,0.00,VWS V14.00,2013-12-11 21:57:00,
2013-12-11 16:58:00,26.9,12.5,30.14,SW,222,9.0,14.0,54,0.00,,OVC060,0.00,VWS V14.00,2013-12-11 21:58:00,
2013-12-11 16:59:00,26.9,12.9,30.14,West,277,11.0,15.0,55,0.00,,OVC060,0.00,VWS V14.00,2013-12-11 21:59:00,
2013-12-11 17:00:00,26.9,12.5,30.14,West,277,13.0,15.0,54,0.00,,OVC060,0.00,VWS V14.00,2013-12-11 22:00:00,
2013-12-11 17:01:00,26.9,12.5,30.13,West,267,8.0,11.0,54,0.00,,OVC060,0.00,VWS V14.00,2013-12-11 22:01:00,
2013-12-11 17:02:00,26.8,12.4,30.13,WNW,291,4.0,11.0,54,0.00,,OVC060,0.00,VWS V14.00,2013-12-11 22:02:00,
2013-12-11 17:03:00,26.7,12.3,30.14,WSW,255,4.0,11.0,54,0.00,,OVC060,0.00,VWS V14.00,2013-12-11 22:03:00,
2013-12-11 17:04:00,26.8,13.6,30.13,West,267,5.0,13.0,57,0.00,,OVC060,0.00,VWS V14.00,2013-12-11 22:04:00,
2013-12-11 17:05:00,26.8,13.6,30.14,West,275,7.0,13.0,57,0.00,,OVC060,0.00,VWS V14.00,2013-12-11 22:05:00,
2013-12-11 17:06:00,26.9,13.3,30.13,SW,230,9.0,13.0,56,0.00,,OVC060,0.00,VWS V14.00,2013-12-11 22:06:00,
2013-12-11 17:07:00,26.9,13.7,30.13,WSW,248,9.0,13.0,57,0.00,,OVC060,0.00,VWS V14.00,2013-12-11 22:07:00,
2013-12-11 17:08:00,26.9,13.7,30.14,SW,231,10.0,13.0,57,0.00,,OVC060,0.00,VWS V14.00,2013-12-11 22:08:00,
2013-12-11 17:09:00,26.9,13.7,30.13,SW,228,13.0,18.0,57,0.00,,OVC060,0.00,VWS V14.00,2013-12-11 22:09:00,
2013-12-11 17:10:00,26.9,12.5,30.13,SW,233,12.0,12.0,54,0.00,,OVC060,0.00,VWS V14.00,2013-12-11 22:10:00,
2013-12-11 17:11:00,26.8,12.8,30.13,WSW,244,11.0,12.0,55,0.00,,OVC060,0.00,VWS V14.00,2013-12-11 22:11:00,
2013-12-11 17:12:00,26.8,12.8,30.13,WSW,252,11.0,12.0,55,0.00,,OVC060,0.00,VWS V14.00,2013-12-11 22:12:00,
2013-12-11 17:13:00,26.7,12.3,30.13,West,263,13.0,13.0,54,0.00,,OVC060,0.00,VWS V14.00,2013-12-11 22:13:00,
2013-12-11 17:14:00,26.7,13.1,30.13,SW,230,12.0,13.0,56,0.00,,OVC060,0.00,VWS V14.00,2013-12-11 22:14:00,
2013-12-11 17:15:00,26.8,14.0,30.13,WSW,240,10.0,13.0,58,0.00,,OVC060,0.00,VWS V14.00,2013-12-11 22:15:00,
2013-12-11 17:16:00,26.8,13.2,30.13,WSW,237,11.0,13.0,56,0.00,,OVC060,0.00,VWS V14.00,2013-12-11 22:16:00,
2013-12-11 17:17:00,26.8,13.2,30.13,WSW,247,10.0,13.0,56,0.00,,OVC060,0.00,VWS V14.00,2013-12-11 22:17:00,
2013-12-11 17:18:00,26.7,13.1,30.13,SW,234,10.0,13.0,56,0.00,,OVC060,0.00,VWS V14.00,2013-12-11 22:18:00,
2013-12-11 17:19:00,26.7,13.5,30.13,WSW,241,12.0,13.0,57,0.00,,OVC060,0.00,VWS V14.00,2013-12-11 22:19:00,
2013-12-11 17:20:00,26.7,13.5,30.13,SW,215,15.0,15.0,57,0.00,,OVC060,0.00,VWS V14.00,2013-12-11 22:20:00,
2013-12-11 17:21:00,26.7,13.5,30.13,SW,215,15.0,15.0,57,0.00,,OVC060,0.00,VWS V14.00,2013-12-11 22:21:00,
2013-12-11 17:22:00,26.7,13.5,30.13,SW,231,12.0,16.0,57,0.00,,OVC060,0.00,VWS V14.00,2013-12-11 22:22:00,
2013-12-11 17:23:00,26.6,13.4,30.13,SW,225,13.0,18.0,57,0.00,,OVC060,0.00,VWS V14.00,2013-12-11 22:23:00,
2013-12-11 17:24:00,26.7,13.9,30.13,SW,228,17.0,18.0,58,0.00,,OVC060,0.00,VWS V14.00,2013-12-11 22:24:00,
2013-12-11 17:25:00,26.6,13.4,30.13,WSW,253,16.0,18.0,57,0.00,,OVC060,0.00,VWS V14.00,2013-12-11 22:25:00,
2013-12-11 17:26:00,26.6,13.0,30.13,WSW,238,11.0,18.0,56,0.00,,OVC060,0.00,VWS V14.00,2013-12-11 22:26:00,
2013-12-11 17:27:00,26.7,14.7,30.14,WSW,244,15.0,18.0,60,0.00,,OVC060,0.00,VWS V14.00,2013-12-11 22:27:00,
2013-12-11 17:28:00,26.6,13.0,30.13,WSW,238,10.0,18.0,56,0.00,,OVC060,0.00,VWS V14.00,2013-12-11 22:28:00,
2013-12-11 17:29:00,26.6,13.8,30.14,West,259,15.0,18.0,58,0.00,,OVC060,0.00,VWS V14.00,2013-12-11 22:29:00,
2013-12-11 17:30:00,26.6,13.0,30.13,West,276,7.0,18.0,56,0.00,,OVC060,0.00,VWS V14.00,2013-12-11 22:30:00,
2013-12-11 17:31:00,26.5,13.3,30.14,SW,232,11.0,13.0,57,0.00,,OVC060,0.00,VWS V14.00,2013-12-11 22:31:00,
2013-12-11 17:32:00,26.5,13.7,30.13,West,274,9.0,15.0,58,0.00,,OVC060,0.00,VWS V14.00,2013-12-11 22:32:00,
2013-12-11 17:33:00,26.5,13.7,30.14,SW,227,7.0,15.0,58,0.00,,OVC060,0.00,VWS V14.00,2013-12-11 22:33:00,
2013-12-11 17:34:00,26.5,13.7,30.14,WSW,237,10.0,15.0,58,0.00,,OVC060,0.00,VWS V14.00,2013-12-11 22:34:00,
2013-12-11 17:35:00,26.5,14.1,30.14,WSW,242,6.0,15.0,59,0.00,,OVC060,0.00,VWS V14.00,2013-12-11 22:35:00,
2013-12-11 17:36:00,26.5,14.1,30.14,WSW,254,8.0,15.0,59,0.00,,OVC060,0.00,VWS V14.00,2013-12-11 22:36:00,
2013-12-11 17:37:00,26.5,14.1,30.14,SW,227,6.0,15.0,59,0.00,,OVC060,0.00,VWS V14.00,2013-12-11 22:37:00,
2013-12-11 17:38:00,26.5,14.1,30.14,WSW,240,8.0,15.0,59,0.00,,OVC060,0.00,VWS V14.00,2013-12-11 22:38:00,
2013-12-11 17:39:00,26.4,14.0,30.14,WSW,253,11.0,15.0,59,0.00,,OVC060,0.00,VWS V14.00,2013-12-11 22:39:00,
2013-12-11 17:40:00,26.4,14.0,30.14,West,263,6.0,15.0,59,0.00,,OVC060,0.00,VWS V14.00,2013-12-11 22:40:00,
2013-12-11 17:41:00,26.3,13.6,30.14,SW,236,7.0,9.0,58,0.00,,OVC060,0.00,VWS V14.00,2013-12-11 22:41:00,
2013-12-11 17:42:00,26.3,13.6,30.14,WSW,254,9.0,13.0,58,0.00,,OVC060,0.00,VWS V14.00,2013-12-11 22:42:00,
2013-12-11 17:43:00,26.3,13.9,30.14,WSW,237,9.0,13.0,59,0.00,,OVC060,0.00,VWS V14.00,2013-12-11 22:43:00,
2013-12-11 17:44:00,26.3,14.7,30.14,WSW,244,5.0,13.0,61,0.00,,OVC060,0.00,VWS V14.00,2013-12-11 22:44:00,
2013-12-11 17:45:00,26.3,13.9,30.14,WSW,248,6.0,13.0,59,0.00,,OVC060,0.00,VWS V14.00,2013-12-11 22:45:00,
2013-12-11 17:46:00,26.2,13.8,30.14,WSW,254,7.0,13.0,59,0.00,,OVC060,0.00,VWS V14.00,2013-12-11 22:46:00,
2013-12-11 17:47:00,26.3,13.9,30.14,WSW,238,9.0,13.0,59,0.00,,OVC060,0.00,VWS V14.00,2013-12-11 22:47:00,
2013-12-11 17:48:00,26.3,14.3,30.14,WSW,257,7.0,13.0,60,0.00,,OVC036,0.00,VWS V14.00,2013-12-11 22:48:00,
2013-12-11 17:49:00,26.3,15.1,30.14,SW,236,12.0,14.0,62,0.00,,OVC036,0.00,VWS V14.00,2013-12-11 22:49:00,
2013-12-11 17:50:00,26.3,14.3,30.14,SW,225,12.0,14.0,60,0.00,,OVC036,0.00,VWS V14.00,2013-12-11 22:50:00,
2013-12-11 17:51:00,26.3,14.3,30.14,WSW,252,10.0,12.0,60,0.00,,OVC036,0.00,VWS V14.00,2013-12-11 22:51:00,
2013-12-11 17:52:00,26.3,13.9,30.14,SW,226,11.0,12.0,59,0.00,,OVC036,0.00,VWS V14.00,2013-12-11 22:52:00,
2013-12-11 17:53:00,26.2,13.8,30.14,SW,215,11.0,12.0,59,0.00,,OVC036,0.00,VWS V14.00,2013-12-11 22:53:00,
2013-12-11 17:54:00,26.3,14.7,30.14,SW,222,13.0,13.0,61,0.00,,OVC036,0.00,VWS V14.00,2013-12-11 22:54:00,
2013-12-11 17:55:00,26.3,14.3,30.14,WSW,253,12.0,13.0,60,0.00,,OVC036,0.00,VWS V14.00,2013-12-11 22:55:00,
2013-12-11 17:56:00,26.2,13.8,30.14,WSW,243,10.0,13.0,59,0.00,,OVC036,0.00,VWS V14.00,2013-12-11 22:56:00,
2013-12-11 17:57:00,26.3,14.7,30.14,WSW,239,8.0,13.0,61,0.00,,OVC036,0.00,VWS V14.00,2013-12-11 22:57:00,
2013-12-11 17:58:00,26.2,14.6,30.14,SSW,207,11.0,13.0,61,0.00,,OVC036,0.00,VWS V14.00,2013-12-11 22:58:00,
2013-12-11 17:59:00,26.3,15.1,30.14,WSW,249,10.0,13.0,62,0.00,,OVC036,0.00,VWS V14.00,2013-12-11 22:59:00,
2013-12-11 18:00:00,26.3,14.7,30.14,WSW,250,12.0,13.0,61,0.00,,OVC036,0.00,VWS V14.00,2013-12-11 23:00:00,
2013-12-11 18:01:00,26.4,15.2,30.14,SW,230,12.0,12.0,62,0.00,,OVC036,0.00,VWS V14.00,2013-12-11 23:01:00,
2013-12-11 18:02:00,26.4,15.5,30.14,WSW,252,9.0,12.0,63,0.00,,OVC036,0.00,VWS V14.00,2013-12-11 23:02:00,
2013-12-11 18:03:00,26.4,14.8,30.14,WSW,250,9.0,12.0,61,0.00,,OVC036,0.00,VWS V14.00,2013-12-11 23:03:00,
2013-12-11 18:04:00,26.3,14.3,30.14,WSW,252,6.0,12.0,60,0.00,,OVC036,0.00,VWS V14.00,2013-12-11 23:04:00,
2013-12-11 18:05:00,26.3,14.3,30.14,WSW,240,9.0,12.0,60,0.00,,OVC036,0.00,VWS V14.00,2013-12-11 23:05:00,
2013-12-11 18:06:00,26.3,14.7,30.14,SW,233,10.0,12.0,61,0.00,,OVC036,0.00,VWS V14.00,2013-12-11 23:06:00,
2013-12-11 18:07:00,26.3,15.1,30.14,WSW,253,9.0,12.0,62,0.00,,OVC036,0.00,VWS V14.00,2013-12-11 23:07:00,
2013-12-11 18:08:00,26.3,14.7,30.14,SW,228,7.0,12.0,61,0.00,,OVC036,0.00,VWS V14.00,2013-12-11 23:08:00,
2013-12-11 18:09:00,26.3,14.7,30.14,West,265,7.0,12.0,61,0.00,,OVC036,0.00,VWS V14.00,2013-12-11 23:09:00,
2013-12-11 18:10:00,26.2,14.2,30.14,SW,227,9.0,12.0,60,0.00,,OVC036,0.00,VWS V14.00,2013-12-11 23:10:00,
2013-12-11 18:11:00,26.3,15.4,30.14,SW,234,8.0,12.0,63,0.00,,OVC036,0.00,VWS V14.00,2013-12-11 23:11:00,
2013-12-11 18:12:00,26.3,15.1,30.14,WSW,243,6.0,12.0,62,0.00,,OVC036,0.00,VWS V14.00,2013-12-11 23:12:00,
2013-12-11 18:13:00,26.3,15.1,30.14,SW,232,12.0,12.0,62,0.00,,OVC036,0.00,VWS V14.00,2013-12-11 23:13:00,
2013-12-11 18:14:00,26.3,14.7,30.14,SW,234,12.0,13.0,61,0.00,,OVC036,0.00,VWS V14.00,2013-12-11 23:14:00,
2013-12-11 18:15:00,26.4,15.2,30.14,SW,227,12.0,14.0,62,0.00,,OVC036,0.00,VWS V14.00,2013-12-11 23:15:00,
2013-12-11 18:16:00,26.5,15.6,30.14,SW,234,11.0,14.0,63,0.00,,OVC036,0.00,VWS V14.00,2013-12-11 23:16:00,
2013-12-11 18:17:00,26.6,15.7,30.14,WSW,258,9.0,14.0,63,0.00,,OVC036,0.00,VWS V14.00,2013-12-11 23:17:00,
2013-12-11 18:18:00,26.5,15.3,30.14,SW,236,12.0,14.0,62,0.00,,OVC036,0.00,VWS V14.00,2013-12-11 23:18:00,
2013-12-11 18:19:00,26.5,14.9,30.14,SW,227,12.0,14.0,61,0.00,,OVC036,0.00,VWS V14.00,2013-12-11 23:19:00,
2013-12-11 18:20:00,26.6,15.7,30.14,WSW,237,11.0,14.0,63,0.00,,OVC036,0.00,VWS V14.00,2013-12-11 23:20:00,
2013-12-11 18:21:00,26.6,15.4,30.14,West,265,12.0,12.0,62,0.00,,OVC036,0.00,VWS V14.00,2013-12-11 23:21:00,
2013-12-11 18:22:00,26.6,15.4,30.14,SW,225,11.0,14.0,62,0.00,,OVC036,0.00,VWS V14.00,2013-12-11 23:22:00,
2013-12-11 18:23:00,26.6,15.0,30.14,SW,230,11.0,14.0,61,0.00,,OVC036,0.00,VWS V14.00,2013-12-11 23:23:00,
2013-12-11 18:24:00,26.6,15.4,30.14,SW,228,11.0,14.0,62,0.00,,OVC036,0.00,VWS V14.00,2013-12-11 23:24:00,
2013-12-11 18:25:00,26.7,15.4,30.14,WSW,252,12.0,14.0,62,0.00,,OVC036,0.00,VWS V14.00,2013-12-11 23:25:00,
2013-12-11 18:26:00,26.6,15.0,30.14,WSW,239,11.0,14.0,61,0.00,,OVC036,0.00,VWS V14.00,2013-12-11 23:26:00,
2013-12-11 18:27:00,26.6,15.4,30.14,WSW,241,9.0,14.0,62,0.00,,OVC036,0.00,VWS V14.00,2013-12-11 23:27:00,
2013-12-11 18:28:00,26.6,15.4,30.14,SW,223,11.0,14.0,62,0.00,,OVC036,0.00,VWS V14.00,2013-12-11 23:28:00,
2013-12-11 18:29:00,26.6,17.5,30.14,West,261,11.0,14.0,68,0.00,,OVC036,0.00,VWS V14.00,2013-12-11 23:29:00,
2013-12-11 18:30:00,26.7,15.8,30.14,WSW,238,12.0,14.0,63,0.00,,OVC036,0.00,VWS V14.00,2013-12-11 23:30:00,
2013-12-11 18:31:00,26.7,15.8,30.14,SW,226,13.0,14.0,63,0.00,,OVC036,0.00,VWS V14.00,2013-12-11 23:31:00,
2013-12-11 18:32:00,26.6,15.4,30.14,WSW,239,10.0,14.0,62,0.00,,OVC036,0.00,VWS V14.00,2013-12-11 23:32:00,
2013-12-11 18:33:00,26.6,16.1,30.14,SW,227,10.0,14.0,64,0.00,,OVC036,0.00,VWS V14.00,2013-12-11 23:33:00,
2013-12-11 18:34:00,26.6,15.7,30.14,SW,225,12.0,14.0,63,0.00,,OVC036,0.00,VWS V14.00,2013-12-11 23:34:00,
2013-12-11 18:35:00,26.6,15.0,30.14,SW,225,13.0,19.0,61,0.00,,OVC036,0.00,VWS V14.00,2013-12-11 23:35:00,
2013-12-11 18:36:00,26.6,15.0,30.14,SW,225,13.0,19.0,61,0.00,,OVC036,0.00,VWS V14.00,2013-12-11 23:36:00,
2013-12-11 18:37:00,26.6,15.4,30.14,WSW,238,13.0,19.0,62,0.00,,OVC036,0.00,VWS V14.00,2013-12-11 23:37:00,
2013-12-11 18:38:00,26.6,15.4,30.14,WSW,240,15.0,19.0,62,0.00,,OVC036,0.00,VWS V14.00,2013-12-11 23:38:00,
2013-12-11 18:39:00,26.6,15.4,30.14,WSW,258,16.0,19.0,62,0.00,,OVC036,0.00,VWS V14.00,2013-12-11 23:39:00,
2013-12-11 18:40:00,26.5,14.9,30.14,SW,236,13.0,19.0,61,0.00,,OVC036,0.00,VWS V14.00,2013-12-11 23:40:00,
2013-12-11 18:41:00,26.5,15.3,30.14,SW,229,12.0,16.0,62,0.00,,OVC036,0.00,VWS V14.00,2013-12-11 23:41:00,
2013-12-11 18:42:00,26.3,14.7,30.14,WSW,238,12.0,16.0,61,0.00,,OVC036,0.00,VWS V14.00,2013-12-11 23:42:00,
2013-12-11 18:43:00,26.3,14.7,30.14,WSW,244,10.0,16.0,61,0.00,,OVC036,0.00,VWS V14.00,2013-12-11 23:43:00,
2013-12-11 18:44:00,26.2,14.6,30.14,WSW,239,10.0,16.0,61,0.00,,OVC036,0.00,VWS V14.00,2013-12-11 23:44:00,
2013-12-11 18:45:00,26.3,15.1,30.14,SW,225,14.0,16.0,62,0.00,,OVC036,0.00,VWS V14.00,2013-12-11 23:45:00,
2013-12-11 18:46:00,26.3,15.1,30.14,SW,235,10.0,17.0,62,0.00,,OVC036,0.00,VWS V14.00,2013-12-11 23:46:00,
2013-12-11 18:47:00,26.3,14.7,30.14,West,264,9.0,17.0,61,0.00,,OVC036,0.00,VWS V14.00,2013-12-11 23:47:00,
2013-12-11 18:48:00,26.3,14.7,30.14,WSW,241,11.0,17.0,61,0.00,,BKN070,0.00,VWS V14.00,2013-12-11 23:48:00,
2013-12-11 18:49:00,26.3,15.1,30.14,West,269,9.0,17.0,62,0.00,,BKN070,0.00,VWS V14.00,2013-12-11 23:49:00,
2013-12-11 18:50:00,26.3,15.4,30.14,WSW,248,5.0,17.0,63,0.00,,BKN070,0.00,VWS V14.00,2013-12-11 23:50:00,
2013-12-11 18:51:00,26.3,14.7,30.14,SW,235,10.0,13.0,61,0.00,,BKN070,0.00,VWS V14.00,2013-12-11 23:51:00,
2013-12-11 18:52:00,26.2,15.0,30.14,SW,223,13.0,13.0,62,0.00,,BKN070,0.00,VWS V14.00,2013-12-11 23:52:00,
2013-12-11 18:53:00,26.3,15.1,30.14,West,269,16.0,17.0,62,0.00,,BKN070,0.00,VWS V14.00,2013-12-11 23:53:00,
2013-12-11 18:54:00,26.2,14.2,30.14,WSW,244,5.0,17.0,60,0.00,,BKN070,0.00,VWS V14.00,2013-12-11 23:54:00,
2013-12-11 18:55:00,26.2,14.6,30.14,West,269,6.0,17.0,61,0.00,,BKN070,0.00,VWS V14.00,2013-12-11 23:55:00,
2013-12-11 18:56:00,26.2,14.6,30.14,West,266,6.0,17.0,61,0.00,,BKN070,0.00,VWS V14.00,2013-12-11 23:56:00,
2013-12-11 18:57:00,26.2,14.6,30.14,West,280,11.0,17.0,61,0.00,,BKN070,0.00,VWS V14.00,2013-12-11 23:57:00,
2013-12-11 18:58:00,26.1,14.5,30.14,West,263,12.0,17.0,61,0.00,,BKN070,0.00,VWS V14.00,2013-12-11 23:58:00,
2013-12-11 18:59:00,26.1,14.5,30.15,West,268,12.0,17.0,61,0.00,,BKN070,0.00,VWS V14.00,2013-12-11 23:59:00,
2013-12-11 19:00:00,26.1,14.9,30.14,West,271,10.0,17.0,62,0.00,,BKN070,0.00,VWS V14.00,2013-12-12 00:00:00,
2013-12-11 19:01:00,26.0,14.4,30.14,West,276,9.0,12.0,61,0.00,,BKN070,0.00,VWS V14.00,2013-12-12 00:01:00,
2013-12-11 19:02:00,26.0,14.8,30.14,West,273,11.0,12.0,62,0.00,,BKN070,0.00,VWS V14.00,2013-12-12 00:02:00,
2013-12-11 19:03:00,26.1,15.2,30.15,West,277,10.0,12.0,63,0.00,,BKN070,0.00,VWS V14.00,2013-12-12 00:03:00,
2013-12-11 19:04:00,26.1,14.9,30.15,West,275,8.0,12.0,62,0.00,,BKN070,0.00,VWS V14.00,2013-12-12 00:04:00,
2013-12-11 19:05:00,26.0,14.4,30.15,West,259,11.0,12.0,61,0.00,,BKN070,0.00,VWS V14.00,2013-12-12 00:05:00,
2013-12-11 19:06:00,26.0,14.4,30.15,West,275,7.0,12.0,61,0.00,,BKN070,0.00,VWS V14.00,2013-12-12 00:06:00,
2013-12-11 19:07:00,25.9,14.3,30.15,WSW,257,13.0,13.0,61,0.00,,BKN070,0.00,VWS V14.00,2013-12-12 00:07:00,
2013-12-11 19:08:00,25.8,14.2,30.15,West,271,4.0,13.0,61,0.00,,BKN070,0.00,VWS V14.00,2013-12-12 00:08:00,
2013-12-11 19:09:00,25.8,14.6,30.15,WNW,293,6.0,13.0,62,0.00,,BKN070,0.00,VWS V14.00,2013-12-12 00:09:00,
2013-12-11 19:10:00,25.8,14.6,30.15,WNW,296,6.0,13.0,62,0.00,,BKN070,0.00,VWS V14.00,2013-12-12 00:10:00,
2013-12-11 19:11:00,25.7,14.1,30.15,West,279,4.0,5.0,61,0.00,,BKN070,0.00,VWS V14.00,2013-12-12 00:11:00,
2013-12-11 19:12:00,25.7,14.5,30.15,WNW,288,5.0,6.0,62,0.00,,BKN070,0.00,VWS V14.00,2013-12-12 00:12:00,
2013-12-11 19:13:00,25.7,14.1,30.15,WNW,284,9.0,12.0,61,0.00,,BKN070,0.00,VWS V14.00,2013-12-12 00:13:00,
2013-12-11 19:14:00,25.7,14.1,30.15,WNW,288,7.0,12.0,61,0.00,,BKN070,0.00,VWS V14.00,2013-12-12 00:14:00,
2013-12-11 19:15:00,25.7,14.5,30.15,NW,314,6.0,12.0,62,0.00,,BKN070,0.00,VWS V14.00,2013-12-12 00:15:00,
2013-12-11 19:16:00,25.7,14.5,30.15,NW,304,5.0,12.0,62,0.00,,BKN070,0.00,VWS V14.00,2013-12-12 00:16:00,
2013-12-11 19:17:00,25.7,14.5,30.15,West,265,10.0,12.0,62,0.00,,BKN070,0.00,VWS V14.00,2013-12-12 00:17:00,
2013-12-11 19:18:00,25.7,14.5,30.15,West,259,7.0,12.0,62,0.00,,BKN070,0.00,VWS V14.00,2013-12-12 00:18:00,
2013-12-11 19:19:00,25.7,14.5,30.15,West,277,5.0,12.0,62,0.00,,BKN070,0.00,VWS V14.00,2013-12-12 00:19:00,
2013-12-11 19:20:00,25.7,14.9,30.15,WNW,302,8.0,12.0,63,0.00,,BKN070,0.00,VWS V14.00,2013-12-12 00:20:00,
2013-12-11 19:21:00,25.7,15.2,30.15,NNW,333,13.0,18.0,64,0.00,,BKN070,0.00,VWS V14.00,2013-12-12 00:21:00,
2013-12-11 19:22:00,25.5,15.0,30.15,NNW,346,10.0,18.0,64,0.00,,BKN070,0.00,VWS V14.00,2013-12-12 00:22:00,
2013-12-11 19:23:00,25.4,16.0,30.15,North,360,15.0,18.0,67,0.00,,BKN070,0.00,VWS V14.00,2013-12-12 00:23:00,
2013-12-11 19:24:00,25.2,16.5,30.15,NNE,13,6.0,18.0,69,0.00,,BKN070,0.00,VWS V14.00,2013-12-12 00:24:00,
2013-12-11 19:25:00,25.0,16.6,30.16,NNW,330,17.0,18.0,70,0.00,,BKN070,0.00,VWS V14.00,2013-12-12 00:25:00,
2013-12-11 19:26:00,24.8,16.8,30.16,NNW,346,16.0,18.0,71,0.00,,BKN070,0.00,VWS V14.00,2013-12-12 00:26:00,
2013-12-11 19:27:00,24.5,17.4,30.16,NNW,335,15.0,18.0,74,0.00,,BKN070,0.00,VWS V14.00,2013-12-12 00:27:00,
2013-12-11 19:28:00,24.2,17.1,30.16,NNW,348,5.0,18.0,74,0.00,,BKN070,0.00,VWS V14.00,2013-12-12 00:28:00,
2013-12-11 19:29:00,23.8,17.0,30.16,North,360,13.0,18.0,75,0.00,,BKN070,0.00,VWS V14.00,2013-12-12 00:29:00,
2013-12-11 19:30:00,23.5,17.1,30.16,NNW,348,14.0,18.0,76,0.00,,BKN070,0.00,VWS V14.00,2013-12-12 00:30:00,
2013-12-11 19:31:00,23.3,17.2,30.16,NNW,344,12.0,15.0,77,0.00,,BKN070,0.00,VWS V14.00,2013-12-12 00:31:00,
2013-12-11 19:32:00,23.3,17.5,30.16,North,360,9.0,15.0,78,0.00,,BKN070,0.00,VWS V14.00,2013-12-12 00:32:00,
2013-12-11 19:33:00,23.1,17.6,30.16,NNW,348,16.0,16.0,79,0.00,,BKN070,0.00,VWS V14.00,2013-12-12 00:33:00,
2013-12-11 19:34:00,23.0,17.5,30.16,North,351,12.0,16.0,79,0.00,,BKN070,0.00,VWS V14.00,2013-12-12 00:34:00,
2013-12-11 19:35:00,22.9,17.4,30.16,North,349,10.0,16.0,79,0.00,,BKN070,0.00,VWS V14.00,2013-12-12 00:35:00,
2013-12-11 19:36:00,22.8,17.3,30.16,North,355,9.0,16.0,79,0.00,,BKN070,0.00,VWS V14.00,2013-12-12 00:36:00,
2013-12-11 19:37:00,22.8,17.6,30.16,NNW,345,11.0,16.0,80,0.00,,BKN070,0.00,VWS V14.00,2013-12-12 00:37:00,
2013-12-11 19:38:00,22.8,17.9,30.17,North,360,6.0,16.0,81,0.00,,BKN070,0.00,VWS V14.00,2013-12-12 00:38:00,
2013-12-11 19:39:00,22.7,17.8,30.17,NNW,348,10.0,16.0,81,0.00,,BKN070,0.00,VWS V14.00,2013-12-12 00:39:00,
2013-12-11 19:40:00,22.6,17.7,30.17,North,355,10.0,16.0,81,0.00,,BKN070,0.00,VWS V14.00,2013-12-12 00:40:00,
2013-12-11 19:41:00,22.6,17.9,30.17,North,360,6.0,10.0,82,0.00,,BKN070,0.00,VWS V14.00,2013-12-12 00:41:00,
2013-12-11 19:42:00,22.7,18.0,30.17,NNW,345,11.0,13.0,82,0.00,,BKN070,0.00,VWS V14.00,2013-12-12 00:42:00,
2013-12-11 19:43:00,22.6,18.2,30.17,North,350,6.0,13.0,83,0.00,,BKN070,0.00,VWS V14.00,2013-12-12 00:43:00,
2013-12-11 19:44:00,22.5,17.9,30.17,North,360,10.0,13.0,82,0.00,,BKN070,0.00,VWS V14.00,2013-12-12 00:44:00,
2013-12-11 19:45:00,22.5,17.9,30.17,NNW,348,11.0,13.0,82,0.00,,BKN070,0.00,VWS V14.00,2013-12-12 00:45:00,
2013-12-11 19:46:00,22.4,18.0,30.17,North,9,6.0,13.0,83,0.00,,BKN070,0.00,VWS V14.00,2013-12-12 00:46:00,
2013-12-11 19:47:00,22.4,18.0,30.17,WNW,303,16.0,18.0,83,0.00,,BKN070,0.00,VWS V14.00,2013-12-12 00:47:00,
2013-12-11 19:48:00,22.4,18.0,30.17,NW,322,12.0,18.0,83,0.00,,BKN070,0.00,VWS V14.00,2013-12-12 00:48:00,
2013-12-11 19:49:00,22.4,17.8,30.17,NNW,348,14.0,18.0,82,0.00,,BKN070,0.00,VWS V14.00,2013-12-12 00:49:00,
2013-12-11 19:50:00,22.4,17.8,30.17,North,355,11.0,18.0,82,0.00,,BKN070,0.00,VWS V14.00,2013-12-12 00:50:00,
2013-12-11 19:51:00,22.4,17.8,30.17,North,355,10.0,14.0,82,0.00,,BKN070,0.00,VWS V14.00,2013-12-12 00:51:00,
2013-12-11 19:52:00,22.4,17.5,30.17,NW,326,13.0,14.0,81,0.00,,BKN070,0.00,VWS V14.00,2013-12-12 00:52:00,
2013-12-11 19:53:00,22.4,17.5,30.17,NNW,345,10.0,14.0,81,0.00,,BKN070,0.00,VWS V14.00,2013-12-12 00:53:00,
2013-12-11 19:54:00,22.4,17.5,30.17,NNW,329,10.0,16.0,81,0.00,,BKN070,0.00,VWS V14.00,2013-12-12 00:54:00,
2013-12-11 19:55:00,22.4,17.2,30.17,NNW,339,9.0,16.0,80,0.00,,BKN070,0.00,VWS V14.00,2013-12-12 00:55:00,
2013-12-11 19:56:00,22.4,17.2,30.17,NW,326,11.0,16.0,80,0.00,,BKN070,0.00,VWS V14.00,2013-12-12 00:56:00,
2013-12-11 19:57:00,22.4,17.2,30.17,WNW,298,10.0,16.0,80,0.00,,BKN070,0.00,VWS V14.00,2013-12-12 00:57:00,
2013-12-11 19:58:00,22.4,16.9,30.17,NNW,342,9.0,16.0,79,0.00,,BKN070,0.00,VWS V14.00,2013-12-12 00:58:00,
2013-12-11 19:59:00,22.4,16.9,30.17,NNW,338,6.0,16.0,79,0.00,,BKN070,0.00,VWS V14.00,2013-12-12 00:59:00,
2013-12-11 20:00:00,22.5,17.0,30.17,NW,326,10.0,16.0,79,0.00,,BKN070,0.00,VWS V14.00,2013-12-12 01:00:00,
2013-12-11 20:01:00,22.5,17.3,30.17,NW,309,7.0,13.0,80,0.00,,BKN070,0.00,VWS V14.00,2013-12-12 01:01:00,
2013-12-11 20:02:00,22.5,17.0,30.17,NW,321,5.0,13.0,79,0.00,,BKN070,0.00,VWS V14.00,2013-12-12 01:02:00,
2013-12-11 20:03:00,22.5,17.0,30.17,NNW,329,12.0,13.0,79,0.00,,BKN070,0.00,VWS V14.00,2013-12-12 01:03:00,
2013-12-11 20:04:00,22.5,16.7,30.17,NNW,329,6.0,13.0,78,0.00,,BKN070,0.00,VWS V14.00,2013-12-12 01:04:00,
2013-12-11 20:05:00,22.5,16.7,30.17,NW,325,11.0,13.0,78,0.00,,BKN070,0.00,VWS V14.00,2013-12-12 01:05:00,
2013-12-11 20:06:00,22.5,16.7,30.17,NNW,344,11.0,13.0,78,0.00,,BKN070,0.00,VWS V14.00,2013-12-12 01:06:00,
2013-12-11 20:07:00,22.6,16.8,30.17,North,360,8.0,13.0,78,0.00,,BKN070,0.00,VWS V14.00,2013-12-12 01:07:00,
2013-12-11 20:08:00,22.6,16.8,30.17,NNW,329,6.0,13.0,78,0.00,,BKN070,0.00,VWS V14.00,2013-12-12 01:08:00,
2013-12-11 20:09:00,22.7,16.9,30.17,NNW,340,7.0,13.0,78,0.00,,BKN070,0.00,VWS V14.00,2013-12-12 01:09:00,
2013-12-11 20:10:00,22.7,16.6,30.17,WNW,299,4.0,13.0,77,0.00,,BKN070,0.00,VWS V14.00,2013-12-12 01:10:00,
2013-12-11 20:11:00,22.7,16.6,30.17,NW,326,6.0,8.0,77,0.00,,BKN070,0.00,VWS V14.00,2013-12-12 01:11:00,
2013-12-11 20:12:00,22.8,16.7,30.17,North,355,4.0,9.0,77,0.00,,BKN070,0.00,VWS V14.00,2013-12-12 01:12:00,
2013-12-11 20:13:00,22.8,16.4,30.17,WNW,303,5.0,9.0,76,0.00,,BKN070,0.00,VWS V14.00,2013-12-12 01:13:00,
2013-12-11 20:14:00,22.9,16.8,30.17,NW,314,5.0,9.0,77,0.00,,BKN070,0.00,VWS V14.00,2013-12-12 01:14:00,
2013-12-11 20:15:00,22.8,16.4,30.17,NW,311,6.0,9.0,76,0.00,,BKN070,0.00,VWS V14.00,2013-12-12 01:15:00,
2013-12-11 20:16:00,22.9,16.5,30.17,NNE,17,5.0,9.0,76,0.00,,BKN070,0.00,VWS V14.00,2013-12-12 01:16:00,
2013-12-11 20:17:00,22.8,16.1,30.17,NW,323,9.0,9.0,75,0.00,,BKN070,0.00,VWS V14.00,2013-12-12 01:17:00,
2013-12-11 20:18:00,22.8,15.8,30.17,NW,323,6.0,9.0,74,0.00,,BKN070,0.00,VWS V14.00,2013-12-12 01:18:00,
2013-12-11 20:19:00,22.9,15.9,30.17,WNW,296,6.0,9.0,74,0.00,,BKN070,0.00,VWS V14.00,2013-12-12 01:19:00,
2013-12-11 20:20:00,22.9,15.9,30.17,NNW,340,6.0,9.0,74,0.00,,BKN070,0.00,VWS V14.00,2013-12-12 01:20:00,
2013-12-11 20:21:00,22.9,15.6,30.17,NNW,344,7.0,10.0,73,0.00,,BKN070,0.00,VWS V14.00,2013-12-12 01:21:00,
2013-12-11 20:22:00,22.9,15.2,30.17,NNW,344,10.0,10.0,72,0.00,,BKN070,0.00,VWS V14.00,2013-12-12 01:22:00,
2013-12-11 20:23:00,22.9,14.9,30.17,WNW,299,11.0,17.0,71,0.00,,BKN070,0.00,VWS V14.00,2013-12-12 01:23:00,
2013-12-11 20:24:00,22.9,14.9,30.17,NW,320,6.0,17.0,71,0.00,,BKN070,0.00,VWS V14.00,2013-12-12 01:24:00,
2013-12-11 20:25:00,22.9,14.6,30.17,NW,304,11.0,17.0,70,0.00,,BKN070,0.00,VWS V14.00,2013-12-12 01:25:00,
2013-12-11 20:26:00,22.9,14.3,30.17,NNW,327,9.0,17.0,69,0.00,,BKN070,0.00,VWS V14.00,2013-12-12 01:26:00,
2013-12-11 20:27:00,23.0,14.0,30.17,NNW,337,8.0,17.0,68,0.00,,BKN070,0.00,VWS V14.00,2013-12-12 01:27:00,
2013-12-11 20:28:00,23.0,14.4,30.17,NW,321,11.0,17.0,69,0.00,,BKN070,0.00,VWS V14.00,2013-12-12 01:28:00,
2013-12-11 20:29:00,23.1,14.1,30.17,NNW,348,13.0,17.0,68,0.00,,BKN070,0.00,VWS V14.00,2013-12-12 01:29:00,
2013-12-11 20:30:00,23.0,13.4,30.17,NW,310,11.0,17.0,66,0.00,,BKN070,0.00,VWS V14.00,2013-12-12 01:30:00,
2013-12-11 20:31:00,23.0,13.7,30.17,WNW,300,13.0,13.0,67,0.00,,BKN070,0.00,VWS V14.00,2013-12-12 01:31:00,
2013-12-11 20:32:00,22.9,13.3,30.17,NNW,331,10.0,14.0,66,0.00,,BKN070,0.00,VWS V14.00,2013-12-12 01:32:00,
2013-12-11 20:33:00,22.9,12.9,30.17,NW,311,10.0,14.0,65,0.00,,BKN070,0.00,VWS V14.00,2013-12-12 01:33:00,
2013-12-11 20:34:00,22.9,12.9,30.17,NNW,332,8.0,14.0,65,0.00,,BKN070,0.00,VWS V14.00,2013-12-12 01:34:00,
2013-12-11 20:35:00,22.9,13.3,30.17,NNW,338,7.0,14.0,66,0.00,,BKN070,0.00,VWS V14.00,2013-12-12 01:35:00,
2013-12-11 20:36:00,22.9,13.3,30.17,NW,315,10.0,14.0,66,0.00,,BKN070,0.00,VWS V14.00,2013-12-12 01:36:00,
2013-12-11 20:37:00,22.9,12.9,30.17,NNW,342,7.0,14.0,65,0.00,,BKN070,0.00,VWS V14.00,2013-12-12 01:37:00,
2013-12-11 20:38:00,22.9,12.9,30.17,NW,314,6.0,14.0,65,0.00,,BKN070,0.00,VWS V14.00,2013-12-12 01:38:00,
2013-12-11 20:39:00,22.9,12.9,30.17,NNW,338,10.0,14.0,65,0.00,,BKN070,0.00,VWS V14.00,2013-12-12 01:39:00,
2013-12-11 20:40:00,22.9,12.6,30.17,NNW,335,7.0,14.0,64,0.00,,BKN070,0.00,VWS V14.00,2013-12-12 01:40:00,
2013-12-11 20:41:00,22.9,12.6,30.17,NNW,342,11.0,13.0,64,0.00,,BKN070,0.00,VWS V14.00,2013-12-12 01:41:00,
2013-12-11 20:42:00,22.9,12.6,30.17,NW,311,9.0,13.0,64,0.00,,BKN070,0.00,VWS V14.00,2013-12-12 01:42:00,
2013-12-11 20:43:00,22.9,12.6,30.17,NNW,333,9.0,13.0,64,0.00,,BKN070,0.00,VWS V14.00,2013-12-12 01:43:00,
2013-12-11 20:44:00,22.9,12.9,30.17,NW,320,9.0,13.0,65,0.00,,BKN070,0.00,VWS V14.00,2013-12-12 01:44:00,
2013-12-11 20:45:00,22.9,12.6,30.17,NNE,14,5.0,13.0,64,0.00,,BKN070,0.00,VWS V14.00,2013-12-12 01:45:00,
2013-12-11 20:46:00,22.9,12.6,30.17,NNW,348,7.0,13.0,64,0.00,,BKN070,0.00,VWS V14.00,2013-12-12 01:46:00,
2013-12-11 20:47:00,22.9,12.6,30.17,WNW,303,10.0,13.0,64,0.00,,BKN070,0.00,VWS V14.00,2013-12-12 01:47:00,
2013-12-11 20:48:00,22.9,12.9,30.17,NW,309,7.0,13.0,65,0.00,,OVC031,0.00,VWS V14.00,2013-12-12 01:48:00,
2013-12-11 20:49:00,23.0,13.0,30.17,NW,309,6.0,13.0,65,0.00,,OVC031,0.00,VWS V14.00,2013-12-12 01:49:00,
2013-12-11 20:50:00,22.9,12.2,30.17,North,355,8.0,13.0,63,0.00,,OVC031,0.00,VWS V14.00,2013-12-12 01:50:00,
2013-12-11 20:51:00,22.9,12.6,30.17,NW,321,7.0,8.0,64,0.00,,OVC031,0.00,VWS V14.00,2013-12-12 01:51:00,
2013-12-11 20:52:00,22.9,12.2,30.17,NW,326,11.0,13.0,63,0.00,,OVC031,0.00,VWS V14.00,2013-12-12 01:52:00,
2013-12-11 20:53:00,22.8,12.5,30.17,NNW,342,7.0,13.0,64,0.00,,OVC031,0.00,VWS V14.00,2013-12-12 01:53:00,
2013-12-11 20:54:00,22.8,12.1,30.17,NNW,338,9.0,13.0,63,0.00,,OVC031,0.00,VWS V14.00,2013-12-12 01:54:00,
2013-12-11 20:55:00,22.8,12.1,30.17,NNW,336,8.0,13.0,63,0.00,,OVC031,0.00,VWS V14.00,2013-12-12 01:55:00,
2013-12-11 20:56:00,22.8,12.5,30.17,NW,307,5.0,13.0,64,0.00,,OVC031,0.00,VWS V14.00,2013-12-12 01:56:00,
2013-12-11 20:57:00,22.8,12.8,30.17,NW,321,6.0,13.0,65,0.00,,OVC031,0.00,VWS V14.00,2013-12-12 01:57:00,
2013-12-11 20:58:00,22.8,12.5,30.17,WNW,303,5.0,13.0,64,0.00,,OVC031,0.00,VWS V14.00,2013-12-12 01:58:00,
2013-12-11 20:59:00,22.8,12.5,30.17,NW,311,5.0,13.0,64,0.00,,OVC031,0.00,VWS V14.00,2013-12-12 01:59:00,
2013-12-11 21:00:00,22.9,12.9,30.17,NNW,333,7.0,13.0,65,0.00,,OVC031,0.00,VWS V14.00,2013-12-12 02:00:00,
2013-12-11 21:01:00,22.9,12.9,30.17,NNW,338,7.0,7.0,65,0.00,,OVC031,0.00,VWS V14.00,2013-12-12 02:01:00,
2013-12-11 21:02:00,22.8,12.5,30.17,NNW,339,6.0,7.0,64,0.00,,OVC031,0.00,VWS V14.00,2013-12-12 02:02:00,
2013-12-11 21:03:00,22.8,12.1,30.17,NNW,340,12.0,12.0,63,0.00,,OVC031,0.00,VWS V14.00,2013-12-12 02:03:00,
2013-12-11 21:04:00,22.7,12.0,30.17,NNW,343,7.0,12.0,63,0.00,,OVC031,0.00,VWS V14.00,2013-12-12 02:04:00,
2013-12-11 21:05:00,22.7,12.0,30.18,NW,315,7.0,12.0,63,0.00,,OVC031,0.00,VWS V14.00,2013-12-12 02:05:00,
2013-12-11 21:06:00,22.7,12.0,30.18,WNW,302,9.0,12.0,63,0.00,,OVC031,0.00,VWS V14.00,2013-12-12 02:06:00,
2013-12-11 21:07:00,22.7,12.4,30.18,NW,325,9.0,12.0,64,0.00,,OVC031,0.00,VWS V14.00,2013-12-12 02:07:00,
2013-12-11 21:08:00,22.7,12.4,30.18,NNW,329,6.0,12.0,64,0.00,,OVC031,0.00,VWS V14.00,2013-12-12 02:08:00,
2013-12-11 21:09:00,22.7,12.4,30.18,NNW,342,5.0,12.0,64,0.00,,OVC031,0.00,VWS V14.00,2013-12-12 02:09:00,
2013-12-11 21:10:00,22.7,12.4,30.18,NNW,342,6.0,12.0,64,0.00,,OVC031,0.00,VWS V14.00,2013-12-12 02:10:00,
2013-12-11 21:11:00,22.7,12.4,30.18,NW,319,6.0,7.0,64,0.00,,OVC031,0.00,VWS V14.00,2013-12-12 02:11:00,
2013-12-11 21:12:00,22.7,12.4,30.18,NNW,340,6.0,7.0,64,0.00,,OVC031,0.00,VWS V14.00,2013-12-12 02:12:00,
2013-12-11 21:13:00,22.7,12.4,30.18,NNW,341,6.0,10.0,64,0.00,,OVC031,0.00,VWS V14.00,2013-12-12 02:13:00,
2013-12-11 21:14:00,22.7,12.4,30.18,WNW,298,7.0,10.0,64,0.00,,OVC031,0.00,VWS V14.00,2013-12-12 02:14:00,
2013-12-11 21:15:00,22.7,12.0,30.18,WNW,299,5.0,10.0,63,0.00,,OVC031,0.00,VWS V14.00,2013-12-12 02:15:00,
2013-12-11 21:16:00,22.7,12.7,30.18,NNW,342,8.0,10.0,65,0.00,,OVC031,0.00,VWS V14.00,2013-12-12 02:16:00,
2013-12-11 21:17:00,22.7,12.7,30.18,NNW,342,7.0,10.0,65,0.00,,OVC031,0.00,VWS V14.00,2013-12-12 02:17:00,
2013-12-11 21:18:00,22.7,12.4,30.18,NNW,345,7.0,10.0,64,0.00,,OVC031,0.00,VWS V14.00,2013-12-12 02:18:00,
2013-12-11 21:19:00,22.7,12.7,30.18,NNW,331,7.0,10.0,65,0.00,,OVC031,0.00,VWS V14.00,2013-12-12 02:19:00,
2013-12-11 21:20:00,22.8,12.8,30.17,NW,317,3.0,10.0,65,0.00,,OVC031,0.00,VWS V14.00,2013-12-12 02:20:00,
2013-12-11 21:21:00,22.7,12.4,30.18,NNW,336,7.0,9.0,64,0.00,,OVC031,0.00,VWS V14.00,2013-12-12 02:21:00,
2013-12-11 21:22:00,22.7,12.4,30.17,NNW,327,8.0,9.0,64,0.00,,OVC031,0.00,VWS V14.00,2013-12-12 02:22:00,
2013-12-11 21:23:00,22.7,12.4,30.18,NNW,339,5.0,9.0,64,0.00,,OVC031,0.00,VWS V14.00,2013-12-12 02:23:00,
2013-12-11 21:24:00,22.7,12.4,30.18,NW,323,7.0,9.0,64,0.00,,OVC031,0.00,VWS V14.00,2013-12-12 02:24:00,
2013-12-11 21:25:00,22.7,12.4,30.18,North,355,3.0,11.0,64,0.00,,OVC031,0.00,VWS V14.00,2013-12-12 02:25:00,
2013-12-11 21:26:00,22.7,12.0,30.18,NNW,348,11.0,11.0,63,0.00,,OVC031,0.00,VWS V14.00,2013-12-12 02:26:00,
2013-12-11 21:27:00,22.6,11.6,30.18,NNW,340,6.0,11.0,62,0.00,,OVC031,0.00,VWS V14.00,2013-12-12 02:27:00,
2013-12-11 21:28:00,22.6,11.9,30.18,NNW,339,7.0,11.0,63,0.00,,OVC031,0.00,VWS V14.00,2013-12-12 02:28:00,
2013-12-11 21:29:00,22.6,11.6,30.18,NNW,343,10.0,11.0,62,0.00,,OVC031,0.00,VWS V14.00,2013-12-12 02:29:00,
2013-12-11 21:30:00,22.5,11.5,30.18,NNW,327,10.0,11.0,62,0.00,,OVC031,0.00,VWS V14.00,2013-12-12 02:30:00,
2013-12-11 21:31:00,22.5,11.8,30.18,NNW,331,9.0,11.0,63,0.00,,OVC031,0.00,VWS V14.00,2013-12-12 02:31:00,
2013-12-11 21:32:00,22.4,11.7,30.18,NNW,346,11.0,11.0,63,0.00,,OVC031,0.00,VWS V14.00,2013-12-12 02:32:00,
2013-12-11 21:33:00,22.4,11.7,30.18,NNW,346,10.0,11.0,63,0.00,,OVC031,0.00,VWS V14.00,2013-12-12 02:33:00,
2013-12-11 21:34:00,22.4,11.7,30.18,NNW,331,12.0,12.0,63,0.00,,OVC031,0.00,VWS V14.00,2013-12-12 02:34:00,
2013-12-11 21:35:00,22.3,12.0,30.18,NNW,340,11.0,12.0,64,0.00,,OVC031,0.00,VWS V14.00,2013-12-12 02:35:00,
2013-12-11 21:36:00,22.3,12.3,30.18,North,355,7.0,12.0,65,0.00,,OVC031,0.00,VWS V14.00,2013-12-12 02:36:00,
2013-12-11 21:37:00,22.2,12.2,30.18,North,355,6.0,12.0,65,0.00,,OVC031,0.00,VWS V14.00,2013-12-12 02:37:00,
2013-12-11 21:38:00,22.2,12.6,30.18,NNW,340,11.0,12.0,66,0.00,,OVC031,0.00,VWS V14.00,2013-12-12 02:38:00,
2013-12-11 21:39:00,22.1,12.5,30.18,NNW,329,12.0,12.0,66,0.00,,OVC031,0.00,VWS V14.00,2013-12-12 02:39:00,
2013-12-11 21:40:00,22.0,12.4,30.18,NNW,338,7.0,12.0,66,0.00,,OVC031,0.00,VWS V14.00,2013-12-12 02:40:00,
2013-12-11 21:41:00,22.0,12.7,30.18,North,350,5.0,9.0,67,0.00,,OVC031,0.00,VWS V14.00,2013-12-12 02:41:00,
2013-12-11 21:42:00,22.0,13.1,30.18,NNW,344,10.0,10.0,68,0.00,,OVC031,0.00,VWS V14.00,2013-12-12 02:42:00,
2013-12-11 21:43:00,22.0,13.4,30.19,North,350,6.0,10.0,69,0.00,,OVC031,0.00,VWS V14.00,2013-12-12 02:43:00,
2013-12-11 21:44:00,22.0,13.1,30.19,NE,46,7.0,11.0,68,0.00,,OVC031,0.00,VWS V14.00,2013-12-12 02:44:00,
2013-12-11 21:45:00,21.9,13.3,30.19,North,5,5.0,11.0,69,0.00,,OVC031,0.00,VWS V14.00,2013-12-12 02:45:00,
2013-12-11 21:46:00,21.8,13.2,30.19,NNE,17,4.0,11.0,69,0.00,,OVC031,0.00,VWS V14.00,2013-12-12 02:46:00,
2013-12-11 21:47:00,21.7,13.4,30.19,North,5,3.0,11.0,70,0.00,,OVC031,0.00,VWS V14.00,2013-12-12 02:47:00,
2013-12-11 21:48:00,21.6,13.3,30.19,North,360,2.0,11.0,70,0.00,,OVC048,0.00,VWS V14.00,2013-12-12 02:48:00,
2013-12-11 21:49:00,21.5,13.6,30.19,North,10,1.0,11.0,71,0.00,,OVC048,0.00,VWS V14.00,2013-12-12 02:49:00,
2013-12-11 21:50:00,21.5,13.6,30.19,North,351,3.0,11.0,71,0.00,,OVC048,0.00,VWS V14.00,2013-12-12 02:50:00,
2013-12-11 21:51:00,21.4,13.8,30.19,North,5,3.0,3.0,72,0.00,,OVC048,0.00,VWS V14.00,2013-12-12 02:51:00,
2013-12-11 21:52:00,21.3,13.7,30.19,NNE,25,4.0,5.0,72,0.00,,OVC048,0.00,VWS V14.00,2013-12-12 02:52:00,
2013-12-11 21:53:00,21.3,13.7,30.19,NNE,24,5.0,8.0,72,0.00,,OVC048,0.00,VWS V14.00,2013-12-12 02:53:00,
2013-12-11 21:54:00,21.2,13.9,30.19,NNE,19,2.0,8.0,73,0.00,,OVC048,0.00,VWS V14.00,2013-12-12 02:54:00,
2013-12-11 21:55:00,21.2,13.9,30.19,NNE,19,1.0,8.0,73,0.00,,OVC048,0.00,VWS V14.00,2013-12-12 02:55:00,
2013-12-11 21:56:00,21.2,13.9,30.19,NNE,19,4.0,8.0,73,0.00,,OVC048,0.00,VWS V14.00,2013-12-12 02:56:00,
2013-12-11 21:57:00,21.1,13.8,30.19,North,355,4.0,8.0,73,0.00,,OVC048,0.00,VWS V14.00,2013-12-12 02:57:00,
2013-12-11 21:58:00,21.1,14.1,30.19,North,360,2.0,8.0,74,0.00,,OVC048,0.00,VWS V14.00,2013-12-12 02:58:00,
2013-12-11 21:59:00,21.1,14.1,30.19,NE,36,2.0,8.0,74,0.00,,OVC048,0.00,VWS V14.00,2013-12-12 02:59:00,
2013-12-11 22:00:00,21.1,14.1,30.19,NE,37,2.0,8.0,74,0.00,,OVC048,0.00,VWS V14.00,2013-12-12 03:00:00,
2013-12-11 22:01:00,21.0,13.7,30.19,NE,36,0.0,3.0,73,0.00,,OVC048,0.00,VWS V14.00,2013-12-12 03:01:00,
2013-12-11 22:02:00,20.9,13.9,30.19,NE,42,4.0,4.0,74,0.00,,OVC048,0.00,VWS V14.00,2013-12-12 03:02:00,
2013-12-11 22:03:00,20.9,13.9,30.20,NNE,25,5.0,5.0,74,0.00,,OVC048,0.00,VWS V14.00,2013-12-12 03:03:00,
2013-12-11 22:04:00,20.8,13.8,30.20,NNE,28,6.0,6.0,74,0.00,,OVC048,0.00,VWS V14.00,2013-12-12 03:04:00,
2013-12-11 22:05:00,20.8,13.8,30.20,NE,36,1.0,6.0,74,0.00,,OVC048,0.00,VWS V14.00,2013-12-12 03:05:00,
2013-12-11 22:06:00,20.8,13.8,30.20,NNE,30,6.0,7.0,74,0.00,,OVC048,0.00,VWS V14.00,2013-12-12 03:06:00,
2013-12-11 22:07:00,20.7,13.7,30.20,NE,36,0.0,7.0,74,0.00,,OVC048,0.00,VWS V14.00,2013-12-12 03:07:00,
2013-12-11 22:08:00,20.6,13.6,30.20,NE,34,2.0,7.0,74,0.00,,OVC048,0.00,VWS V14.00,2013-12-12 03:08:00,
2013-12-11 22:09:00,20.5,13.5,30.20,NE,36,3.0,7.0,74,0.00,,OVC048,0.00,VWS V14.00,2013-12-12 03:09:00,
2013-12-11 22:10:00,20.4,13.4,30.19,NE,36,1.0,7.0,74,0.00,,OVC048,0.00,VWS V14.00,2013-12-12 03:10:00,
2013-12-11 22:11:00,20.4,13.4,30.20,NW,311,2.0,2.0,74,0.00,,OVC048,0.00,VWS V14.00,2013-12-12 03:11:00,
2013-12-11 22:12:00,20.4,13.4,30.19,NW,310,0.0,2.0,74,0.00,,OVC048,0.00,VWS V14.00,2013-12-12 03:12:00,
2013-12-11 22:13:00,20.3,13.4,30.20,NW,311,0.0,2.0,74,0.00,,OVC048,0.00,VWS V14.00,2013-12-12 03:13:00,
2013-12-11 22:14:00,20.3,13.4,30.20,North,360,0.0,2.0,74,0.00,,OVC048,0.00,VWS V14.00,2013-12-12 03:14:00,
2013-12-11 22:15:00,20.3,13.4,30.20,North,360,0.0,2.0,74,0.00,,OVC048,0.00,VWS V14.00,2013-12-12 03:15:00,
2013-12-11 22:16:00,20.2,13.2,30.20,North,360,0.0,2.0,74,0.00,,OVC048,0.00,VWS V14.00,2013-12-12 03:16:00,
2013-12-11 22:17:00,20.2,13.2,30.20,North,360,0.0,2.0,74,0.00,,OVC048,0.00,VWS V14.00,2013-12-12 03:17:00,
2013-12-11 22:18:00,20.2,13.6,30.20,North,5,2.0,6.0,75,0.00,,OVC048,0.00,VWS V14.00,2013-12-12 03:18:00,
2013-12-11 22:19:00,20.2,13.6,30.20,North,355,3.0,6.0,75,0.00,,OVC048,0.00,VWS V14.00,2013-12-12 03:19:00,
2013-12-11 22:20:00,20.2,13.9,30.20,North,9,3.0,6.0,76,0.00,,OVC048,0.00,VWS V14.00,2013-12-12 03:20:00,
2013-12-11 22:21:00,20.2,13.9,30.20,NNW,347,2.0,4.0,76,0.00,,OVC048,0.00,VWS V14.00,2013-12-12 03:21:00,
2013-12-11 22:22:00,20.2,13.9,30.20,NNW,346,3.0,4.0,76,0.00,,OVC048,0.00,VWS V14.00,2013-12-12 03:22:00,
2013-12-11 22:23:00,20.2,13.9,30.20,North,9,1.0,5.0,76,0.00,,OVC048,0.00,VWS V14.00,2013-12-12 03:23:00,
2013-12-11 22:24:00,20.3,14.0,30.20,North,355,2.0,6.0,76,0.00,,OVC048,0.00,VWS V14.00,2013-12-12 03:24:00,
2013-12-11 22:25:00,20.3,14.0,30.20,North,355,0.0,6.0,76,0.00,,OVC048,0.00,VWS V14.00,2013-12-12 03:25:00,
2013-12-11 22:26:00,20.3,14.3,30.20,North,355,0.0,6.0,77,0.00,,OVC048,0.00,VWS V14.00,2013-12-12 03:26:00,
2013-12-11 22:27:00,20.3,14.3,30.20,NE,49,1.0,6.0,77,0.00,,OVC048,0.00,VWS V14.00,2013-12-12 03:27:00,
2013-12-11 22:28:00,20.3,14.3,30.20,NNW,340,1.0,6.0,77,0.00,,OVC048,0.00,VWS V14.00,2013-12-12 03:28:00,
2013-12-11 22:29:00,20.3,14.3,30.20,NNW,340,0.0,6.0,77,0.00,,OVC048,0.00,VWS V14.00,2013-12-12 03:29:00,
2013-12-11 22:30:00,20.3,14.3,30.20,NNW,340,0.0,6.0,77,0.00,,OVC048,0.00,VWS V14.00,2013-12-12 03:30:00,
2013-12-11 22:31:00,20.2,14.2,30.20,NNW,340,0.0,1.0,77,0.00,,OVC048,0.00,VWS V14.00,2013-12-12 03:31:00,
2013-12-11 22:32:00,20.2,14.2,30.20,NNW,340,1.0,2.0,77,0.00,,OVC048,0.00,VWS V14.00,2013-12-12 03:32:00,
2013-12-11 22:33:00,20.1,13.8,30.20,NNW,339,2.0,2.0,76,0.00,,OVC048,0.00,VWS V14.00,2013-12-12 03:33:00,
2013-12-11 22:34:00,20.1,13.8,30.20,NNW,341,0.0,2.0,76,0.00,,OVC048,0.00,VWS V14.00,2013-12-12 03:34:00,
2013-12-11 22:35:00,20.0,13.7,30.20,NNW,348,1.0,2.0,76,0.00,,OVC048,0.00,VWS V14.00,2013-12-12 03:35:00,
2013-12-11 22:36:00,19.9,13.6,30.20,NNW,348,0.0,2.0,76,0.00,,OVC048,0.00,VWS V14.00,2013-12-12 03:36:00,
2013-12-11 22:37:00,19.9,13.6,30.20,NNW,348,0.0,2.0,76,0.00,,OVC048,0.00,VWS V14.00,2013-12-12 03:37:00,
2013-12-11 22:38:00,19.8,13.5,30.20,NNW,348,0.0,2.0,76,0.00,,OVC048,0.00,VWS V14.00,2013-12-12 03:38:00,
2013-12-11 22:39:00,19.7,13.4,30.20,NNW,348,0.0,2.0,76,0.00,,OVC048,0.00,VWS V14.00,2013-12-12 03:39:00,
2013-12-11 22:40:00,19.7,13.4,30.20,NNW,348,0.0,2.0,76,0.00,,OVC048,0.00,VWS V14.00,2013-12-12 03:40:00,
2013-12-11 22:41:00,19.7,13.4,30.20,NNW,348,1.0,1.0,76,0.00,,OVC048,0.00,VWS V14.00,2013-12-12 03:41:00,
2013-12-11 22:42:00,19.7,13.4,30.20,NNW,348,0.0,1.0,76,0.00,,OVC048,0.00,VWS V14.00,2013-12-12 03:42:00,
2013-12-11 22:43:00,19.7,13.4,30.20,NNW,348,0.0,1.0,76,0.00,,OVC048,0.00,VWS V14.00,2013-12-12 03:43:00,
2013-12-11 22:44:00,19.7,13.4,30.20,NNW,348,0.0,1.0,76,0.00,,OVC048,0.00,VWS V14.00,2013-12-12 03:44:00,
2013-12-11 22:45:00,19.6,13.3,30.20,NNW,348,2.0,2.0,76,0.00,,OVC048,0.00,VWS V14.00,2013-12-12 03:45:00,
2013-12-11 22:46:00,19.5,13.2,30.20,NE,48,1.0,2.0,76,0.00,,OVC048,0.00,VWS V14.00,2013-12-12 03:46:00,
2013-12-11 22:47:00,19.4,13.1,30.20,NE,49,1.0,2.0,76,0.00,,OVC048,0.00,VWS V14.00,2013-12-12 03:47:00,
2013-12-11 22:48:00,19.4,13.1,30.21,NE,48,1.0,2.0,76,0.00,,OVC060,0.00,VWS V14.00,2013-12-12 03:48:00,
2013-12-11 22:49:00,19.4,13.1,30.21,NE,49,0.0,2.0,76,0.00,,OVC060,0.00,VWS V14.00,2013-12-12 03:49:00,
2013-12-11 22:50:00,19.3,13.0,30.21,NE,49,2.0,2.0,76,0.00,,OVC060,0.00,VWS V14.00,2013-12-12 03:50:00,
2013-12-11 22:51:00,19.3,13.0,30.21,NE,49,3.0,3.0,76,0.00,,OVC060,0.00,VWS V14.00,2013-12-12 03:51:00,
2013-12-11 22:52:00,19.2,12.9,30.21,NE,49,0.0,3.0,76,0.00,,OVC060,0.00,VWS V14.00,2013-12-12 03:52:00,
2013-12-11 22:53:00,19.2,12.9,30.21,NE,48,0.0,3.0,76,0.00,,OVC060,0.00,VWS V14.00,2013-12-12 03:53:00,
2013-12-11 22:54:00,19.2,12.9,30.21,NE,49,0.0,3.0,76,0.00,,OVC060,0.00,VWS V14.00,2013-12-12 03:54:00,
2013-12-11 22:55:00,19.1,12.8,30.21,NE,48,0.0,3.0,76,0.00,,OVC060,0.00,VWS V14.00,2013-12-12 03:55:00,
2013-12-11 22:56:00,19.1,12.8,30.21,NE,49,0.0,3.0,76,0.00,,OVC060,0.00,VWS V14.00,2013-12-12 03:56:00,
2013-12-11 22:57:00,19.1,12.8,30.21,NE,49,0.0,3.0,76,0.00,,OVC060,0.00,VWS V14.00,2013-12-12 03:57:00,
2013-12-11 22:58:00,19.1,12.8,30.21,NE,49,0.0,3.0,76,0.00,,OVC060,0.00,VWS V14.00,2013-12-12 03:58:00,
2013-12-11 22:59:00,19.0,12.7,30.21,NE,49,3.0,3.0,76,0.00,,OVC060,0.00,VWS V14.00,2013-12-12 03:59:00,
2013-12-11 23:00:00,19.0,12.7,30.21,NNE,28,1.0,3.0,76,0.00,,OVC060,0.00,VWS V14.00,2013-12-12 04:00:00,
2013-12-11 23:01:00,19.0,12.7,30.21,NNE,28,0.0,0.0,76,0.00,,OVC060,0.00,VWS V14.00,2013-12-12 04:01:00,
2013-12-11 23:02:00,18.9,12.6,30.21,NNE,28,0.0,0.0,76,0.00,,OVC060,0.00,VWS V14.00,2013-12-12 04:02:00,
2013-12-11 23:03:00,18.9,12.6,30.21,NNE,29,0.0,2.0,76,0.00,,OVC060,0.00,VWS V14.00,2013-12-12 04:03:00,
2013-12-11 23:04:00,18.9,12.6,30.21,NNE,28,0.0,2.0,76,0.00,,OVC060,0.00,VWS V14.00,2013-12-12 04:04:00,
2013-12-11 23:05:00,18.9,12.6,30.21,NNE,29,0.0,2.0,76,0.00,,OVC060,0.00,VWS V14.00,2013-12-12 04:05:00,
2013-12-11 23:06:00,18.8,12.5,30.21,NNE,28,1.0,2.0,76,0.00,,OVC060,0.00,VWS V14.00,2013-12-12 04:06:00,
2013-12-11 23:07:00,18.8,12.5,30.21,NNE,28,0.0,2.0,76,0.00,,OVC060,0.00,VWS V14.00,2013-12-12 04:07:00,
2013-12-11 23:08:00,18.8,12.5,30.21,North,360,2.0,2.0,76,0.00,,OVC060,0.00,VWS V14.00,2013-12-12 04:08:00,
2013-12-11 23:09:00,18.8,12.5,30.21,North,360,2.0,2.0,76,0.00,,OVC060,0.00,VWS V14.00,2013-12-12 04:09:00,
2013-12-11 23:10:00,18.8,12.5,30.21,NNE,30,3.0,4.0,76,0.00,,OVC060,0.00,VWS V14.00,2013-12-12 04:10:00,
2013-12-11 23:11:00,18.8,12.5,30.21,NNE,30,1.0,2.0,76,0.00,,OVC060,0.00,VWS V14.00,2013-12-12 04:11:00,
2013-12-11 23:12:00,18.8,12.5,30.21,North,360,3.0,3.0,76,0.00,,OVC060,0.00,VWS V14.00,2013-12-12 04:12:00,
2013-12-11 23:13:00,18.8,12.8,30.21,North,350,4.0,7.0,77,0.00,,OVC060,0.00,VWS V14.00,2013-12-12 04:13:00,
2013-12-11 23:14:00,18.9,12.9,30.21,NE,40,0.0,7.0,77,0.00,,OVC060,0.00,VWS V14.00,2013-12-12 04:14:00,
2013-12-11 23:15:00,18.9,12.9,30.21,North,5,1.0,7.0,77,0.00,,OVC060,0.00,VWS V14.00,2013-12-12 04:15:00,
2013-12-11 23:16:00,18.9,12.9,30.21,North,5,1.0,7.0,77,0.00,,OVC060,0.00,VWS V14.00,2013-12-12 04:16:00,
2013-12-11 23:17:00,18.9,12.9,30.21,North,9,1.0,7.0,77,0.00,,OVC060,0.00,VWS V14.00,2013-12-12 04:17:00,
2013-12-11 23:18:00,18.9,12.9,30.21,NNE,19,3.0,7.0,77,0.00,,OVC060,0.00,VWS V14.00,2013-12-12 04:18:00,
2013-12-11 23:19:00,18.8,12.5,30.21,NNE,19,0.0,7.0,76,0.00,,OVC060,0.00,VWS V14.00,2013-12-12 04:19:00,
2013-12-11 23:20:00,18.8,12.5,30.21,NE,36,2.0,7.0,76,0.00,,OVC060,0.00,VWS V14.00,2013-12-12 04:20:00,
2013-12-11 23:21:00,18.7,12.4,30.22,NE,38,0.0,2.0,76,0.00,,OVC060,0.00,VWS V14.00,2013-12-12 04:21:00,
2013-12-11 23:22:00,18.6,12.3,30.22,NE,38,0.0,2.0,76,0.00,,OVC060,0.00,VWS V14.00,2013-12-12 04:22:00,
2013-12-11 23:23:00,18.6,12.3,30.22,NE,38,0.0,2.0,76,0.00,,OVC060,0.00,VWS V14.00,2013-12-12 04:23:00,
2013-12-11 23:24:00,18.6,12.0,30.22,NE,38,0.0,2.0,75,0.00,,OVC060,0.00,VWS V14.00,2013-12-12 04:24:00,
2013-12-11 23:25:00,18.5,11.9,30.22,NE,38,0.0,2.0,75,0.00,,OVC060,0.00,VWS V14.00,2013-12-12 04:25:00,
2013-12-11 23:26:00,18.5,11.9,30.22,NE,38,0.0,2.0,75,0.00,,OVC060,0.00,VWS V14.00,2013-12-12 04:26:00,
2013-12-11 23:27:00,18.4,11.8,30.22,NE,38,0.0,2.0,75,0.00,,OVC060,0.00,VWS V14.00,2013-12-12 04:27:00,
2013-12-11 23:28:00,18.4,12.1,30.22,NE,38,0.0,2.0,76,0.00,,OVC060,0.00,VWS V14.00,2013-12-12 04:28:00,
2013-12-11 23:29:00,18.4,12.1,30.22,NE,37,0.0,2.0,76,0.00,,OVC060,0.00,VWS V14.00,2013-12-12 04:29:00,
2013-12-11 23:30:00,18.3,11.7,30.22,NE,38,0.0,2.0,75,0.00,,OVC060,0.00,VWS V14.00,2013-12-12 04:30:00,
2013-12-11 23:31:00,18.3,11.7,30.22,NE,37,0.0,0.0,75,0.00,,OVC060,0.00,VWS V14.00,2013-12-12 04:31:00,
2013-12-11 23:32:00,18.2,11.6,30.22,NE,38,0.0,0.0,75,0.00,,OVC060,0.00,VWS V14.00,2013-12-12 04:32:00,
2013-12-11 23:33:00,18.2,11.6,30.22,NE,37,0.0,0.0,75,0.00,,OVC060,0.00,VWS V14.00,2013-12-12 04:33:00,
2013-12-11 23:34:00,18.2,11.6,30.22,NE,38,0.0,0.0,75,0.00,,OVC060,0.00,VWS V14.00,2013-12-12 04:34:00,
2013-12-11 23:35:00,18.2,11.6,30.22,NE,38,0.0,0.0,75,0.00,,OVC060,0.00,VWS V14.00,2013-12-12 04:35:00,
2013-12-11 23:36:00,18.1,11.5,30.22,NE,37,0.0,0.0,75,0.00,,OVC060,0.00,VWS V14.00,2013-12-12 04:36:00,
2013-12-11 23:37:00,18.1,11.5,30.22,NE,38,0.0,0.0,75,0.00,,OVC060,0.00,VWS V14.00,2013-12-12 04:37:00,
2013-12-11 23:38:00,18.0,11.4,30.22,NE,37,0.0,0.0,75,0.00,,OVC060,0.00,VWS V14.00,2013-12-12 04:38:00,
2013-12-11 23:39:00,18.0,11.7,30.22,NE,37,0.0,0.0,76,0.00,,OVC060,0.00,VWS V14.00,2013-12-12 04:39:00,
2013-12-11 23:40:00,18.0,11.7,30.22,NE,38,0.0,0.0,76,0.00,,OVC060,0.00,VWS V14.00,2013-12-12 04:40:00,
2013-12-11 23:41:00,18.0,11.7,30.22,NE,38,0.0,0.0,76,0.00,,OVC060,0.00,VWS V14.00,2013-12-12 04:41:00,
2013-12-11 23:42:00,17.9,11.6,30.22,NE,38,0.0,0.0,76,0.00,,OVC060,0.00,VWS V14.00,2013-12-12 04:42:00,
2013-12-11 23:43:00,17.9,11.6,30.22,NE,37,0.0,0.0,76,0.00,,OVC060,0.00,VWS V14.00,2013-12-12 04:43:00,
2013-12-11 23:44:00,17.9,11.6,30.22,NE,37,0.0,0.0,76,0.00,,OVC060,0.00,VWS V14.00,2013-12-12 04:44:00,
2013-12-11 23:45:00,17.9,11.6,30.22,NE,38,0.0,0.0,76,0.00,,OVC060,0.00,VWS V14.00,2013-12-12 04:45:00,
2013-12-11 23:46:00,17.9,11.6,30.22,NE,37,0.0,0.0,76,0.00,,OVC060,0.00,VWS V14.00,2013-12-12 04:46:00,
2013-12-11 23:47:00,17.9,11.6,30.22,NE,38,0.0,0.0,76,0.00,,OVC060,0.00,VWS V14.00,2013-12-12 04:47:00,
2013-12-11 23:48:00,17.8,11.5,30.22,NE,37,0.0,0.0,76,0.00,,OVC050,0.00,VWS V14.00,2013-12-12 04:48:00,
2013-12-11 23:49:00,17.8,11.5,30.22,NE,38,0.0,0.0,76,0.00,,OVC050,0.00,VWS V14.00,2013-12-12 04:49:00,
2013-12-11 23:50:00,17.8,11.5,30.22,NE,37,0.0,0.0,76,0.00,,OVC050,0.00,VWS V14.00,2013-12-12 04:50:00,
2013-12-11 23:51:00,17.8,11.5,30.22,NE,38,0.0,0.0,76,0.00,,OVC050,0.00,VWS V14.00,2013-12-12 04:51:00,
2013-12-11 23:52:00,17.7,11.4,30.22,NE,38,0.0,0.0,76,0.00,,OVC050,0.00,VWS V14.00,2013-12-12 04:52:00,
2013-12-11 23:53:00,17.7,11.4,30.22,NE,37,0.0,0.0,76,0.00,,OVC050,0.00,VWS V14.00,2013-12-12 04:53:00,
2013-12-11 23:54:00,17.7,11.4,30.22,NE,38,0.0,0.0,76,0.00,,OVC050,0.00,VWS V14.00,2013-12-12 04:54:00,
2013-12-11 23:55:00,17.7,11.4,30.22,NE,37,0.0,0.0,76,0.00,,OVC050,0.00,VWS V14.00,2013-12-12 04:55:00,
2013-12-11 23:56:00,17.7,11.4,30.22,NE,38,0.0,0.0,76,0.00,,OVC050,0.00,VWS V14.00,2013-12-12 04:56:00,
2013-12-11 23:57:00,17.7,11.4,30.22,NE,37,0.0,0.0,76,0.00,,OVC050,0.00,VWS V14.00,2013-12-12 04:57:00,
2013-12-11 23:58:00,17.6,11.3,30.22,NE,38,0.0,0.0,76,0.00,,OVC050,0.00,VWS V14.00,2013-12-12 04:58:00,
2013-12-11 23:59:00,17.6,11.3,30.22,NE,38,0.0,0.0,76,0.00,,OVC050,0.00,VWS V14.00,2013-12-12 04:59:00,